[[{"header":{"parameterUnit":"m.s-1","parameterCategory":1,"la1":31.0,"la2":29.5877,"lo1":-88.7671,"lo2":-86.6584,"dy":0.0162,"dx":0.0185,"nx":115,"ny":88,"refTime":"2024-08-31T12:00:00:Z","depth":0,"parameterNumber":2,"parameterNumberName":"U-component_of_WINDS"},"data":[0.0,0.0,0.0,0.0,0.0,0.0,0.0,0.0,0.0,0.0,0.0,0.0,0.0,0.0,0.0,0.0,0.0,0.0,0.0,0.0,0.0,0.0,0.0,0.0,0.0,0.0,0.0,0.0,0.0,0.0,0.0,0.0,0.0,0.0,0.0,0.0,0.0,0.0,0.0,0.0,0.0,0.0,0.0,0.0,0.0,0.0,0.0,0.0,0.0,0.0,0.0,0.0,0.0,0.0,0.0,0.0,0.0,0.0,0.0,0.0,0.0,0.0,0.0,0.0,0.0,0.0,0.0,0.0,0.0,0.0,0.0,0.0,0.0,0.0,0.0,0.0,0.0,0.0,0.0,0.0,0.0,0.0,0.0,0.0,0.0,0.0,0.0,0.0,0.0,0.0,0.0,0.0,0.0,0.0,0.0,0.0,0.0,0.0,0.0,0.0,0.0,0.0,0.0,0.0,0.0,0.0,0.0,0.0,0.0,0.0,0.0,0.0,0.0,0.0,0.0,0.0,0.0,0.0,0.0,0.0,0.0,0.0,0.0,0.0,0.0,0.0,0.0,0.0,0.0,0.0,0.0,0.0,0.0,0.0,0.0,0.0,0.0,0.0,0.0,0.0,0.0,0.0,0.0,0.0,0.0,0.0,0.0,0.0,0.0,0.0,0.0,0.0,0.0,0.0,0.0,0.0,0.0,0.0,0.0,0.0,0.0,0.0,0.0,0.0,0.0,0.0,0.0,0.0,0.0,0.0,0.0,0.0,0.0,0.0,0.0,0.0,0.0,0.0,0.0,0.0,0.0,0.0,0.0,0.0,0.0,0.0,0.0,0.0,0.0,0.0,0.0,0.0,0.0,0.0,0.0,0.0,0.0,0.0,0.0,0.0,0.0,0.0,0.0,0.0,0.0,0.0,0.0,0.0,0.0,0.0,0.0,0.0,0.0,0.0,0.0,0.0,0.0,0.0,0.0,0.0,0.0,0.0,0.0,0.0,0.0,0.0,0.0,0.0,0.0,0.0,0.0,0.0,0.0,0.0,0.0,0.0,0.0,0.0,0.0,0.0,0.0,0.0,0.0,0.0,0.0,0.0,0.0,0.0,0.0,0.0,0.0,0.0,0.0,0.0,0.0,0.0,0.0,0.0,0.0,0.0,0.0,0.0,0.0,0.0,0.0,0.0,0.0,0.0,0.0,0.0,0.0,0.0,0.0,0.0,0.0,0.0,0.0,0.0,0.0,0.0,0.0,0.0,0.0,0.0,0.0,0.0,0.0,0.0,0.0,0.0,0.0,0.0,0.0,0.0,0.0,0.0,0.0,0.0,0.0,0.0,0.0,0.0,0.0,0.0,0.0,0.0,0.0,0.0,0.0,0.0,0.0,0.0,0.0,0.0,0.0,0.0,0.0,0.0,0.0,0.0,0.0,0.0,0.0,0.0,0.0,0.0,0.0,0.0,0.0,0.0,0.0,0.0,0.0,0.0,0.0,0.0,0.0,0.0,0.0,0.0,0.0,0.0,0.0,0.0,0.0,0.0,0.0,0.0,0.0,0.0,0.0,0.0,0.0,0.0,0.0,0.0,0.0,0.0,0.0,0.0,0.0,0.0,0.0,0.0,0.0,0.0,0.0,0.0,0.0,0.0,0.0,0.0,0.0,0.0,0.0,0.0,0.0,0.0,0.0,0.0,0.0,0.0,0.0,0.0,0.0,0.0,0.0,0.0,0.0,0.0,0.0,0.0,0.0,0.0,0.0,0.0,0.0,0.0,0.0,0.0,0.0,0.0,0.0,0.0,0.0,0.0,0.0,0.0,0.0,0.0,0.0,0.0,0.0,0.0,0.0,0.0,0.0,0.0,0.0,0.0,0.0,0.0,0.0,0.0,0.0,0.0,0.0,0.0,0.0,0.0,0.0,0.0,0.0,0.0,0.0,0.0,0.0,0.0,0.0,0.0,0.0,0.0,0.0,0.0,0.0,0.0,0.0,0.0,0.0,0.0,0.0,0.0,0.0,0.0,0.0,0.0,0.0,0.0,0.0,0.0,0.0,0.0,0.0,0.0,0.0,0.0,0.0,0.0,0.0,0.0,0.0,0.0,0.0,0.0,0.0,0.0,0.0,0.0,0.0,0.0,0.0,0.0,0.0,0.0,0.0,0.0,0.0,0.0,0.0,0.0,0.0,0.0,0.0,0.0,0.0,0.0,0.0,0.0,0.0,0.0,0.0,0.0,0.0,0.0,0.0,0.0,0.0,0.0,0.0,0.0,0.0,0.0,0.0,0.0,0.0,0.0,0.0,0.0,0.0,0.0,0.0,0.0,0.0,0.0,0.0,0.0,0.0,0.0,0.0,0.0,0.0,0.0,0.0,0.0,0.0,0.0,0.0,0.0,0.0,0.0,0.0,0.0,0.0,0.0,0.0,0.0,0.0,0.0,0.0,0.0,0.0,0.0,0.0,0.0,0.0,0.0,0.0,0.0,0.0,0.0,0.0,0.0,0.0,0.0,0.0,0.0,0.0,0.0,0.0,0.0,0.0,0.0,0.0,0.0,0.0,0.0,0.0,0.0,0.0,0.0,0.0,0.0,0.0,0.0,0.0,0.0,0.0,0.0,0.0,0.0,0.0,0.0,0.0,0.0,0.0,0.0,0.0,0.0,0.0,0.0,0.0,0.0,0.0,0.0,0.0,0.0,0.0,0.0,0.0,0.0,0.0,0.0,0.0,0.0,0.0,0.0,0.0,0.0,0.0,0.0,0.0,0.0,0.0,0.0,0.0,0.0,0.0,0.0,0.0,0.0,0.0,0.0,0.0,0.0,0.0,0.0,0.0,0.0,0.0,0.0,0.0,0.0,0.0,0.0,0.0,0.0,0.0,0.0,0.0,0.0,0.0,0.0,0.0,0.0,0.0,0.0,0.0,0.0,0.0,0.0,0.0,0.0,0.0,0.0,0.0,0.0,0.0,0.0,0.0,0.0,0.0,0.0,0.0,0.0,0.0,0.0,0.0,0.0,0.0,0.0,0.0,0.0,0.0,0.0,0.0,0.0,0.0,0.0,0.0,0.0,0.0,0.0,0.0,0.0,0.0,0.0,0.0,0.0,0.0,0.0,0.0,0.0,0.0,0.0,0.0,0.0,0.0,0.0,0.0,0.0,0.0,0.0,0.0,0.0,0.0,0.0,0.0,0.0,0.0,0.0,0.0,0.0,0.0,0.0,0.0,0.0,0.0,0.0,0.0,0.0,0.0,0.0,0.0,0.0,0.0,0.0,0.0,0.0,0.0,0.0,0.0,0.0,0.0,0.0,0.0,0.0,0.0,0.0,0.0,0.0,0.0,0.0,0.0,0.0,0.0,0.0,0.0,0.0,0.0,0.0,0.0,0.0,0.0,0.0,0.0,0.0,0.0,0.0,0.0,0.0,0.0,0.0,0.0,0.0,0.0,0.0,0.0,0.0,0.0,0.0,0.0,0.0,0.0,0.0,0.0,0.0,0.0,0.0,0.0,0.0,0.0,0.0,0.0,0.0,0.0,0.0,0.0,0.0,0.0,0.0,0.0,0.0,0.0,0.0,0.0,0.0,0.0,0.0,0.0,0.0,0.0,0.0,0.0,0.0,0.0,0.0,0.0,0.0,0.0,0.0,0.0,0.0,0.0,0.0,0.0,0.0,0.0,0.0,0.0,0.0,0.0,0.0,0.0,0.0,0.0,0.0,0.0,0.0,0.0,0.0,0.0,0.0,0.0,0.0,0.0,0.0,0.0,0.0,0.0,0.0,0.0,0.0,0.0,0.0,0.0,0.0,0.0,0.0,0.0,0.0,0.0,0.0,0.0,0.0,0.0,0.0,0.0,0.0,0.0,0.0,0.0,0.0,0.0,0.0,0.0,0.0,0.0,0.0,0.0,0.0,0.0,0.0,0.0,0.0,0.0,0.0,0.0,0.0,0.0,0.0,0.0,0.0,0.0,0.0,0.0,0.0,0.0,0.0,0.0,0.0,0.0,0.0,0.0,0.0,0.0,0.0,0.0,0.0,0.0,0.0,0.0,0.0,0.0,0.0,0.0,0.0,0.0,0.0,0.0,0.0,0.0,0.0,0.0,0.0,0.0,0.0,0.0,0.0,0.0,0.0,0.0,0.0,0.0,0.0,0.0,0.0,0.0,0.0,0.0,0.0,0.0,0.0,0.0,0.0,0.0,0.0,0.0,0.0,0.0,0.0,0.0,0.0,0.0,0.0,0.0,0.0,0.0,0.0,0.0,0.0,0.0,0.0,0.0,0.0,0.0,0.0,0.7884,0.0,0.0,0.0,0.0,0.0,0.0,0.0,0.0,0.0,0.0,0.0,0.0,0.0,0.0,0.0,0.0,0.0,0.0,0.0,0.0,0.0,0.0,0.0,0.0,0.0,0.0,0.0,0.0,0.0,0.0,0.0,0.0,0.0,0.0,0.0,0.0,0.0,0.0,0.0,0.0,0.0,0.0,0.0,0.0,0.0,0.0,0.0,0.0,0.0,0.0,0.0,0.0,0.0,0.0,0.0,0.0,0.0,0.0,0.0,0.0,0.0,0.0,0.0,0.0,0.0,0.0,0.0,0.0,0.0,0.0,0.0,0.0,0.0,0.0,0.0,0.0,0.0,0.0,0.0,0.0,0.0,0.0,0.0,0.0,0.0,0.0,0.0,0.0,0.0,0.0,0.0,0.0,0.0,0.0,0.0,0.0,0.0,0.0,0.0,0.0,0.0,0.0,0.0,0.0,0.0,0.0,0.0,0.0,0.0,0.0,1.1287,1.0338,1.0179,0.9385,0.7863,0.0,0.0,0.0,0.0,0.0,0.0,0.0,0.0,0.0,0.0,0.0,0.0,0.0,0.0,0.0,0.0,0.0,0.0,0.0,0.0,0.0,0.0,0.0,0.0,0.0,0.0,0.0,0.0,0.0,0.0,0.0,0.0,0.0,0.0,0.0,0.0,0.0,0.0,0.0,0.0,0.0,0.0,0.0,0.0,0.0,0.0,0.0,0.0,0.0,0.0,0.0,0.0,0.0,0.0,0.0,0.0,0.0,0.0,0.0,0.0,0.0,0.0,0.0,0.0,0.0,0.0,0.0,0.0,0.0,0.0,0.0,0.0,0.0,0.0,0.0,0.0,0.0,0.0,0.0,0.0,0.0,0.0,0.0,0.0,0.0,0.0,0.0,0.0,0.0,0.0,0.0,0.0,0.0,0.0,0.0,0.0,0.0,0.0,0.0,0.0,0.0,0.0,0.0,0.0,0.0,0.0,0.0,0.0,0.0,0.0,0.0,0.0,1.0694,0.993,0.8155,0.0,0.0,0.0,0.0,0.0,0.0,0.0,0.0,0.0,0.0,0.0,0.0,0.0,0.0,0.0,0.0,0.0,0.0,0.0,0.0,0.0,0.0,0.0,0.0,0.0,0.0,0.0,0.0,0.0,0.0,0.0,0.0,0.0,0.0,0.0,0.0,0.0,0.0,0.0,0.0,0.0,0.0,0.0,0.0,0.0,0.0,0.0,0.0,0.0,0.0,0.0,0.0,0.0,0.0,0.0,0.0,0.0,0.0,0.0,0.0,0.0,0.0,0.0,0.0,0.0,0.0,0.0,0.0,0.0,0.0,0.0,0.0,0.0,0.0,0.0,0.0,0.0,0.0,0.0,0.0,0.0,0.0,0.0,0.0,0.0,0.0,0.0,0.0,0.0,0.0,0.0,0.0,0.0,0.0,0.0,0.0,0.0,0.0,0.0,0.0,0.0,0.0,0.0,0.0,0.0,0.0,0.0,0.0,0.0,0.0,1.0963,1.2544,1.1822,0.0,0.8953,0.0,0.0,0.0,0.0,0.0,0.0,0.0,0.0,0.0,0.0,0.0,0.0,0.0,0.0,0.0,0.0,0.0,0.0,0.0,0.0,0.0,0.0,0.0,0.0,0.0,0.0,0.0,0.0,0.0,0.0,0.0,0.0,0.0,0.0,0.0,0.0,0.0,0.0,0.0,0.0,0.0,0.0,0.0,0.0,0.0,0.0,0.0,0.0,0.0,0.0,0.0,0.0,0.0,0.0,0.0,0.0,0.0,0.0,0.0,0.0,0.0,0.0,0.0,0.0,0.0,0.0,0.0,0.0,0.0,0.0,0.0,0.0,0.0,0.0,0.0,0.0,0.0,0.0,0.0,0.0,0.0,0.0,0.0,0.0,0.0,0.0,0.0,0.0,0.0,0.0,0.0,0.0,0.0,0.0,0.0,0.0,0.0,0.0,0.0,0.0,0.0,0.0,0.0,0.0,0.0,0.0,0.0,0.0,0.0,0.0,1.1589,1.1538,1.0736,0.9934,0.0,0.0,0.0,0.0,0.0,0.0,0.0,0.0,0.0,0.0,0.0,0.0,0.0,0.0,0.0,0.0,0.0,0.0,0.0,0.0,0.0,0.0,0.0,0.0,0.0,0.0,0.0,0.0,0.0,0.0,0.0,0.0,0.0,0.0,0.0,0.0,0.0,0.0,0.0,0.0,0.0,0.0,0.0,0.0,0.0,0.0,0.0,0.0,0.0,0.0,0.0,0.0,0.0,0.0,0.0,0.0,0.0,0.0,0.0,0.0,0.0,0.0,0.0,0.0,0.0,0.0,0.0,0.0,0.0,0.0,0.0,0.0,0.0,0.0,0.0,0.0,0.0,0.0,0.0,0.0,0.0,0.0,0.0,0.0,0.0,0.0,0.0,0.0,0.0,0.0,0.0,0.0,0.0,0.0,0.0,0.0,0.0,0.0,0.0,0.0,0.0,0.0,0.0,0.0,0.0,0.0,0.0,0.0,0.0,0.0,1.2053,1.2038,1.1293,1.0327,0.958,0.9105,0.0,0.0,0.0,0.0,0.0,0.0,0.0,0.0,0.0,0.0,0.0,0.0,0.0,0.0,0.0,0.0,0.0,0.0,0.0,0.0,0.0,0.0,0.0,0.0,0.0,0.0,0.0,0.0,0.0,0.0,0.0,0.0,0.0,0.0,0.0,0.0,0.0,0.0,0.0,0.0,0.0,0.0,0.0,0.0,0.0,0.0,0.0,0.0,0.0,0.0,0.0,0.0,0.0,0.0,0.0,0.0,0.0,0.0,0.0,0.0,0.0,0.0,0.0,0.0,0.0,0.0,0.0,0.0,0.0,0.0,0.0,0.0,0.0,0.0,0.0,0.0,0.0,0.0,0.0,0.0,0.0,0.0,0.0,0.0,0.0,0.0,0.0,0.0,0.0,0.0,0.0,0.0,0.0,0.0,0.0,0.0,0.0,0.0,0.0,0.0,0.0,0.0,0.0,0.0,0.0,0.0,0.0,0.0,0.0,1.2701,1.2066,1.2904,1.1414,1.0024,0.0,0.0,0.0,0.0,0.0,0.0,0.0,0.0,0.0,0.0,0.0,0.0,0.0,0.0,0.0,0.0,0.0,0.0,0.0,0.0,0.0,0.0,0.0,0.0,0.0,0.0,0.0,0.0,0.0,0.0,0.0,0.0,0.0,0.0,0.0,0.0,0.0,0.0,0.0,0.0,0.0,0.0,0.0,0.0,0.0,0.0,0.0,0.0,0.0,0.0,0.0,0.0,0.0,0.0,0.0,0.0,0.0,0.0,0.0,0.0,0.0,0.0,0.0,0.0,0.0,0.0,0.0,0.0,0.0,0.0,0.0,0.0,0.0,0.0,0.0,0.0,0.0,0.0,0.0,0.0,0.0,0.0,0.0,0.0,0.0,0.0,0.0,0.0,0.0,0.0,0.0,0.0,0.0,0.0,0.0,0.0,0.0,0.0,0.0,0.0,0.0,0.0,0.0,0.0,0.0,0.0,0.0,0.0,0.0,1.0884,1.0734,1.1647,1.3554,1.1121,0.9685,0.0,0.0,0.0,0.0,0.0,0.0,0.0,0.0,0.0,0.0,0.0,0.0,0.0,0.0,0.0,0.0,0.0,0.0,0.0,0.0,0.0,0.0,0.0,0.0,0.0,0.0,0.0,0.0,0.0,0.0,0.0,0.0,0.0,0.0,0.0,0.0,0.0,0.0,0.0,0.0,0.0,0.0,0.0,0.0,0.0,0.0,0.0,0.0,0.0,0.0,0.0,0.0,0.0,0.0,0.0,0.0,0.0,0.0,0.0,0.0,0.0,0.0,0.0,0.0,0.0,0.0,0.0,0.0,0.0,0.0,0.0,0.0,0.0,0.0,0.0,0.0,0.0,0.0,0.0,0.0,0.0,0.0,0.0,0.0,0.0,0.0,0.0,0.0,0.0,0.0,0.0,0.0,0.0,0.0,0.0,0.0,0.0,0.0,0.0,0.0,0.0,0.0,0.0,0.0,0.0,0.0,0.0,0.0,0.0,1.0179,0.0,1.2261,0.0,1.1096,0.9558,0.0,0.0,0.0,0.0,0.0,0.0,0.0,0.0,0.0,0.0,0.0,0.0,0.0,0.0,0.0,0.0,0.0,0.0,0.0,0.0,0.0,0.0,0.0,0.0,0.0,0.0,0.0,0.0,0.0,0.0,0.0,0.0,0.0,0.0,0.0,0.0,0.0,0.0,0.0,0.0,0.0,0.0,0.0,0.0,0.0,0.0,0.0,0.0,0.0,0.0,0.0,0.0,0.0,0.0,0.0,0.0,0.0,0.0,0.0,0.0,0.0,0.0,0.0,0.0,0.0,0.0,0.0,0.0,0.0,0.0,0.0,0.0,0.0,0.0,0.0,0.0,0.0,0.0,0.0,0.0,0.0,0.0,0.0,0.0,0.0,0.0,0.0,0.0,0.0,0.0,0.0,0.0,0.0,0.0,0.0,0.0,0.0,0.0,0.0,0.0,0.0,0.0,0.0,0.0,0.0,0.0,0.0,0.0,1.0323,1.3071,1.4063,1.3808,1.2558,1.1368,0.96,0.0,0.0,0.0,0.0,0.0,0.0,0.0,0.0,0.0,0.0,0.0,0.0,0.0,0.0,0.0,0.0,0.0,0.0,0.0,0.0,0.0,0.0,0.0,0.0,0.0,0.0,0.0,0.0,0.0,0.0,0.0,0.0,0.0,0.0,0.0,0.0,0.0,0.0,0.0,0.0,0.0,0.0,0.0,0.0,0.0,0.0,0.0,0.0,0.0,0.0,0.0,0.0,0.0,0.0,0.0,0.0,0.0,0.0,0.0,0.0,0.0,0.0,0.0,0.0,0.0,0.0,0.0,0.0,0.0,0.0,0.0,0.0,0.0,0.0,0.0,0.0,0.0,0.0,0.0,0.0,0.0,0.0,0.0,0.0,0.0,0.0,0.0,0.0,0.0,0.0,0.0,0.0,0.0,0.0,0.0,0.0,0.0,0.0,0.0,0.0,0.0,0.0,0.0,0.0,0.0,0.0,0.0,0.0,0.0,1.1168,1.1655,1.2124,1.2538,1.0249,0.8997,0.0,0.0,0.0,0.0,0.0,0.0,0.0,0.0,0.0,0.0,0.0,0.0,0.0,0.0,0.0,0.0,0.0,0.0,0.0,0.0,0.0,0.0,0.0,0.0,0.0,0.0,0.0,0.0,0.0,0.0,0.0,0.0,0.0,0.0,0.0,0.0,0.0,0.0,0.0,0.0,0.0,0.0,0.0,0.0,0.0,0.0,0.0,0.0,0.0,0.0,0.0,0.0,0.0,0.0,0.0,0.0,0.0,0.0,0.0,0.0,0.0,0.0,0.0,0.0,0.0,0.0,0.0,0.0,0.0,0.0,0.0,0.0,0.0,0.0,0.0,0.0,0.0,0.0,0.0,0.0,0.0,0.0,0.0,0.0,0.0,0.0,0.0,0.0,0.0,0.0,0.0,0.0,0.0,0.0,0.0,0.0,0.0,0.0,0.0,0.0,0.0,0.0,0.0,0.0,0.0,0.0,0.0,0.0,0.0,1.1711,1.219,1.2525,1.2694,1.0668,0.9428,0.9143,0.0,0.0,0.0,0.0,0.0,0.0,0.0,0.0,0.0,0.0,0.0,0.0,0.0,0.0,0.0,0.0,0.0,0.0,0.0,0.0,0.0,0.0,0.0,0.0,0.0,0.0,0.0,0.0,0.0,0.0,0.0,0.0,0.0,0.0,0.0,0.0,0.0,0.0,0.0,0.0,0.0,0.0,0.0,0.0,0.0,0.0,0.0,0.0,0.0,0.0,0.0,0.0,0.0,0.0,0.0,0.0,0.0,0.0,0.0,0.0,0.0,0.0,0.0,0.0,0.0,0.0,0.0,0.0,0.0,0.0,0.0,0.0,0.0,0.0,0.0,0.0,0.0,0.0,0.0,0.0,0.0,0.0,0.0,0.0,0.0,0.0,0.0,0.0,0.0,0.0,0.0,0.0,0.0,0.0,0.0,0.0,0.0,0.0,0.0,0.0,0.0,0.0,0.0,0.0,0.0,0.0,0.0,0.0,1.4213,1.5162,1.4767,1.3002,1.229,1.0748,0.0,0.0,0.0,0.0,0.0,0.0,0.0,0.0,0.0,0.0,0.0,0.0,0.0,0.0,0.0,0.0,0.0,0.0,0.0,0.0,0.0,0.0,0.0,0.0,0.0,0.0,0.0,0.0,0.0,0.0,0.0,0.0,0.0,0.0,0.0,0.0,0.0,0.0,0.0,0.0,0.0,0.0,0.0,0.0,0.0,0.0,0.0,0.0,0.0,0.0,0.0,0.0,0.0,0.0,0.0,0.0,0.0,0.0,0.0,0.0,0.0,0.0,0.0,0.0,0.0,0.0,0.0,0.0,0.0,0.0,0.0,0.0,0.0,0.0,0.0,0.0,0.0,0.0,0.0,0.0,0.0,0.0,0.0,0.0,0.0,0.0,0.0,0.0,0.0,0.0,0.0,0.0,0.0,0.0,0.0,0.0,0.0,0.0,0.0,0.0,0.0,0.0,0.0,0.0,0.0,0.0,0.0,0.0,0.0,1.5658,1.6169,1.6095,1.5406,1.3005,1.1416,0.0,0.0,0.0,0.0,0.0,0.0,0.0,0.0,0.0,0.0,0.0,0.0,0.0,0.0,0.0,0.0,0.0,0.0,0.0,0.0,0.0,0.0,0.0,0.0,0.0,0.0,0.0,0.0,0.0,0.0,0.0,0.0,0.0,0.0,0.0,0.0,0.0,0.0,0.0,0.0,0.0,0.0,0.0,0.0,0.0,0.0,0.0,0.0,0.0,0.0,0.0,0.0,0.0,0.0,0.0,0.0,0.0,0.0,0.0,0.0,0.0,0.0,0.0,0.0,0.0,0.0,0.0,0.0,0.0,0.0,0.0,0.0,0.0,0.0,0.0,0.0,0.0,0.0,0.0,0.0,0.0,0.0,0.0,0.0,0.0,0.0,0.0,0.0,0.0,0.0,0.0,0.0,0.0,0.0,0.0,0.0,0.0,0.0,0.0,0.0,0.0,0.0,0.0,0.0,0.0,0.0,0.0,0.0,1.4792,1.6242,1.6921,1.727,1.7296,1.4286,1.2249,0.0,0.0,0.0,0.0,0.0,0.0,0.0,0.0,0.0,0.0,0.0,0.0,0.0,0.0,0.0,0.0,0.0,0.0,0.0,0.0,0.0,0.0,0.0,0.0,0.0,0.0,0.0,0.0,0.0,0.0,0.0,0.0,0.0,0.0,0.0,0.0,0.0,0.0,0.0,0.0,0.0,0.0,0.0,0.0,0.0,0.0,0.0,0.0,0.0,0.0,0.0,0.0,0.0,0.0,0.0,0.0,0.0,0.0,0.0,0.0,0.0,0.0,0.0,0.0,0.0,0.0,0.0,0.0,0.0,0.0,0.0,0.0,0.0,0.0,0.0,0.0,0.0,0.0,0.0,0.0,0.0,0.0,0.0,0.0,0.0,0.0,0.0,0.0,0.0,0.0,0.0,0.0,0.0,0.0,0.0,0.0,0.0,0.0,0.0,0.0,0.0,0.0,0.0,0.0,0.0,0.0,0.0,0.0,1.5704,1.6331,1.7529,1.8301,1.85,1.5722,1.3237,0.0,0.0,0.0,0.0,0.0,0.0,0.0,0.0,0.0,0.0,0.0,0.0,0.0,0.0,0.0,0.0,0.0,0.0,0.0,0.0,0.0,0.0,0.0,0.0,0.0,0.0,0.0,0.0,0.0,0.0,0.0,0.0,0.0,0.0,0.0,0.0,0.0,0.0,0.0,0.0,0.0,0.0,0.0,0.0,0.0,0.0,0.0,0.0,0.0,0.0,0.0,0.0,0.0,0.0,0.0,0.0,0.0,0.0,0.0,0.0,0.0,0.0,0.0,0.0,0.0,0.0,0.0,0.0,0.0,0.0,0.0,0.0,0.0,0.0,0.0,0.0,0.0,0.0,0.0,0.0,0.0,0.0,0.0,0.0,0.0,0.0,0.0,0.0,0.0,0.0,0.0,0.0,0.0,0.0,0.0,0.0,0.0,0.0,0.0,0.0,0.0,0.0,0.0,0.0,0.0,0.0,0.0,0.0,1.6462,1.7215,1.8388,1.8887,1.8588,1.6045,1.4121,0.0,0.0,0.0,0.0,0.0,0.0,0.0,0.0,0.0,0.0,0.0,0.0,0.0,0.0,0.0,0.0,0.0,0.0,0.0,0.0,0.0,0.0,0.0,0.0,0.0,0.0,0.0,0.0,0.0,0.0,0.0,0.0,0.0,0.0,0.0,0.0,0.0,0.0,0.0,0.0,0.0,0.0,0.0,0.0,0.0,0.0,0.0,0.0,1.0276,0.0,0.0,0.0,0.0,0.0,0.0,0.0,0.0,0.0,0.0,0.0,0.0,0.0,0.0,0.0,0.0,0.0,0.0,0.0,0.0,0.0,0.0,0.0,0.0,0.0,0.0,0.0,0.0,0.0,0.0,0.0,0.0,0.0,0.0,0.0,0.0,0.0,0.0,0.0,0.0,0.0,0.0,0.0,0.0,0.0,0.0,0.0,0.0,0.0,0.0,0.0,0.0,0.0,0.0,0.0,0.0,0.0,0.0,0.0,1.7017,1.773,1.8744,1.918,1.8887,1.7031,1.5225,0.0,0.0,0.0,0.0,0.0,0.0,0.0,0.0,0.0,0.0,0.0,0.0,0.0,0.0,0.0,0.0,0.0,0.0,0.0,0.0,0.0,0.0,0.0,0.0,0.0,0.0,0.0,0.0,0.0,0.0,0.0,0.0,0.0,0.0,0.0,0.0,0.0,0.0,0.0,0.0,0.0,0.0,0.0,0.0,0.0,0.0,0.0,0.0,0.0,0.0,0.0,0.0,0.0,0.0,0.0,0.0,0.0,0.0,0.0,0.0,0.0,0.0,0.0,0.0,0.0,0.0,0.0,0.0,0.0,0.0,0.0,0.0,0.0,0.0,0.0,0.0,0.0,0.0,0.0,0.0,0.0,0.0,0.0,0.0,0.0,0.0,0.0,0.0,0.0,0.0,0.0,0.0,0.0,0.0,0.0,0.0,0.0,0.0,0.0,0.0,0.0,0.0,0.0,0.0,0.0,0.0,0.0,1.5681,1.7375,1.8213,1.9043,1.9451,1.9277,1.8115,1.626,1.3665,0.0,0.0,0.0,0.0,0.0,0.0,0.0,0.0,0.0,0.0,0.0,0.0,0.0,0.0,0.0,0.0,0.0,0.0,0.0,0.0,0.0,0.0,0.0,0.0,0.0,0.0,0.0,0.0,0.0,0.0,0.0,0.0,0.0,0.0,0.0,0.0,0.0,0.0,1.0052,1.0234,0.0,0.0,0.0,0.0,0.0,0.0,0.0,0.0,1.0766,0.0,0.0,0.0,0.0,0.0,0.0,0.0,0.0,0.0,0.0,0.0,0.0,0.0,0.0,0.0,0.0,0.0,0.0,0.0,0.0,0.0,0.0,0.0,0.0,0.0,0.0,0.0,0.0,0.0,0.0,0.0,0.0,0.0,0.0,0.0,0.0,0.0,0.0,0.0,0.0,0.0,0.0,0.0,0.0,0.0,0.0,0.0,0.0,0.0,0.0,0.0,0.0,0.0,0.0,0.0,0.0,1.5063,1.6039,1.7338,1.9059,1.995,2.0048,1.9297,1.8389,1.6658,1.4104,0.0,0.0,0.0,0.0,0.0,0.0,0.0,0.0,0.0,0.0,0.0,0.0,0.0,0.0,0.0,0.0,0.0,0.0,0.0,0.0,0.0,0.0,0.0,0.0,0.0,0.0,0.0,0.0,0.0,0.0,0.0,0.0,0.0,0.0,0.0,0.0,0.0,0.0,0.0,1.2453,1.2297,0.0,0.0,0.0,0.0,0.0,0.0,0.0,0.0,1.0518,0.0,0.0,0.0,0.0,0.0,0.0,0.0,0.0,0.0,0.0,0.0,0.0,0.0,0.0,0.0,0.0,0.0,0.0,0.0,0.0,0.0,0.0,0.0,0.0,0.0,0.0,0.0,0.0,0.0,0.0,0.0,0.0,0.0,0.0,0.0,0.0,0.0,0.0,0.0,0.0,0.0,0.0,0.0,0.0,0.0,0.0,0.0,0.0,0.0,0.0,0.0,0.0,0.0,0.0,0.0,1.472,1.6712,1.8208,1.9275,2.0165,2.0194,1.9297,1.7993,1.62,0.0,0.0,0.0,0.0,0.0,0.0,0.0,0.0,0.0,0.0,0.0,0.0,0.0,0.0,0.0,0.0,0.0,0.0,0.0,0.0,0.0,0.0,0.0,0.0,0.0,0.0,0.0,0.0,0.0,0.0,0.0,0.0,0.0,0.0,0.0,0.0,0.0,0.0,0.0,0.0,1.314,1.3133,1.4461,0.0,0.0,0.0,0.0,0.0,0.0,1.1287,1.0347,0.0,0.0,0.0,0.0,0.0,0.0,0.0,0.0,0.0,0.0,0.0,0.0,0.0,0.0,0.0,0.0,0.0,0.0,0.0,0.0,0.0,0.0,0.0,0.0,0.0,0.0,0.0,0.0,0.0,0.0,0.0,0.0,0.0,0.0,0.0,0.0,0.0,0.0,0.0,0.0,0.0,0.0,0.0,0.0,0.0,0.0,0.0,0.0,0.0,0.0,0.0,0.0,0.0,0.0,0.0,1.3658,1.6816,1.8512,1.8718,1.964,1.9802,1.8976,1.7097,1.526,0.0,0.0,0.0,0.0,0.0,0.0,0.0,0.0,0.0,0.0,0.0,0.0,0.0,0.0,0.0,0.0,0.0,0.0,0.0,0.0,0.0,0.0,0.0,0.0,0.0,0.0,0.0,0.0,0.0,0.0,0.0,0.0,0.0,0.0,0.0,0.0,0.0,0.0,0.0,0.0,0.0,1.4091,1.5634,1.3952,0.0,0.0,0.0,0.0,1.222,1.1398,0.0,0.0,0.0,0.0,0.0,0.0,0.0,0.0,0.0,0.0,0.0,0.0,0.0,0.0,0.0,0.0,0.0,0.0,0.0,0.0,0.0,0.0,0.0,0.0,0.0,0.0,0.0,0.0,0.0,0.0,0.0,0.0,0.0,0.0,0.0,0.0,0.0,0.0,0.0,0.0,0.0,0.0,0.0,0.0,0.0,0.0,0.0,0.0,0.0,0.0,0.0,0.0,0.0,0.0,0.0,0.0,1.2297,1.5322,1.6846,1.6614,1.7999,1.8493,1.7887,1.5355,1.38,0.0,0.0,0.0,0.0,0.0,0.0,0.0,0.0,0.0,0.0,0.0,0.0,0.0,0.0,0.0,0.0,0.0,0.0,0.0,0.0,0.0,0.0,0.0,0.0,0.0,0.0,0.0,0.0,0.0,0.0,0.0,0.0,0.0,0.0,0.0,0.0,0.0,0.0,0.0,0.0,0.0,1.5759,1.6118,1.4903,1.3886,0.0,0.0,1.464,1.4958,1.389,0.0,0.0,0.0,0.0,0.0,0.0,0.0,0.0,0.0,0.0,0.0,0.0,0.0,0.0,0.0,0.0,0.0,0.0,0.0,0.0,0.0,0.0,0.0,0.0,0.0,0.0,0.0,0.0,0.0,0.0,0.0,0.0,0.0,0.0,0.0,0.0,0.0,0.0,0.0,0.0,0.0,0.0,0.0,0.0,0.0,0.0,0.0,0.0,0.0,0.0,0.0,0.0,0.0,0.0,0.0,1.0879,1.2388,1.5033,1.6363,1.6241,1.7132,1.7342,1.685,1.4296,1.2723,0.0,0.0,0.0,0.0,0.0,0.0,0.0,0.0,0.0,0.0,0.0,0.0,0.0,0.0,0.0,0.0,0.0,0.0,0.0,0.0,0.0,0.0,0.0,0.0,0.0,0.0,0.0,0.0,0.0,0.0,0.0,0.0,0.0,0.0,0.0,0.0,0.0,0.0,0.0,0.0,0.0,0.0,1.6716,1.5515,0.0,0.0,0.0,1.4459,1.3318,0.0,0.0,0.0,0.0,0.0,0.0,0.0,0.0,0.0,0.0,0.0,0.0,0.0,0.0,0.0,0.0,0.0,0.0,0.0,0.0,0.0,0.0,0.0,0.0,0.0,0.0,0.0,0.0,0.0,0.0,0.0,0.0,0.0,0.0,0.0,0.0,0.0,0.0,0.0,0.0,0.0,0.0,0.0,0.0,0.0,0.0,0.0,0.0,0.0,0.0,0.0,0.0,0.0,0.0,0.0,0.0,0.0,1.2255,1.4849,1.601,1.5599,1.6076,1.6199,1.5785,1.3429,0.0,0.0,0.0,0.0,0.0,0.0,0.0,0.0,0.0,0.0,0.0,0.0,0.0,0.0,0.0,0.0,0.0,0.0,0.0,0.0,0.0,0.0,0.0,0.0,0.0,0.0,0.0,0.7169,0.0,0.0,0.0,0.0,0.0,0.0,0.0,0.0,0.0,0.0,0.0,0.0,0.0,0.0,1.6272,1.6542,1.5849,1.539,0.0,0.0,1.4242,1.2779,1.321,1.2897,0.0,0.0,0.0,0.0,0.0,0.0,0.0,0.0,0.0,0.0,0.0,0.0,0.0,0.0,0.0,0.0,0.0,0.0,0.0,0.0,0.0,0.0,0.0,0.0,0.0,0.0,0.0,0.0,0.0,0.0,0.0,0.0,0.0,0.0,0.0,0.0,0.0,0.0,0.0,0.0,0.0,0.0,0.0,0.0,0.0,0.0,0.0,0.0,0.0,0.0,0.0,0.0,0.0,0.0,1.0725,1.1295,1.4492,1.5397,1.3865,1.4518,1.4848,1.4663,1.2614,1.1439,0.0,0.0,0.0,0.0,0.0,0.0,0.0,0.0,0.0,0.0,0.0,0.0,0.0,0.0,0.0,0.0,0.0,0.0,0.0,0.0,0.0,0.0,0.0,0.0,0.0,0.0,0.0,0.0,0.0,0.0,0.0,0.0,0.0,0.0,0.0,0.0,0.0,0.0,0.0,0.0,0.0,1.7003,1.4963,1.5781,1.6504,0.0,1.5398,1.4912,1.551,1.451,1.3233,1.1935,0.0,0.0,0.0,0.0,0.0,0.0,0.0,0.0,0.0,0.0,0.0,0.0,0.0,0.0,0.0,0.0,0.0,0.0,0.0,0.0,0.0,0.0,0.0,0.0,0.0,0.0,0.0,0.0,0.0,0.0,0.0,0.0,0.0,0.0,0.0,0.0,0.0,0.0,0.0,0.0,0.0,0.0,0.0,0.0,0.0,0.0,0.0,0.0,0.0,0.0,0.0,0.0,0.0,1.0069,1.1447,1.3384,1.4076,1.3621,1.3878,1.3966,1.3745,1.2976,1.1889,0.0,0.0,0.0,0.0,0.0,0.0,0.0,0.0,0.0,0.0,0.0,0.0,0.0,0.0,0.0,0.0,0.0,0.0,0.0,0.0,0.0,0.0,0.0,0.0,0.0,0.0,0.0,0.0,1.0392,1.07,1.0598,0.0,0.0,0.0,0.0,0.0,0.0,0.0,0.0,0.0,0.0,1.5648,1.5281,1.5975,0.0,0.0,1.6569,1.6449,1.5671,1.5264,1.4189,1.17,1.145,0.0,0.0,0.0,0.0,0.0,0.0,0.0,0.0,0.0,0.0,0.0,0.0,0.0,0.0,0.0,0.0,0.0,0.0,0.0,0.0,0.0,0.0,0.0,0.0,0.0,0.0,0.0,0.0,0.0,0.0,0.0,0.0,0.0,0.0,0.0,0.0,0.0,0.0,0.0,0.0,0.0,0.0,0.0,0.0,0.0,0.0,0.0,0.0,0.0,0.0,0.0,0.0,0.9861,1.1847,1.2731,1.3394,1.372,1.3646,1.346,1.3206,1.317,1.2375,0.0,0.0,0.0,0.0,0.0,0.0,0.0,0.0,0.0,0.0,0.0,0.0,0.0,0.0,0.0,0.0,0.0,0.0,0.0,0.0,0.0,0.0,0.0,0.0,0.0,0.0,0.0,0.0,1.1137,1.1317,1.0943,0.0,0.0,0.0,0.0,0.0,0.0,0.0,0.0,0.0,0.0,1.5083,1.5222,1.5913,1.6315,1.607,1.6315,1.607,1.4822,1.4718,1.3993,1.1707,0.0,0.0,0.0,0.0,0.0,0.0,0.0,0.0,0.0,0.0,0.0,0.0,0.0,0.0,0.0,0.0,0.0,0.0,0.0,0.0,0.0,0.0,0.0,0.0,0.0,0.0,0.0,0.9027,0.0,0.0,0.8184,0.0,0.0,0.0,0.0,0.0,0.0,0.0,0.0,0.0,0.0,0.0,0.0,0.0,0.0,0.0,0.0,0.0,0.0,0.0,0.0,0.0,0.0,1.0322,1.2174,1.2849,1.3494,1.4041,1.3753,1.3473,1.3227,1.2976,1.2735,1.252,0.0,0.0,0.0,0.0,0.0,0.0,0.0,0.0,0.0,0.0,0.0,0.0,0.0,0.0,0.0,0.0,0.0,0.0,0.0,0.0,0.0,0.0,0.0,0.0,0.0,0.0,0.876,0.9858,1.0715,0.0,0.0,0.0,0.0,0.0,0.0,0.0,0.0,0.0,1.2477,1.4586,1.5713,1.4362,1.5428,1.6105,1.5382,1.4122,1.3214,1.3281,1.2735,1.2302,0.0,0.0,0.0,0.0,0.0,0.0,0.0,0.0,0.0,0.0,0.0,0.0,0.0,0.0,0.0,0.0,0.0,0.0,0.0,0.0,0.0,0.0,0.0,0.0,0.0,0.0,0.0,1.17,1.0859,0.0,0.0,0.0,0.0,0.0,0.0,0.0,0.0,0.0,0.0,0.0,1.5008,1.4972,0.0,0.0,0.0,0.0,0.0,0.0,0.0,0.0,0.0,0.0,0.0,0.0,1.0926,1.2529,1.318,1.3687,1.4075,1.3988,1.3801,1.3467,1.3817,1.3858,1.3554,0.0,0.0,0.0,0.0,0.0,0.0,0.0,0.0,0.0,0.0,0.0,0.0,0.0,0.0,0.0,0.0,0.0,0.0,0.0,0.0,0.0,0.0,0.0,0.0,0.0,1.0303,0.0,0.0,0.0,0.0,0.0,0.0,0.0,0.0,0.0,0.0,0.0,1.3974,1.3522,1.3646,1.3843,1.4024,1.4616,1.5441,0.0,0.0,0.0,0.0,0.0,0.0,0.0,0.0,0.0,0.0,0.0,0.0,0.0,0.0,1.2599,1.0518,1.0444,1.113,1.2465,0.0,0.0,0.0,0.0,0.0,0.0,0.0,0.0,0.0,0.0,0.0,0.0,0.0,0.0,1.382,1.3062,1.275,0.0,0.0,0.0,0.0,0.0,0.0,0.0,0.0,1.5938,1.6818,1.7262,1.7244,1.7031,1.6738,1.6297,1.4556,0.0,0.0,0.0,0.0,0.0,0.0,0.0,0.0,1.1446,1.2425,1.322,1.3746,1.4068,1.4088,1.3941,1.3647,1.4479,1.4752,1.4348,1.3759,1.2979,0.0,0.0,0.0,0.0,0.0,0.0,0.0,0.0,0.0,0.0,0.0,0.0,0.0,0.0,0.0,0.0,0.0,0.0,0.0,0.0,0.0,0.0,0.0,1.0513,0.0,0.0,0.0,0.0,0.0,0.0,0.0,0.0,0.0,1.3177,1.3635,1.3897,1.4124,1.3881,1.3857,1.4295,0.0,0.0,0.0,0.0,0.0,0.0,0.0,1.3003,1.2535,1.3056,1.3429,1.3163,1.3479,1.3741,1.393,0.0,0.0,1.1864,1.1741,1.2302,1.3653,1.4253,1.4553,1.4444,1.4547,1.4261,0.0,0.0,0.0,0.0,1.4331,0.0,0.0,0.0,1.6477,1.596,0.0,1.5403,0.0,0.0,0.0,0.0,1.3407,1.5069,0.0,0.0,1.9475,2.0411,1.9275,1.9199,1.9246,1.9226,1.8708,1.7314,1.5077,1.2921,0.0,0.0,0.0,0.0,0.0,0.0,1.1783,1.1956,1.3067,1.3773,1.4088,1.4095,1.3948,1.3641,1.4874,1.5349,1.5021,1.5661,1.5469,1.4138,1.2132,0.0,0.0,0.0,0.0,0.0,0.0,0.0,0.0,0.0,0.0,0.0,0.0,0.0,0.0,0.0,0.0,0.0,0.0,0.0,0.0,0.9829,0.0,0.0,0.0,0.0,0.0,0.0,0.0,0.0,0.0,0.0,1.1962,1.271,1.3535,1.4089,0.0,0.0,0.0,0.0,1.5298,1.3221,1.2502,1.2054,1.1423,1.2322,1.3225,1.3585,0.0,0.0,1.6325,1.4631,1.3525,1.3841,1.4158,1.4469,1.5373,1.45,1.4065,1.4875,1.4744,1.4423,1.4372,1.4129,1.3616,1.8106,0.0,0.0,0.0,0.0,1.8041,1.8797,1.9737,1.9419,1.8387,1.6934,1.7412,0.0,0.0,0.0,0.0,0.0,0.0,1.51,1.6402,1.7299,1.7989,1.8501,1.8509,1.8501,1.8484,1.8083,1.7542,1.6834,1.5226,1.3108,1.0619,0.0,0.0,0.0,0.0,1.2793,1.3495,1.4008,1.4309,1.4396,1.4195,1.3941,1.3606,1.4649,1.4981,1.4482,1.5928,1.605,1.4607,1.4,0.0,0.0,0.0,0.0,0.0,0.0,0.0,0.0,0.0,0.0,0.0,0.0,0.0,0.0,0.0,0.0,0.0,0.0,0.0,1.1045,1.0807,1.0524,0.0,0.0,0.0,0.0,0.0,0.0,0.0,0.0,0.0,1.304,1.333,1.3601,0.0,0.0,1.3206,1.3588,1.3734,1.4064,1.4846,1.398,0.0,1.4605,1.3722,1.3044,1.356,1.4852,1.5838,1.5927,1.5788,1.5725,1.5844,1.592,1.6075,1.6241,1.5459,1.5084,1.5846,1.6016,1.5963,1.5914,1.5796,1.5385,2.0376,1.9331,1.9494,1.9656,1.9785,1.9725,2.0159,2.0922,2.0273,1.9197,1.7908,1.8692,1.7188,1.4052,1.4415,0.0,0.0,0.0,1.6158,1.7645,1.7825,1.8332,1.9023,1.9093,1.9011,1.8872,1.8616,1.8153,1.7396,1.6319,1.4383,1.166,0.0,0.0,1.1866,1.2944,1.363,1.3966,1.4448,1.4696,1.4689,1.4409,1.4175,1.3995,1.4677,1.4912,1.4572,1.5884,1.6287,1.5635,1.5155,1.4174,0.0,0.0,0.0,0.0,0.0,0.0,0.0,0.0,0.0,0.0,0.0,0.8746,0.7403,0.0,0.0,0.0,0.9891,1.0401,1.09,1.0957,0.0,0.0,0.0,0.0,0.0,0.0,0.0,1.2971,1.3334,1.3587,1.3935,1.4102,1.4421,1.4948,1.4543,1.4262,1.4386,0.0,1.4943,1.5468,1.4774,1.4532,1.5597,1.4787,1.4168,1.4756,1.5424,1.5945,1.6146,1.648,1.6693,1.6707,1.6707,1.6707,1.6707,1.6119,1.5832,1.6504,1.6636,1.6608,1.6487,1.6558,1.639,2.1702,2.1553,2.1108,2.1038,2.111,2.0298,2.0351,2.096,1.9795,1.8913,1.8467,1.936,1.8603,1.6599,1.5734,0.0,1.72,1.7529,1.83,1.947,1.9886,2.0095,2.0087,2.0079,1.9966,1.9635,1.9651,1.88,1.7175,1.6587,1.5468,1.3821,1.4126,1.3966,1.3344,1.4162,1.43,1.3728,1.4516,1.4981,1.5001,1.4703,1.4543,1.4516,1.4968,1.5109,1.498,1.5638,1.6242,1.6658,1.5767,1.51,1.4723,0.0,0.0,0.0,0.0,0.0,0.0,0.0,0.0,0.0,0.0,0.0,0.0,0.0,0.0,0.0,1.0755,0.0,1.0465,1.0826,0.0,0.0,0.0,1.2134,1.3587,1.3278,1.3415,1.4569,0.0,0.0,1.4663,1.4917,1.567,1.7135,1.7419,1.7209,1.6374,1.6866,1.6967,1.5323,1.5129,1.5156,1.5327,1.5551,1.5939,1.6473,1.674,1.672,1.676,1.6787,1.6787,1.6807,1.678,1.6787,1.678,1.676,1.678,1.679,1.6744,1.6636,1.6431,1.6538,1.6619,2.2038,2.3946,2.3872,2.2819,2.1252,2.1134,2.1012,2.0863,2.0621,1.9749,1.8545,1.975,1.9399,1.7985,1.6855,1.6538,1.6849,1.6912,1.7114,1.7415,1.7541,1.7577,1.7577,1.7577,1.7541,1.7471,1.7471,1.7253,1.6814,1.6676,1.6164,1.5331,1.5367,1.46,1.2992,1.3539,1.4027,1.4266,1.4516,1.4736,1.4957,1.4897,1.475,1.4522,1.5376,1.516,1.3772,1.5289,1.564,1.4571,1.5635,1.5779,1.4748,1.2837,0.0,0.0,0.0,0.0,0.0,0.0,0.0,0.0,0.0,1.0184,0.7571,0.0,1.0081,0.0,1.0781,1.2161,1.3408,1.3058,0.0,0.0,1.3345,1.3427,1.3929,1.4292,1.4495,1.453,1.5308,1.5858,1.5852,1.6106,1.6605,1.7398,1.643,1.5562,1.538,1.586,1.6109,1.5745,1.5999,1.6286,1.6279,1.6393,1.6627,1.7038,1.7092,1.7121,1.7335,1.7375,1.7375,1.7375,1.7375,1.7375,1.7355,1.7375,1.7368,1.7341,1.7021,1.6687,1.662,1.6667,1.6693,2.0944,2.2409,2.2417,2.1651,2.0541,2.1546,2.1506,2.0659,2.0097,1.9338,1.8511,1.9074,1.8876,1.8094,1.7395,1.7094,1.7101,1.7101,1.7101,1.7094,1.7094,1.7094,1.7094,1.7094,1.7034,1.6907,1.6272,1.5846,1.5733,1.5727,1.5569,1.5224,1.5872,1.5518,1.4182,1.4195,1.4329,1.4516,1.4656,1.4923,1.5324,1.5142,1.4763,1.4335,1.4636,1.4146,1.269,1.3992,1.4366,1.3634,1.4908,1.5468,1.499,1.3126,1.1738,0.0,0.0,0.0,0.0,0.0,0.0,0.0,0.0,0.0,0.0,0.0,1.0516,0.9895,1.1582,1.3069,1.3895,1.391,1.403,1.4504,1.465,1.4575,1.4324,1.4697,1.4743,1.4039,1.4637,1.5021,1.4966,1.5204,1.5447,1.5636,1.4891,1.4777,1.593,1.642,1.6613,1.6627,1.6887,1.7101,1.7094,1.7094,1.7148,1.7353,1.7393,1.7454,1.7608,1.7589,1.7589,1.7589,1.7589,1.7589,1.7589,1.7589,1.7589,1.7542,1.7328,1.7074,1.6927,1.7007,1.7068,1.9475,1.9707,1.97,1.9707,1.9825,2.1744,2.1673,2.0245,1.9037,1.8497,1.8477,1.8217,1.7949,1.7702,1.7695,1.7695,1.7695,1.7695,1.7695,1.7702,1.749,1.7371,1.7364,1.7166,1.6911,1.6633,1.5401,1.4602,1.4344,1.4339,1.4304,1.4292,1.5519,1.5858,1.5248,1.4996,1.4731,1.4546,1.4908,1.5264,1.5752,1.517,1.4569,1.3988,1.3595,1.2885,1.1935,1.2515,1.2984,1.3108,1.3849,1.456,1.5051,1.305,1.1706,0.0,0.9684,0.0,0.0,0.0,0.0,0.0,0.0,0.0,0.0,1.1781,1.1616,1.1404,1.2666,1.3459,1.3321,1.3853,1.4327,1.4695,1.5113,1.5133,1.4475,1.4631,1.4437,1.3488,1.3467,1.3452,1.344,1.3578,1.3648,1.3621,1.3641,1.4375,1.6458,1.7015,1.716,1.7529,1.7589,1.7508,1.7528,1.7555,1.7555,1.7575,1.7562,1.7589,1.7582,1.7589,1.7589,1.7589,1.7589,1.7589,1.7589,1.7589,1.7589,1.7582,1.7555,1.7462,1.7333,1.7368,1.7488,2.0097,2.1137,2.1194,2.1202,2.1244,2.1621,2.0815,1.9149,1.8702,1.8497,1.849,1.843,1.8377,1.8323,1.8323,1.8317,1.8317,1.8323,1.8317,1.8255,1.689,1.6229,1.6103,1.4764,1.4051,1.4014,1.3741,1.3607,1.3517,1.3512,1.3272,1.2818,1.3069,1.2888,1.2403,0.0,0.0,0.0,1.517,1.5371,1.5444,1.4676,1.3968,1.3434,1.3906,0.0,1.1667,1.2497,1.2557,1.1575,1.2567,0.0,0.0,0.0,0.0,0.0,0.0,0.0,0.0,0.0,0.0,0.0,1.1631,1.1586,1.1674,1.2403,1.3052,1.346,1.3194,1.3229,1.385,1.3011,1.2623,1.3139,1.3312,1.3446,1.3627,1.3725,1.3723,1.3658,1.3605,1.362,1.3519,1.3702,1.3665,1.3453,1.3662,1.3841,1.4351,1.5241,1.6246,1.7312,1.7457,1.7595,1.7589,1.7595,1.7582,1.7589,1.7589,1.7582,1.7477,1.7529,1.7582,1.7477,1.7589,1.7529,1.7582,1.7589,1.7529,1.7589,1.7589,1.7615,1.7561,1.7542,1.7569,1.9815,2.0479,2.0537,2.0529,0.0,1.9696,1.8808,1.8007,1.8636,1.8429,1.7491,1.7547,1.701,1.6142,1.6142,1.6142,1.6142,1.6142,1.6142,1.6074,1.5211,1.4816,1.4816,1.3916,1.3477,1.3477,1.2756,1.2377,1.2335,1.233,1.2122,1.1774,1.2461,1.2715,1.2402,1.3166,1.4225,1.5618,1.5611,1.5685,1.5798,1.5251,1.4596,1.3881,1.3928,0.0,0.0,0.0,0.0,0.0,0.0,0.0,0.0,0.0,0.0,1.2881,1.1963,1.132,1.1227,1.1352,1.139,1.1295,1.1569,1.1787,1.1759,1.2925,1.3477,1.3049,1.2853,1.3027,1.3483,1.3017,1.2849,1.3207,1.3257,1.3081,1.2599,1.2528,1.223,1.1699,1.1624,1.1649,1.161,1.1712,1.172,1.1582,1.1624,1.1934,1.2623,1.3735,1.4911,1.5623,1.6283,1.6652,1.6747,1.7285,1.7259,1.6823,1.7147,1.6929,1.5689,1.6068,1.634,1.5695,1.547,1.563,1.6387,1.6493,1.6717,1.7417,1.7589,1.7589,1.7589,1.7589,1.7589,1.9424,1.9366,1.9127,1.9004,1.8887,1.7267,1.655,1.6668,1.7987,0.0,0.0,1.6183,1.5311,1.3871,1.3866,1.3866,1.3866,1.3866,1.3866,1.3861,1.3541,1.3407,1.3407,1.3089,1.296,1.2904,1.1708,1.1065,1.0976,1.0944,1.0858,1.0894,1.1932,1.262,1.2891,1.2891,1.3841,1.5663,1.5318,1.538,1.5856,1.5439,1.495,1.4462,1.3833,1.3193,1.2412,1.2725,1.2784,1.2595,1.3114,1.3493,1.3512,1.2991,1.2849,1.3119,1.2665,1.2115,1.1623,1.164,1.1462,1.0974,1.1533,1.1932,1.1965,1.3141,1.3346,1.2138,1.2372,1.2588,1.2659,1.2699,1.2833,1.2942,1.2956,1.2395,1.1356,1.1133,1.0748,0.9693,0.9693,0.9602,0.961,0.9786,0.9737,0.9596,0.9811,0.9961,1.1151,1.2708,1.382,1.403,1.4805,1.5325,1.5462,1.606,1.6476,1.5791,1.626,1.6035,1.4568,1.4461,1.4531,1.3853,1.3386,1.394,1.4851,1.5096,1.5498,1.6697,1.691,1.691,1.691,1.6863,1.6957,1.9366,1.9301,1.7923,1.7325,1.7214,1.5607,1.4955,1.496,1.5192,1.5123,1.485,1.485,1.4711,1.4444,1.4508,1.4508,1.4508,1.4449,1.4508,1.4375,1.2962,1.2238,1.2175,1.0701,1.0008,1.0012,0.978,0.9715,0.9676,0.9553,0.9476,0.95,0.9491,1.0186,1.1319,1.1433,1.2144,1.3651,1.2888,1.3083,1.4353,1.3419,1.3285,1.4106,1.3607,1.31,1.2744,1.281,1.2794,1.2791,1.3081,1.334,1.3546,1.3473,1.3696,1.4179,1.3175,1.2718,1.2997,1.224,1.1846,1.2128,1.2478,1.255,1.2375,1.274,1.2892,1.2646,1.1941,1.1522,1.1454,1.0668,1.0159,1.0131,1.0069,0.9949,0.9967,0.9926,0.9909,0.9784,0.9774,0.9781,0.9747,0.9788,0.9805,0.9764,0.9747,0.9832,1.0415,1.2136,1.3544,1.369,1.384,1.3984,1.4035,1.4133,1.4677,1.5568,1.4762,1.4494,1.4658,1.4158,1.3664,1.3561,1.327,1.3565,1.3908,1.3933,1.4122,1.4503,1.4609,1.4513,1.4553,1.4508,1.5077,1.6803,1.6685,1.602,1.5725,1.5483,1.3072,1.1515,1.0616,0.9704,1.0914,1.3228,1.3287,1.2813,1.2037,1.1976,1.1976,1.1976,1.1976,1.1976,1.1908,1.1172,1.0782,1.0718,1.0003,0.9618,0.9618,0.9618,0.9581,0.9503,0.9432,0.9415,0.9273,0.913,0.9346,0.9868,0.9915,1.0241,1.0937,1.2071,1.291,1.3397,1.3682,1.3962,1.4319,1.4475,1.4563,1.4422,1.4115,1.399,1.399,1.3385,1.3163,1.3238,1.2624,1.2454,1.2934,1.2417,1.2004,1.1766,1.0641,1.01,1.0367,1.0514,1.0176,0.9396,1.0946,1.166,1.0916,1.0486,1.0272,1.0358,0.9868,0.9537,0.9612,0.9622,0.9649,0.9707,0.9724,0.9751,0.9812,0.9819,0.9819,0.9819,0.9819,0.9819,0.9819,0.9819,0.9819,0.9819,1.0774,1.1598,1.1656,1.2162,1.2619,1.2721,1.3308,1.3603,1.3561,1.3551,1.3157,1.2768,1.2094,1.2134,1.1523,1.1376,1.1708,1.2285,1.25,1.2785,1.3633,1.369,1.369,1.369,1.369,1.4137,1.4675,1.467,1.4207,1.3636,1.2726,0.9939,0.795,0.675,0.5466,0.7045,1.0265,1.0571,0.9852,0.8775,0.9083,0.9268,0.9265,0.9268,0.9451,0.9758,0.939,0.9451,0.9758,0.9819,0.9819,0.9819,0.9819,0.9764,0.9666,0.9625,0.953,0.9384,0.932,0.9204,0.8983,0.8983,0.9022,0.9099,1.1224,1.237,1.2438,1.3488,1.4054,1.4157,1.469,1.5042,1.5017,1.4634,1.4415,1.4362,1.3415,1.2843,1.2843,1.1947,1.1532,1.1801,1.154,1.1006,1.0052,0.9106,0.8438,0.8256,0.824,0.7677,0.6603,0.8379,0.9369,0.8352,0.8165,0.8466,0.8916,0.9032,0.9276,0.9684,0.9819,0.9808,0.9819,0.9819,0.9819,0.9819,0.9819,0.9819,0.9819,0.9819,0.9819,0.9819,0.9819,0.9819,0.9819,0.9819,0.9819,0.9977,1.0729,1.1308,1.141,1.2063,1.2361,1.1562,1.2117,1.1891,1.0751,1.0863,1.0717,0.9948,0.9673,1.0083,1.0926,1.1101,1.1512,1.2334,1.2512,1.2659,1.2614,1.2614,1.3069,1.4705,1.4494,1.3004,1.0691,0.8083,0.6195,0.528,0.51,0.4916,0.5039,0.5645,0.5586,0.5588,0.559,0.6994,0.7604,0.7606,0.7606,0.8343,0.939,0.8282,0.8404,0.9636,0.9758,0.9819,0.9819,0.9819,0.9812,0.9781,0.9673,0.9534,0.9398,0.9367,0.9351,0.9334,0.933,0.9326,0.9137,0.9412,1.011,1.1189,1.113,1.1716,1.2895,1.2823,1.2695,1.2888,1.2654,1.2628,1.2638,1.2506,1.242,1.2415,1.2318,1.2237,1.2225,1.1158,1.002,0.8983,0.8743,0.8097,0.7064,0.6881,0.6261,0.4872,0.511,0.528,0.5006,0.5106,0.5994,0.7145,0.7464,0.8074,0.9198,0.9451,0.9819,0.9576,0.9819,0.9819,0.9819,0.939,0.9758,0.939,0.9511,0.9697,0.9819,0.9819,0.9819,0.9819,0.9819,0.9697,0.9697,0.9916,0.997,1.008,1.003,1.0759,1.1358,1.0753,1.0517,1.0749,1.0351,0.9737,0.9852,0.9744,0.9851,0.9925,0.9956,1.0052,1.0542,1.0613,1.0293,1.019,1.0406,1.1173,1.1526,1.0486,0.9756,0.8091,0.5837,0.418,0.3505,0.3445,0.2401,0.2032,0.2032,0.1971,0.3076,0.4916,0.5651,0.5894,0.5894,0.5894,0.6263,0.6813,0.6202,0.6813,0.8279,0.8404,0.8836,0.9758,0.9819,0.9819,0.9812,0.9761,0.9659,0.953,0.9513,0.9473,0.9388,0.9381,0.9351,0.9293,0.9289,0.9553,1.0006,1.0601,1.1207,1.1774,1.2336,1.2643,1.2628,1.2471,1.2397,1.235,1.1676,1.1212,1.1216,1.0495,1.0132,1.0184,0.9816,0.893,0.7621,0.7515,0.6898,0.5485,0.5411,0.4782,0.3293,0.3222,0.2886,0.2237,0.3642,0.5113,0.5661,0.5874,0.62,0.6815,0.6877,0.6938,0.6874,0.6938,0.6877,0.6874,0.6877,0.6935,0.706,0.7792,0.8711,0.9511,0.9758,0.9697,0.9758,0.9819,0.939,0.865,0.8404,0.8836,0.9451,0.9819,1.0023,1.0282,1.0148,1.0148,1.0197,1.0268,0.9761,0.9815,0.9819,0.9819,0.9805,0.9819,0.9819,0.9819,0.9819,0.9819,0.9819,0.9819,1.0403,0.8151,0.6923,0.6428,0.5432,0.4146,0.2529,0.1787,0.1663,0.0494,0.0,0.0,0.0,0.1295,0.3383,0.3996,0.4243,0.4242,0.4242,0.4487,0.4795,0.4488,0.5098,0.6628,0.6686,0.7301,0.8285,0.8346,0.841,0.8529,0.9019,0.9093,0.9074,0.9427,0.9615,0.9513,0.95,0.9479,0.9445,0.9445,0.9367,0.9386,1.0122,1.0559,1.0558,1.1298,1.175,1.1696,1.156,1.1435,1.1435,1.0489,0.9806,0.9376,0.8485,0.7895,0.7554,0.7654,0.7218,0.6179,0.6128,0.5433,0.4082,0.3872,0.3222,0.1975,0.1571,0.1157,0.0431,0.2155,0.3566,0.4242,0.4242,0.4426,0.4795,0.4918,0.4918,0.4979,0.4918,0.504,0.4918,0.5224,0.4918,0.5163,0.6444,0.7911,0.8836,0.9079,0.9143,0.9019,0.865,0.7917,0.6933,0.6689,0.7179,0.8224,0.8224,0.8471,0.8653,0.8462,0.9009,0.9268,0.939,0.9819,0.9819,0.9819,0.9819,0.9819,0.9819,0.9819,0.9819,0.9819,0.9819,0.9819,0.9819,0.9819,0.5307,0.4954,0.3438,0.2771,0.2451,0.0869,0.0,0.0,0.0,0.0,0.0,0.0,0.0,0.0494,0.1971,0.2585,0.2585,0.2585,0.3322,0.4366,0.3262,0.3445,0.4916,0.4976,0.51,0.5529,0.559,0.5468,0.5468,0.675,0.7479,0.7535,0.8815,0.9677,0.9654,0.9586,0.9667,0.9612,0.9598,0.9527,0.9374,0.9336,0.9258,0.9082,0.9092,0.9244,0.9133,0.9078,0.9071,0.9016,0.8893,0.8287,0.7064,0.6845,0.6183,0.5027,0.4808,0.4729,0.4619,0.4571,0.3915,0.2576,0.2315,0.1741,0.0,0.0,0.0,0.0,0.0,0.0,0.234,0.2586,0.3137,0.4366,0.4671,0.4673,0.4732,0.4366,0.4856,0.4673,0.4426,0.4427,0.4794,0.6381,0.6991,0.7421,0.7482,0.7482,0.7301,0.6261,0.5404,0.4976,0.4853,0.4977,0.5037,0.5896,0.5712,0.5896,0.6996,0.7484,0.8036,0.8526,0.9143,0.9636,0.9451,0.9451,0.9697,0.9819,0.9819,0.9819,0.9819,0.9819,0.9819,0.9819,0.9819,0.4632,0.3409,0.1612,0.0896,0.0831,0.0252,0.0,0.0,0.0,0.0,0.0,0.0,0.0,0.0062,0.0617,0.0925,0.0,0.0925,0.1233,0.1663,0.1171,0.1787,0.326,0.3383,0.3997,0.4795,0.4918,0.4918,0.4977,0.5527,0.5772,0.5833,0.6324,0.7118,0.8036,0.8282,0.8687,0.963,0.9744,0.9673,0.9419,0.9473,0.8904,0.7775,0.8469,0.8432,0.7485,0.7482,0.7093,0.6144,0.6086,0.5864,0.5367,0.53,0.5072,0.4603,0.4495,0.4103,0.3195,0.3024,0.2403,0.1013,0.078,0.0,0.0,0.0,0.0,0.0,0.0,0.0,0.0,0.0925,0.0,0.0,0.0,0.0,0.1787,0.1787,0.1787,0.1787,0.1787,0.2155,0.326,0.3935,0.4669,0.5588,0.5772,0.5772,0.571,0.5223,0.4055,0.2332,0.1718,0.0981,-0.1349,0.27,0.4918,0.5039,0.5529,0.5649,0.6016,0.6385,0.6877,0.7975,0.8221,0.8714,0.8897,0.9697,0.9697,0.9819,0.9819,0.9819,0.9819,0.9819,0.9819,0.2937,0.1719,0.0523,0.0,0.0,0.0,0.0,0.0,0.0,0.0,0.0,0.0,0.0,0.0,0.0,0.0,0.0,0.0,0.0,0.0,0.0,0.0617,0.1541,0.1664,0.2217,0.3137,0.3322,0.3322,0.3445,0.3873,0.4119,0.4119,0.461,0.5466,0.6444,0.6566,0.7182,0.8039,0.8224,0.8121,0.811,0.8065,0.7466,0.6481,0.7075,0.7011,0.6023,0.5965,0.5555,0.4644,0.4491,0.4291,0.3806,0.3269,0.3073,0.3046,0.3049,0.259,0.1716,0.1481,0.1074,0.0,0.0,0.0,0.0,0.0,0.0,0.0,0.0,0.0,0.0,0.0,0.0,0.0,0.0,0.0,0.0,0.0,0.0,0.0,0.0,0.0,0.1479,0.2156,0.3015,0.4057,0.412,0.4119,0.4119,0.301,0.1964,-0.0368,-0.1227,-0.227,-0.3438,-0.1042,0.0491,0.0674,0.2699,0.313,0.3747,0.4055,0.4916,0.6075,0.6994,0.7609,0.8346,0.9268,0.9636,0.9697,0.9819,0.9819,0.9819,0.9819,0.9819,0.0,0.0,0.0,0.0,0.0,0.0,0.0,0.0,0.0,0.0,0.0,0.0,0.0,0.0,0.0,0.0,0.0,0.0,0.0,0.0,0.0,0.0,0.0,0.0,0.0,0.0,0.0,0.0,0.0,0.1787,0.2462,0.277,0.3813,0.4426,0.4916,0.4916,0.4977,0.5286,0.5408,0.5221,0.4971,0.515,0.5052,0.4677,0.4668,0.4599,0.4359,0.4408,0.438,0.4222,0.4203,0.3689,0.2222,0.1117,0.0,0.0,0.0,0.0,0.0,0.0,0.0,0.0,0.0,0.0,0.0,0.0,0.0,0.0,0.0,0.0,0.0,0.0,0.0,0.0,0.0,0.0,0.0,0.0,0.0,0.0,0.0,0.0,0.0,0.1294,0.2217,0.2401,0.2463,0.2463,0.2215,0.0369,-0.1908,-0.2707,-0.3563,-0.4848,-0.4974,-0.4853,-0.4792,-0.436,-0.1656,0.0061,0.0982,0.1596,0.3196,0.4421,0.5527,0.6202,0.6935,0.7856,0.8714,0.8958,0.9265,0.9576,0.9819,0.9819,0.9819,0.0,0.0,0.0,0.0,0.0,0.0,0.0,0.0,0.0,0.0,0.0,0.0,0.0,0.0,0.0,0.0,0.0,0.0,0.0,0.0,0.0,0.0,0.0,0.0,0.0,0.0,0.0,0.0,0.0,0.0,0.0802,0.0925,0.0,0.2155,0.3199,0.326,0.369,0.4795,0.4918,0.4918,0.4916,0.4833,0.4334,0.3295,0.316,0.2649,0.1544,0.2345,0.2385,0.1563,0.1397,0.1176,0.0,0.0239,0.0,0.0,0.0,0.0,0.0,0.0,0.0,0.0,0.0,0.0,0.0,0.0,0.0,0.0,0.0,0.0,0.0,0.0,0.0,0.0,0.0,0.0,0.0,0.0,0.0,0.0,0.0,0.0,0.0,0.0,0.0,0.0,0.0,0.0,0.0,-0.0985,-0.2953,-0.3997,-0.5466,-0.6811,-0.7179,-0.7304,-0.7304,-0.6693,-0.4598,-0.2759,-0.184,-0.0369,0.1229,0.2767,0.3935,0.4855,0.5588,0.6383,0.7301,0.7914,0.8097,0.8711,0.9511,0.9758,0.9758,0.0,0.0,0.0,0.0,0.0,0.0,0.0,0.0,0.0,0.0,0.0,0.0,0.0,0.0,0.0,0.0,0.0,0.0,0.0,0.0,0.0,0.0,0.0,0.0,0.0,0.0,0.0,0.0,0.0,0.0,0.0,0.0,0.0,0.0,0.1479,0.1602,0.2155,0.2953,0.3016,0.3076,0.3076,0.3077,0.2586,0.1725,0.1602,0.1043,0.0122,0.0902,0.0952,0.0,0.0,0.0,0.0,0.0,0.0,0.0,0.0,0.0,0.0,0.0,0.0,0.0,0.0,0.0,0.0,0.0,0.0,0.0,0.0,0.0,0.0,0.0,0.0,0.0,0.0,0.0,0.0,0.0,0.0,0.0,0.0,0.0,0.0,0.0,0.0,0.0,0.0,0.0,0.0,0.0,-0.3016,-0.4671,-0.6137,-0.7606,-0.9265,-0.9576,-0.9636,-0.859,-0.7116,-0.5703,-0.46,-0.2642,-0.0799,0.1169,0.2585,0.3383,0.4119,0.4976,0.5772,0.6259,0.6808,0.7789,0.865,0.9572,0.9758,0.0,0.0,0.0,0.0,0.0,0.0,0.0,0.0,0.0,0.0,0.0,0.0,0.0,0.0,0.0,0.0,0.0,0.0,0.0,0.0,0.0,0.0,0.0,0.0,0.0,0.0,0.0,0.0,0.0,0.0,0.0,0.0,0.0,0.0,0.0,0.0,0.0,0.0,0.0,0.0,0.0,0.0,0.0,0.0,0.0,0.0,0.0,0.0,0.0,0.0,0.0,0.0,0.0,0.0,0.0,0.0,0.0,0.0,0.0,0.0,0.0,0.0,0.0,0.0,0.0,0.0,0.0,0.0,0.0,0.0,0.0,0.0,0.0,0.0,0.0,0.0,0.0,0.0,0.0,0.0,0.0,0.0,0.0,0.0,0.0,0.0,0.0,0.0,0.0,-0.1417,-0.3015,-0.4424,-0.5708,-0.675,-0.7917,-0.7978,-0.7978,-0.7609,-0.6935,-0.6628,-0.5831,-0.3995,-0.1971,-0.0062,0.0,0.0,0.0,0.0,0.0,0.4608,0.5525,0.675,0.7667,0.8404,0.9079,0.0,0.0,0.0,0.0,0.0,0.0,0.0,0.0,0.0,0.0,0.0,0.0,0.0,0.0,0.0,0.0,0.0,0.0,0.0,0.0,0.0,0.0,0.0,0.0,0.0,0.0,0.0,0.0,0.0,0.0,0.0,0.0,0.0,0.0,0.0,0.0,0.0,0.0,0.0,0.0,0.0,0.0,0.0,0.0,0.0,0.0,0.0,0.0,0.0,0.0,0.0,0.0,0.0,0.0,0.0,0.0,0.0,0.0,0.0,0.0,0.0,0.0,0.0,0.0,0.0,0.0,0.0,0.0,0.0,0.0,0.0,0.0,0.0,0.0,0.0,0.0,0.0,0.0,0.0,0.0,0.0,0.0,0.0,0.0,0.0,0.0,0.0,0.0,0.0,-0.111,-0.2585,-0.3199,-0.4242,-0.5223,-0.5896,-0.5957,-0.5955,-0.5833,-0.5772,-0.6139,-0.5341,-0.424,-0.2216,-0.0247,0.0,0.0,0.0,0.0,0.0,0.0,0.3689,0.4668,0.577,0.6628,0.7484,0.0,0.0,0.0,0.0,0.0,0.0,0.0,0.0,0.0,0.0,0.0,0.0,0.0,0.0,0.0,0.0,0.0,0.0,0.0,0.0,0.0,0.0,0.0,0.0,0.0,0.0,0.0,0.0,0.0,0.0,0.0,0.0,-0.074,-0.1048,0.0,-0.1786,-0.2032,0.0,-0.2032,-0.2032,-0.2094,-0.2032,0.0,0.0,-0.2033,-0.1848,0.0,0.0,0.0,0.0,0.0,0.0,0.0,0.0,0.0,0.0,0.0,0.0,0.0,0.0,0.0,0.0,0.0,0.0,0.0,0.0,0.0,0.0,0.0,0.0,0.0,0.0,0.0,0.0,0.0,0.0,0.0,0.0,0.0,0.0,0.0,0.0,0.0,0.0,0.0,0.0,0.0,0.0,0.0,0.0,-0.1848,-0.2463,-0.3016,-0.3875,-0.4732,-0.4976,-0.4792,-0.461,-0.4487,-0.4914,-0.4363,-0.3688,-0.2278,0.0,0.0,0.0,0.0,0.0,0.0,0.1479,0.1909,0.2708,0.3933,0.5159,0.6014,0.0,0.0,0.0,-0.0135,0.0,0.0,0.0,0.0,0.0,0.0,0.0,0.0,0.0,0.0,0.0,0.0,0.0,0.0,0.0,0.0,0.0,0.0,0.0,0.0,0.0,0.0,0.0,0.0,0.0,0.0,0.0,-0.0863,-0.1971,-0.2647,-0.2893,-0.3996,-0.4795,-0.455,-0.4366,-0.4304,-0.4304,-0.4304,-0.4243,-0.4243,-0.4304,-0.3568,-0.2401,-0.1417,0.0,0.0,-0.0123,0.0,0.0,0.0,0.0,0.0,0.0,0.0,0.0,0.0,0.0,0.0,0.0,0.0,0.0,0.0,0.0,0.0,0.0,0.0,0.0,0.0,0.0,0.0,0.0,0.0,0.0,0.0,0.0,0.0,0.0,0.0,0.0,0.0,0.0,0.0,0.0,0.0,0.0,0.0,0.0,-0.1726,-0.2217,-0.2648,-0.3383,-0.4057,-0.3813,-0.3629,-0.3322,-0.3322,-0.2769,-0.2155,-0.154,0.0,0.0,0.0,0.0,0.0,0.0,0.037,0.111,0.1663,0.2401,0.3689,0.4669,-0.0807,-0.2015,-0.0605,-0.0807,-0.174,0.0,0.0,0.0,0.0,0.0,0.0,0.0,0.0,0.0,0.0,0.0,0.0,0.0,0.0,0.0,0.0,0.0,0.0,0.0,0.0,0.0,0.0,0.0,0.0,-0.1417,-0.1971,-0.2217,-0.3506,-0.4366,-0.455,-0.4977,-0.4918,-0.4918,-0.504,-0.5224,-0.5223,-0.5223,-0.5223,-0.5163,-0.51,-0.4182,-0.3139,-0.3383,-0.3199,-0.2032,0.0,0.0,0.0,0.0,0.0,0.0,0.0,0.0,0.0,0.0,0.0,0.0,0.0,-0.0555,-0.191,-0.1971,-0.2585,-0.3445,-0.3812,-0.3016,-0.2156,-0.1971,-0.1479,0.0,0.0,0.0,0.0,0.0,0.0,0.0,0.0,0.0,0.0,0.0,0.0,0.0,0.0,0.0,0.0,0.0,0.0,0.0,0.0,0.0,0.0,0.0,0.0,0.0,0.0,0.0,0.0,-0.1356,-0.1048,0.0,0.0,0.0,0.0,0.0,0.0,0.0,0.0,0.0,0.0,0.0,0.3015,-0.0605,-0.1344,-0.0404,-0.0538,-0.1206,0.0,0.0,0.0,-0.0882,-0.1179,-0.1357,-0.191,-0.191,-0.1171,-0.111,0.0,0.0,0.0,0.0,0.0,0.0,0.0,-0.1172,-0.1171,-0.1171,-0.1171,0.0,-0.1479,-0.2401,-0.3076,-0.3629,-0.3752,-0.5282,-0.6016,-0.6322,-0.6752,-0.7304,-0.7307,-0.7182,-0.7182,-0.7179,-0.7182,-0.7179,-0.6938,-0.6505,-0.5588,-0.5098,-0.4732,-0.4426,-0.3629,-0.2831,-0.2278,-0.2278,-0.2278,-0.2278,-0.2278,-0.2278,-0.2278,0.0,-0.2278,0.0,-0.2217,-0.2278,-0.277,-0.3383,-0.3628,-0.3935,-0.4673,-0.4795,-0.4426,-0.3752,-0.3629,-0.3016,-0.2647,-0.2278,-0.1971,-0.1294,0.0,0.0,0.0,0.0,0.0,0.0,0.0,0.0,0.0,0.0,0.0,0.0,0.0,0.0,0.0,0.0,0.0,0.0,0.0,0.0,0.0,0.0,0.0,0.0,0.0,-0.0863,0.0,0.0,0.0,0.0,0.0,0.0,0.0,0.0,0.0,0.0,0.0,0.0,-0.0336,-0.074,-0.0269,-0.0269,-0.0738,-0.0596,0.0,0.0,-0.2284,-0.2935,-0.309,-0.4372,-0.3813,-0.3077,-0.2831,-0.1971,0.0,0.0,0.0,0.0,0.0,-0.191,-0.2647,-0.2831,-0.3137,-0.3137,-0.2953,-0.3566,-0.4364,-0.5161,-0.5282,-0.559,-0.6935,-0.767,-0.8097,-0.8958,-0.939,-0.9268,-0.9268,-0.9329,-0.939,-0.939,-0.939,-0.9143,-0.8407,-0.7484,-0.6933,-0.6385,-0.5712,-0.5345,-0.5529,-0.5651,-0.5529,-0.4977,-0.4918,-0.4795,-0.4488,-0.4366,-0.4304,-0.455,-0.4611,-0.4918,-0.4795,-0.4977,-0.5159,-0.5343,-0.5649,-0.5833,-0.608,-0.5896,-0.5345,-0.5284,-0.51,-0.4795,-0.4795,-0.4243,-0.3077,-0.1541,0.0,0.0,0.0,0.0,0.0,0.0,0.0,0.0,0.0,0.0,0.0,0.0,0.0,0.0,0.0,0.0,0.0,0.0,0.0,0.0,0.0,0.0,0.0,0.0,0.0,0.0,0.0,0.0,0.0,0.0,0.0,0.0,0.0,0.0,0.0,0.0,0.0,-0.1746,-0.4225,-0.1277,-0.168,-0.4016,-0.2909,-0.3019,-0.4366,-0.4518,-0.4643,-0.4749,-0.4883,-0.5044,-0.4548,-0.4487,-0.4242,-0.3751,-0.3506,-0.369,-0.369,-0.369,-0.4057,-0.4364,-0.4547,-0.5161,-0.5894,-0.5404,-0.4977,-0.5468,-0.62,-0.6933,-0.7299,-0.8465,-0.9204,-0.9265,-0.9697,-0.9819,-0.9819,-0.9819,-0.9819,-0.9819,-0.9819,-0.9819,-0.9758,-0.9268,-0.865,-0.8036,-0.8407,-0.8407,-0.7299,-0.8285,-0.8775,-0.8221,-0.6446,-0.5406,-0.5347,-0.5408,-0.5531,-0.5469,-0.5161,-0.4979,-0.4918,-0.5224,-0.5896,-0.6628,-0.7057,-0.7431,-0.8241,-0.8546,-0.8355,-0.7116,-0.7028,-0.6272,-0.5536,-0.5241,-0.5056,-0.4624,-0.4007,-0.2838,0.0,0.0,0.0,0.0,0.0,0.0,0.0,0.0,0.0,0.0,0.0,0.0,0.0,0.0,0.0,0.0,0.0,0.0,0.0,0.0,0.0,0.0,0.0,0.0,0.0,0.0,0.0,0.0,0.0,0.0,0.0,0.0,0.0,0.0,0.0,0.0,-0.2954,-0.5163,-0.3489,-0.3757,-0.509,-0.4529,-0.456,-0.5439,-0.614,-0.643,-0.6663,-0.71,-0.6986,-0.6396,-0.62,-0.5772,-0.5161,-0.4918,-0.4918,-0.4918,-0.4918,-0.5466,-0.6077,-0.62,-0.724,-0.8036,-0.7795,-0.7304,-0.7487,-0.8224,-0.8529,-0.8775,-0.9511,-0.9758,-0.9819,-0.9758,-0.9819,-0.9819,-0.9819,-0.9819,-0.9819,-0.9819,-0.9819,-0.9819,-0.9819,-0.9387,-0.9079,-0.9204,-0.9451,-0.8958,-0.9326,-0.9697,-0.9326,-0.8529,-0.7365,-0.7307,-0.7304,-0.7365,-0.7429,-0.7426,-0.7551,-0.7487,-0.7365,-0.7734,-0.8407,-0.8714,-0.8998,-0.9607,-0.9883,-0.9663,-0.8988,-0.8848,-0.8483,-0.7983,-0.7601,-0.7156,-0.6647,-0.6363,-0.4793,-0.2797,0.0,0.0,0.0,0.0,0.0,0.0,0.0,0.0,0.0,0.0,0.0,0.0,0.0,0.0,0.0,0.0,0.0,0.0,0.0,0.0,0.0,0.0,0.0,0.0,0.0,0.0,0.0,0.0,0.0,0.0,0.0,0.0,0.0,0.0,0.0,-0.4292,-0.5899,-0.5563,-0.5631,-0.5897,-0.5897,-0.6191,-0.6659,-0.781,-0.8282,-0.8374,-0.9281,-0.915,-0.8254,-0.7779,-0.7207,-0.59,-0.6018,-0.6143,-0.6204,-0.6265,-0.6813,-0.7545,-0.8036,-0.8529,-0.9265,-0.9451,-0.9819,-0.939,-0.9515,-0.9697,-0.9636,-0.9758,-0.9819,-0.9819,-0.9819,-0.9819,-0.9819,-0.9819,-0.9819,-0.9819,-0.9819,-0.9819,-0.9819,-0.9819,-0.9758,-0.9636,-0.9697,-0.9758,-0.9636,-0.9758,-0.9819,-0.9819,-0.9819,-0.9758,-0.9819,-0.9819,-0.9819,-0.9697,-0.9572,-0.9268,-0.9204,-0.9636,-0.9775,-0.9771,-0.9626,-0.9858,-1.0004,-1.0034,-1.0131,-1.0022,-1.0199,-1.0133,-1.0062,-0.9932,-0.9815,-0.8681,-0.8001,-0.726,-0.5653,-0.4361,0.0,0.0,0.0,0.0,0.0,0.0,0.0,0.0,0.0,0.0,0.0,0.0,0.0,0.0,0.0,0.0,0.0,0.0,0.0,0.0,0.0,0.0,0.0,0.0,0.0,0.0,0.0,0.0,0.0,0.0,0.0,0.0,0.0,0.0,-0.6097,-0.7564,-0.6097,-0.6297,-0.7564,-0.7698,-0.8632,-0.9871,-0.996,-1.0217,-0.9874,-1.0176,-1.0106,-0.9777,-0.961,-0.9384,-0.9114,-0.8775,-0.8653,-0.8532,-0.8714,-0.8839,-0.939,-0.9511,-0.9329,-0.9819,-0.9819,-0.9819,-0.9819,-0.9819,-0.9819,-0.9819,-0.9819,-0.9819,-0.9819,-0.9819,-0.9819,-0.9819,-0.9819,-0.9819,-0.9819,-0.9819,-0.9819,-0.9819,-0.9819,-0.9819,-0.9819,-0.9819,-0.9819,-0.9819,-0.9819,-0.9819,-0.9819,-0.9819,-0.9819,-0.9819,-0.9819,-0.9819,-0.9822,-0.9839,-0.9788,-0.9856,-0.9856,-0.99,-1.0002,-1.012,-1.0188,-1.0239,-1.0253,-1.0276,-1.0321,-1.0307,-1.0354,-1.0314,-1.0348,-1.0267,-0.9787,-0.934,-0.8649,-0.8174,-0.6722,-0.4883,0.0,0.0,0.0,0.0,0.0,0.0,0.0,0.0,0.0,0.0,0.0,0.0,0.0,0.0,0.0,0.0,0.0,0.0,0.0,0.0,0.0,0.0,0.0,0.0,0.0,0.0,0.0,0.0,0.0,0.0,0.0,0.0,0.0,-0.8839,-0.944,-0.8706,-0.8839,-0.951,-0.9507,-0.9978,-1.0571,-1.0649,-1.0571,-1.0497,-1.0432,-1.0314,-1.0181,-1.0007,-0.9903,-0.9849,-0.9822,-0.9819,-0.9819,-0.9819,-0.9819,-0.9758,-0.9758,-0.9819,-0.9819,-0.9819,-0.9819,-0.9819,-0.9819,-0.9819,-0.9819,-0.9819,-0.9819,-0.9819,-0.9819,-0.9819,-0.9819,-0.9819,-0.9819,-0.9819,-0.9819,-0.9819,-0.9819,-0.9819,-0.9819,-0.9819,-0.9819,-0.9819,-0.9819,-0.9819,-0.9819,-0.9819,-0.9829,-0.9849,-0.9889,-0.9889,-0.991,-0.9846,-0.9907,-0.9879,-0.992,-1.0022,-1.0124,-1.0188,-1.0246,-1.0334,-1.0395,-1.0399,-1.0432,-1.05,-1.0531,-1.0531,-1.0524,-1.0487,-1.0497,-1.0477,-1.0415,-0.9935,-0.9585,-0.9038,-0.7209,-0.5311,-0.3875,-0.3,0.0,0.0,0.0,0.0,0.0,0.0,0.0,0.0,0.0,0.0,0.0,0.0,0.0,0.0,0.0,0.0,0.0,0.0,0.0,0.0,0.0,0.0,0.0,0.0,0.0,0.0,0.0,0.0,0.0,0.0,-1.0721,-1.0721,-1.0721,-1.0721,-1.0721,-1.0721,-1.0717,-1.0717,-1.0714,-1.0653,-1.0575,-1.0541,-1.0402,-1.0195,-1.0131,-1.0042,-0.9883,-0.9839,-0.9822,-0.9819,-0.9819,-0.9819,-0.9819,-0.9819,-0.9819,-0.9822,-0.9819,-0.9819,-0.9819,-0.9819,-0.9819,-0.9819,-0.9819,-0.9819,-0.9819,-0.9819,-0.9819,-0.9819,-0.9819,-0.9819,-0.9819,-0.9819,-0.9819,-0.9819,-0.9819,-0.9819,-0.9819,-0.9819,-0.9819,-0.9819,-0.9819,-0.9819,-0.9822,-0.9876,-0.9872,-0.9963,-1.0,-1.007,-1.0029,-1.0053,-1.0093,-1.0151,-1.0232,-1.0317,-1.0334,-1.0358,-1.0419,-1.0544,-1.0548,-1.0612,-1.0683,-1.0704,-1.068,-1.0673,-1.0683,-1.0707,-1.0704,-1.0595,-1.0541,-1.0208,-0.9847,-0.9676,-0.7726,-0.5647,-0.4346,-0.3363,0.0,-0.0708,0.0,0.0,0.0,0.0,0.0,0.0,0.0,0.0,0.0,0.0,0.0,0.0,0.0,0.0,0.0,0.0,0.0,0.0,0.0,0.0,0.0,0.0,0.0,0.0,0.0,0.0,0.0,-1.0721,-1.0721,-1.0721,-1.0721,-1.0721,-1.0721,-1.0721,-1.0721,-1.0721,-1.0711,-1.0683,-1.0683,-1.0588,-1.0432,-1.027,-1.0151,-0.995,-0.9822,-0.9836,-0.9819,-0.9822,-0.9832,-0.9836,-0.9839,-0.9829,-0.9839,-0.9829,-0.9822,-0.9822,-0.9765,-0.9822,-0.9822,-0.9829,-0.9825,-0.9819,-0.9819,-0.9819,-0.9819,-0.9819,-0.9819,-0.9819,-0.9819,-0.9819,-0.9819,-0.9819,-0.9819,-0.9819,-0.9819,-0.9819,-0.9819,-0.9819,-0.9849,-0.9812,-0.9883,-0.996,-1.0065,-1.0215,-1.0243,-1.0263,-1.0243,-1.0259,-1.0307,-1.0385,-1.048,-1.0483,-1.0609,-1.068,-1.0673,-1.0656,-1.0677,-1.0711,-1.0721,-1.0721,-1.0721,-1.0721,-1.0721,-1.0721,-1.0711,-1.0666,-1.0694,-1.0528,-1.0198,-0.9986,-0.7845,-0.6247,-0.531,-0.3651,-0.2275,-0.0972,0.0,0.0,0.0,0.0,0.0,0.0,0.0,0.0,0.0,0.0,0.0,0.0,0.0,0.0,0.0,0.0,0.0,0.0,0.0,0.0,0.0,0.0,0.0,0.0,0.0,0.0,-1.0721,-1.0721,-1.0721,-1.0721,-1.0721,-1.0721,-1.0721,-1.0721,-1.0721,-1.0721,-1.0721,-1.0711,-1.0585,-1.0405,-1.0307,-1.0141,-0.993,-0.9859,-0.9836,-0.9822,-0.9822,-0.9876,-0.9897,-0.99,-0.9802,-0.9862,-0.9825,-0.9886,-0.9896,-0.9897,-0.9907,-0.991,-0.9876,-0.9829,-0.9819,-0.9819,-0.9819,-0.9819,-0.9819,-0.9819,-0.9819,-0.9819,-0.9819,-0.9819,-0.9819,-0.9819,-0.9819,-0.9819,-0.9819,-0.9825,-0.9829,-0.988,-0.9896,-0.9974,-1.0081,-1.0273,-1.0375,-1.0443,-1.0493,-1.047,-1.0449,-1.0548,-1.0602,-1.0626,-1.0612,-1.069,-1.0714,-1.0717,-1.0721,-1.0721,-1.0721,-1.0721,-1.0721,-1.0721,-1.0721,-1.0721,-1.0721,-1.0721,-1.0717,-1.0711,-1.0714,-1.0555,-1.0356,-1.0025,-0.8596,-0.7242,-0.548,-0.3808,-0.2489,-0.1567,-0.1369,-0.0846,0.0,0.0,0.0,0.0,0.0,0.0,0.0,0.0,0.0,0.0,0.0,0.0,0.0,0.0,0.0,0.0,0.0,0.0,0.0,0.0,0.0,0.0,0.0,-1.0721,-1.0721,-1.0721,-1.0721,-1.0721,-1.0721,-1.0721,-1.0721,-1.0721,-1.0721,-1.0721,-1.0711,-1.0616,-1.0443,-1.0351,-1.0266,-1.0097,-1.0015,-0.9978,-0.9978,-1.0002,-1.0025,-1.0049,-1.0053,-1.0042,-1.008,-1.0042,-1.0039,-1.011,-1.0005,-1.0039,-1.0053,-0.9968,-0.9897,-0.9819,-0.9819,-0.9819,-0.9819,-0.9819,-0.9819,-0.9819,-0.9819,-0.9819,-0.9819,-0.9819,-0.9819,-0.9819,-0.9825,-0.9859,-0.9883,-0.9917,-0.9978,-1.0011,-1.0118,-1.023,-1.0426,-1.0544,-1.0612,-1.0653,-1.0649,-1.0609,-1.067,-1.0694,-1.0707,-1.0721,-1.0721,-1.0721,-1.0721,-1.0721,-1.0721,-1.0721,-1.0721,-1.0721,-1.0721,-1.0721,-1.0721,-1.0721,-1.0721,-1.0721,-1.0717,-1.0721,-1.0721,-1.0651,-1.0382,-0.9365,-0.8143,-0.7055,-0.544,-0.4117,-0.3374,-0.3163,-0.2497,0.0,0.0,0.0,0.0,0.0,0.0,0.0,0.0,0.0,0.0,0.0,0.0,0.0,0.0,0.0,0.0,0.0,0.0,0.0,0.0,0.0,0.0,0.0,-1.0721,-1.0721,-1.0721,-1.0721,-1.0721,-1.0721,-1.0721,-1.0721,-1.0721,-1.0721,-1.0721,-1.0721,-1.0704,-1.0626,-1.0493,-1.0399,-1.0341,-1.0256,-1.0215,-1.0198,-1.0181,-1.0239,-1.0253,-1.0243,-1.0209,-1.0263,-1.0222,-1.0205,-1.0273,-1.0209,-1.0236,-1.0219,-1.012,-0.9968,-0.9839,-0.9819,-0.9819,-0.9819,-0.9819,-0.9819,-0.9819,-0.9819,-0.9819,-0.9819,-0.9819,-0.9819,-0.9866,-0.9866,-0.9924,-0.9963,-0.998,-1.0124,-1.0253,-1.0371,-1.0456,-1.051,-1.0636,-1.07,-1.0714,-1.0711,-1.0711,-1.0714,-1.0721,-1.0721,-1.0721,-1.0721,-1.0721,-1.0721,-1.0721,-1.0721,-1.0721,-1.0721,-1.0721,-1.0721,-1.0721,-1.0721,-1.0721,-1.0721,-1.0721,-1.0721,-1.0721,-1.0721,-1.0721,-1.0518,-0.9709,-0.89,-0.8233,-0.7096,-0.5758,-0.521,-0.4981,-0.3979,-0.3041,-0.2902,-0.2427,-0.1171,0.0,0.0,0.0,0.0,0.0,0.0,0.0,0.0,0.0,0.0,0.0,0.0,0.0,0.0,0.0,0.0,0.0,0.0,0.0,-1.0721,-1.0721,-1.0721,-1.0721,-1.0721,-1.0721,-1.0721,-1.0721,-1.0721,-1.0721,-1.0721,-1.0721,-1.0653,-1.0578,-1.0531,-1.046,-1.0365,-1.0331,-1.0343,-1.029,-1.0304,-1.0348,-1.0371,-1.0361,-1.0348,-1.0375,-1.0354,-1.0358,-1.0415,-1.0365,-1.0365,-1.0351,-1.0256,-1.0066,-0.989,-0.9819,-0.9819,-0.9819,-0.9819,-0.9819,-0.9822,-0.9825,-0.9822,-0.9825,-0.9832,-0.9876,-0.9903,-0.9975,-1.0053,-1.0178,-1.0202,-1.0273,-1.0388,-1.05,-1.0544,-1.0605,-1.0714,-1.0717,-1.0721,-1.0717,-1.0717,-1.0721,-1.0721,-1.0721,-1.0721,-1.0721,-1.0721,-1.0721,-1.0721,-1.0721,-1.0721,-1.0721,-1.0721,-1.0721,-1.0721,-1.0721,-1.0721,-1.0721,-1.0721,-1.0721,-1.0721,-1.0721,-1.0721,-1.0721,-1.0114,-0.9911,-0.944,-0.8634,-0.7429,-0.7029,-0.6672,-0.5545,-0.4671,-0.4598,-0.4116,-0.3029,-0.2684,0.0,0.0,0.0,0.0,-0.1153,0.0,0.0,0.0,0.0,0.0,0.0,0.0,0.0,0.0,0.0,0.0,0.0,0.0,-1.0721,-1.0721,-1.0721,-1.0721,-1.0721,-1.0721,-1.0721,-1.0721,-1.0721,-1.0721,-1.0721,-1.0717,-1.0673,-1.0599,-1.0561,-1.0541,-1.0436,-1.0436,-1.0436,-1.0432,-1.0436,-1.0504,-1.0517,-1.048,-1.0517,-1.0527,-1.05,-1.0493,-1.0565,-1.048,-1.046,-1.0453,-1.0399,-1.0232,-1.0066,-1.0005,-1.0005,-0.9998,-0.9981,-0.9917,-0.9897,-0.9815,-0.9856,-0.9832,-0.9866,-0.9971,-1.0083,-1.0151,-1.0195,-1.0304,-1.0371,-1.0422,-1.0517,-1.0582,-1.0622,-1.0694,-1.0721,-1.0721,-1.0721,-1.0721,-1.0721,-1.0721,-1.0721,-1.0721,-1.0721,-1.0721,-1.0721,-1.0721,-1.0721,-1.0721,-1.0721,-1.0721,-1.0721,-1.0721,-1.0721,-1.0721,-1.0721,-1.0721,-1.0721,-1.0721,-1.0721,-1.0721,-1.0721,-1.0721,-1.0518,-1.0585,-1.0585,-0.9775,-0.9039,-0.8704,-0.8368,-0.7434,-0.6498,-0.635,-0.5947,-0.514,-0.5046,-0.5358,-0.4613,-0.3676,-0.3523,-0.3175,-0.2393,0.0,0.0,0.0,0.0,0.0,0.0,0.0,0.0,0.0,0.0,0.0,0.0,-1.0784,-1.0787,-1.0721,-1.0721,-1.0721,-1.0721,-1.0717,-1.0711,-1.0717,-1.0714,-1.0704,-1.0707,-1.07,-1.0711,-1.0711,-1.069,-1.0673,-1.0673,-1.067,-1.0677,-1.0639,-1.0683,-1.0687,-1.0677,-1.0656,-1.0683,-1.0677,-1.0629,-1.0704,-1.0649,-1.0592,-1.0544,-1.0517,-1.0409,-1.0327,-1.029,-1.0259,-1.0185,-1.011,-1.0063,-1.0042,-0.9896,-0.9981,-1.0025,-1.007,-1.0141,-1.0232,-1.0293,-1.0371,-1.0449,-1.0504,-1.0588,-1.066,-1.0714,-1.0721,-1.0721,-1.0721,-1.0721,-1.0721,-1.0721,-1.0721,-1.0721,-1.0721,-1.0721,-1.0721,-1.0721,-1.0721,-1.0721,-1.0721,-1.0721,-1.0721,-1.0721,-1.0721,-1.0721,-1.0721,-1.0721,-1.0721,-1.0721,-1.0721,-1.0721,-1.0721,-1.0721,-1.0721,-1.0721,-1.0721,-1.0721,-1.0721,-1.0585,-0.9978,-1.0114,-0.9845,-0.9712,-0.8839,-0.8166,-0.7633,-0.7167,-0.7158,-0.7382,-0.6261,-0.5445,-0.5345,-0.5053,-0.4129,-0.346,-0.3043,0.0,0.0,0.0,0.0,0.0,0.0,0.0,0.0,0.0,0.0,-1.2541,-1.2413,-1.124,-1.0721,-1.0721,-1.0717,-1.066,-1.0578,-1.0663,-1.067,-1.0561,-1.0673,-1.0707,-1.0721,-1.0717,-1.0717,-1.0714,-1.0717,-1.0714,-1.0714,-1.0694,-1.0711,-1.0721,-1.0721,-1.0721,-1.0721,-1.0721,-1.0721,-1.0714,-1.0721,-1.0714,-1.0663,-1.0633,-1.0599,-1.0585,-1.0588,-1.0456,-1.0337,-1.0249,-1.0222,-1.0205,-1.0141,-1.0168,-1.0192,-1.0212,-1.0293,-1.0392,-1.0429,-1.051,-1.0616,-1.0646,-1.0694,-1.0704,-1.0721,-1.0721,-1.0721,-1.0721,-1.0721,-1.0721,-1.0721,-1.0721,-1.0721,-1.0721,-1.0721,-1.0721,-1.0721,-1.0721,-1.0721,-1.0721,-1.0721,-1.0721,-1.0721,-1.0721,-1.0721,-1.0721,-1.0721,-1.0721,-1.0721,-1.0721,-1.0721,-1.0721,-1.0721,-1.0721,-1.0721,-1.0721,-1.0721,-1.0721,-1.0721,-1.0721,-1.0721,-1.0717,-1.0585,-1.0316,-0.944,-0.9643,-0.9377,-0.9377,-0.9235,-0.81,-0.7227,-0.706,-0.6634,-0.5842,-0.5162,-0.4732,-0.3629,0.0,0.0,0.0,0.0,0.0,0.0,0.0,0.0,0.0,-1.4293,-1.4101,-1.2475,-1.134,-1.0702,-1.0629,-1.0544,-1.0453,-1.0565,-1.0568,-1.051,-1.0585,-1.0663,-1.0717,-1.0717,-1.0687,-1.0619,-1.0612,-1.0612,-1.0616,-1.0633,-1.0673,-1.069,-1.0714,-1.0721,-1.0721,-1.0721,-1.0721,-1.0721,-1.0721,-1.0714,-1.0711,-1.0721,-1.0721,-1.0704,-1.0677,-1.0619,-1.0497,-1.0409,-1.0375,-1.0351,-1.0324,-1.031,-1.0358,-1.0365,-1.0446,-1.0551,-1.0571,-1.0636,-1.0707,-1.0717,-1.0721,-1.0721,-1.0721,-1.0721,-1.0721,-1.0721,-1.0721,-1.0721,-1.0721,-1.0721,-1.0721,-1.0721,-1.0721,-1.0721,-1.0721,-1.0721,-1.0721,-1.0721,-1.0721,-1.0721,-1.0721,-1.0721,-1.0721,-1.0721,-1.0721,-1.0721,-1.0721,-1.0721,-1.0721,-1.0721,-1.0721,-1.0721,-1.0721,-1.0721,-1.0721,-1.0721,-1.0721,-1.0721,-1.0721,-1.0721,-1.0651,-1.0651,-1.0382,-1.0721,-1.0721,-1.0382,-1.0114,-0.9779,-0.9039,-0.8837,-0.856,-0.8138,-0.7208,-0.6279,-0.5088,-0.3951,-0.2348,0.0,-0.0874,0.0,0.0,0.0,0.0,0.0,-1.6113,-1.5973,-1.4214,-1.2621,-1.1077,-1.1059,-1.1027,-1.0658,-1.1087,-1.0725,-1.061,-1.051,-1.0612,-1.07,-1.0687,-1.0612,-1.0538,-1.05,-1.0477,-1.0477,-1.0477,-1.0538,-1.0643,-1.0697,-1.0683,-1.0704,-1.0721,-1.0721,-1.0721,-1.0721,-1.0721,-1.0721,-1.0721,-1.0721,-1.0721,-1.0721,-1.068,-1.0643,-1.0561,-1.051,-1.048,-1.0419,-1.0375,-1.0487,-1.0527,-1.0568,-1.067,-1.0714,-1.0721,-1.0721,-1.0721,-1.0721,-1.0721,-1.0721,-1.0721,-1.0721,-1.0721,-1.0721,-1.0721,-1.0721,-1.0721,-1.0721,-1.0721,-1.0721,-1.0721,-1.0721,-1.0721,-1.0721,-1.0721,-1.0721,-1.0721,-1.0721,-1.0721,-1.0721,-1.0721,-1.0721,-1.0721,-1.0721,-1.0721,-1.0721,-1.0721,-1.0721,-1.0721,-1.0721,-1.0721,-1.0721,-1.0721,-1.0721,-1.0721,-1.0721,-1.0721,-1.0721,-1.0721,-1.0721,-1.0721,-1.0721,-1.0721,-1.0585,-1.0452,-1.0382,-0.9845,-1.0114,-1.0585,-0.9241,-0.7767,-0.6898,-0.5761,-0.3823,-0.2283,-0.1881,0.0,0.0,0.0,0.0,0.0,-1.7859,-1.7708,-1.58,-1.4674,-1.4298,-1.4024,-1.3786,-1.3726,-1.3758,-1.2544,-1.0797,-1.0661,-1.0666,-1.0683,-1.0602,-1.0527,-1.0493,-1.0399,-1.0344,-1.0337,-1.0337,-1.0426,-1.0531,-1.0578,-1.0619,-1.069,-1.0721,-1.0721,-1.0721,-1.0721,-1.0721,-1.0721,-1.0721,-1.0721,-1.0721,-1.0721,-1.0717,-1.0714,-1.068,-1.0639,-1.0626,-1.0639,-1.0646,-1.066,-1.0666,-1.066,-1.0721,-1.0721,-1.0721,-1.0721,-1.0721,-1.0721,-1.0721,-1.0721,-1.0721,-1.0721,-1.0721,-1.0721,-1.0721,-1.0721,-1.0721,-1.0721,-1.0721,-1.0721,-1.0721,-1.0721,-1.0721,-1.0721,-1.0721,-1.0721,-1.0721,-1.0721,-1.0721,-1.0721,-1.0721,-1.0721,-1.0721,-1.0721,-1.0721,-1.0721,-1.0721,-1.0721,-1.0721,-1.0721,-1.0721,-1.0721,-1.0721,-1.0721,-1.0721,-1.0721,-1.0721,-1.0721,-1.0721,-1.0721,-1.0721,-1.0721,-1.0721,-1.0721,-1.0585,-1.0651,-1.0721,-1.0721,-1.0651,-1.0114,-0.9175,-0.8304,-0.6831,-0.4424,-0.3221,-0.2953,0.0,0.0,0.0,0.0,0.0,-1.9605,-1.9228,-1.7484,-1.6218,-1.5486,-1.5177,-1.5002,-1.4836,-1.484,-1.4026,-1.2508,-1.1822,-1.1196,-1.0723,-1.0527,-1.0487,-1.046,-1.0344,-1.0307,-1.028,-1.0229,-1.0334,-1.0405,-1.0487,-1.0602,-1.0683,-1.0711,-1.0721,-1.0721,-1.0721,-1.0721,-1.0721,-1.0721,-1.0721,-1.0721,-1.0721,-1.0721,-1.0717,-1.0721,-1.0721,-1.0721,-1.0721,-1.0721,-1.0721,-1.0721,-1.0721,-1.0721,-1.0721,-1.0721,-1.0721,-1.0721,-1.0721,-1.0721,-1.0721,-1.0721,-1.0721,-1.0721,-1.0721,-1.0721,-1.0721,-1.0721,-1.0721,-1.0721,-1.0721,-1.0721,-1.0721,-1.0721,-1.0721,-1.0721,-1.0721,-1.0721,-1.0721,-1.0721,-1.0721,-1.0721,-1.0721,-1.0721,-1.0721,-1.0721,-1.0721,-1.0721,-1.0721,-1.0721,-1.0721,-1.0721,-1.0721,-1.0721,-1.0721,-1.0721,-1.0721,-1.0721,-1.0721,-1.0721,-1.0721,-1.0721,-1.0721,-1.0721,-1.0721,-1.0721,-1.0721,-1.0721,-1.0721,-1.0585,-1.025,-1.0047,-0.9709,-0.7966,-0.5628,-0.4492,-0.4225,0.0,0.0,0.0,0.0,0.0,-2.0766,-2.0442,-1.9044,-1.7512,-1.6025,-1.591,-1.5777,-1.5584,-1.5565,-1.552,-1.5002,-1.3694,-1.2257,-1.114,-1.0783,-1.0657,-1.0473,-1.0266,-1.0239,-1.0192,-1.0017,-1.0212,-1.0351,-1.0463,-1.0565,-1.066,-1.0714,-1.0721,-1.0721,-1.0721,-1.0721,-1.0721,-1.0721,-1.0721,-1.0721,-1.0721,-1.0721,-1.0721,-1.0721,-1.0721,-1.0721,-1.0721,-1.0721,-1.0721,-1.0721,-1.0721,-1.0721,-1.0721,-1.0721,-1.0721,-1.0721,-1.0721,-1.0721,-1.0721,-1.0721,-1.0721,-1.0721,-1.0721,-1.0721,-1.0721,-1.0721,-1.0721,-1.0721,-1.0721,-1.0721,-1.0721,-1.0721,-1.0721,-1.0721,-1.0721,-1.0721,-1.0721,-1.0721,-1.0721,-1.0721,-1.0721,-1.0721,-1.0721,-1.0721,-1.0721,-1.0721,-1.0721,-1.0721,-1.0721,-1.0721,-1.0721,-1.0721,-1.0721,-1.0721,-1.0721,-1.0721,-1.0721,-1.0721,-1.0721,-1.0721,-1.0721,-1.0721,-1.0721,-1.0721,-1.0721,-1.0721,-1.0721,-1.0721,-1.0717,-1.0449,-1.018,-0.9108,-0.7034,-0.6231,-0.5028,0.0,0.0,0.0,0.0,0.0,-2.0368,-2.0233,-1.9699,-1.9255,-1.8879,-1.8682,-1.8588,-1.8504,-1.8431,-1.7901,-1.6782,-1.6235,-1.4832,-1.2312,-1.2257,-1.183,-1.0767,-1.044,-1.0176,-1.0004,-0.993,-1.0114,-1.0283,-1.0446,-1.0517,-1.0622,-1.0721,-1.0721,-1.0721,-1.0721,-1.0721,-1.0721,-1.0721,-1.0721,-1.0721,-1.0721,-1.0721,-1.0721,-1.0721,-1.0721,-1.0721,-1.0721,-1.0721,-1.0721,-1.0721,-1.0721,-1.0721,-1.0721,-1.0721,-1.0721,-1.0721,-1.0721,-1.0721,-1.0721,-1.0721,-1.0721,-1.0721,-1.0721,-1.0721,-1.0721,-1.0721,-1.0721,-1.0721,-1.0721,-1.0721,-1.0721,-1.0721,-1.0721,-1.0721,-1.0721,-1.0721,-1.0721,-1.0721,-1.0721,-1.0721,-1.0721,-1.0721,-1.0721,-1.0721,-1.0721,-1.0721,-1.0721,-1.0721,-1.0721,-1.0721,-1.0721,-1.0721,-1.0721,-1.0721,-1.0721,-1.0721,-1.0721,-1.0721,-1.0721,-1.0721,-1.0721,-1.0721,-1.0721,-1.0721,-1.0721,-1.0721,-1.0721,-1.0721,-1.0721,-1.0651,-1.0449,-0.9175,-0.7503,-0.6097,-0.4492,-0.1948,0.0,0.0,0.0,0.0]},{"header":{"parameterUnit":"m.s-1","parameterCategory":1,"la1":31.0,"la2":29.5877,"lo1":-88.7671,"lo2":-86.6584,"dy":0.0162,"dx":0.0185,"nx":115,"ny":88,"refTime":"2024-08-31T12:00:00:Z","depth":0,"parameterNumber":3,"parameterNumberName":"V-component_of_WINDS"},"data":[0.0,0.0,0.0,0.0,0.0,0.0,0.0,0.0,0.0,0.0,0.0,0.0,0.0,0.0,0.0,0.0,0.0,0.0,0.0,0.0,0.0,0.0,0.0,0.0,0.0,0.0,0.0,0.0,0.0,0.0,0.0,0.0,0.0,0.0,0.0,0.0,0.0,0.0,0.0,0.0,0.0,0.0,0.0,0.0,0.0,0.0,0.0,0.0,0.0,0.0,0.0,0.0,0.0,0.0,0.0,0.0,0.0,0.0,0.0,0.0,0.0,0.0,0.0,0.0,0.0,0.0,0.0,0.0,0.0,0.0,0.0,0.0,0.0,0.0,0.0,0.0,0.0,0.0,0.0,0.0,0.0,0.0,0.0,0.0,0.0,0.0,0.0,0.0,0.0,0.0,0.0,0.0,0.0,0.0,0.0,0.0,0.0,0.0,0.0,0.0,0.0,0.0,0.0,0.0,0.0,0.0,0.0,0.0,0.0,0.0,0.0,0.0,0.0,0.0,0.0,0.0,0.0,0.0,0.0,0.0,0.0,0.0,0.0,0.0,0.0,0.0,0.0,0.0,0.0,0.0,0.0,0.0,0.0,0.0,0.0,0.0,0.0,0.0,0.0,0.0,0.0,0.0,0.0,0.0,0.0,0.0,0.0,0.0,0.0,0.0,0.0,0.0,0.0,0.0,0.0,0.0,0.0,0.0,0.0,0.0,0.0,0.0,0.0,0.0,0.0,0.0,0.0,0.0,0.0,0.0,0.0,0.0,0.0,0.0,0.0,0.0,0.0,0.0,0.0,0.0,0.0,0.0,0.0,0.0,0.0,0.0,0.0,0.0,0.0,0.0,0.0,0.0,0.0,0.0,0.0,0.0,0.0,0.0,0.0,0.0,0.0,0.0,0.0,0.0,0.0,0.0,0.0,0.0,0.0,0.0,0.0,0.0,0.0,0.0,0.0,0.0,0.0,0.0,0.0,0.0,0.0,0.0,0.0,0.0,0.0,0.0,0.0,0.0,0.0,0.0,0.0,0.0,0.0,0.0,0.0,0.0,0.0,0.0,0.0,0.0,0.0,0.0,0.0,0.0,0.0,0.0,0.0,0.0,0.0,0.0,0.0,0.0,0.0,0.0,0.0,0.0,0.0,0.0,0.0,0.0,0.0,0.0,0.0,0.0,0.0,0.0,0.0,0.0,0.0,0.0,0.0,0.0,0.0,0.0,0.0,0.0,0.0,0.0,0.0,0.0,0.0,0.0,0.0,0.0,0.0,0.0,0.0,0.0,0.0,0.0,0.0,0.0,0.0,0.0,0.0,0.0,0.0,0.0,0.0,0.0,0.0,0.0,0.0,0.0,0.0,0.0,0.0,0.0,0.0,0.0,0.0,0.0,0.0,0.0,0.0,0.0,0.0,0.0,0.0,0.0,0.0,0.0,0.0,0.0,0.0,0.0,0.0,0.0,0.0,0.0,0.0,0.0,0.0,0.0,0.0,0.0,0.0,0.0,0.0,0.0,0.0,0.0,0.0,0.0,0.0,0.0,0.0,0.0,0.0,0.0,0.0,0.0,0.0,0.0,0.0,0.0,0.0,0.0,0.0,0.0,0.0,0.0,0.0,0.0,0.0,0.0,0.0,0.0,0.0,0.0,0.0,0.0,0.0,0.0,0.0,0.0,0.0,0.0,0.0,0.0,0.0,0.0,0.0,0.0,0.0,0.0,0.0,0.0,0.0,0.0,0.0,0.0,0.0,0.0,0.0,0.0,0.0,0.0,0.0,0.0,0.0,0.0,0.0,0.0,0.0,0.0,0.0,0.0,0.0,0.0,0.0,0.0,0.0,0.0,0.0,0.0,0.0,0.0,0.0,0.0,0.0,0.0,0.0,0.0,0.0,0.0,0.0,0.0,0.0,0.0,0.0,0.0,0.0,0.0,0.0,0.0,0.0,0.0,0.0,0.0,0.0,0.0,0.0,0.0,0.0,0.0,0.0,0.0,0.0,0.0,0.0,0.0,0.0,0.0,0.0,0.0,0.0,0.0,0.0,0.0,0.0,0.0,0.0,0.0,0.0,0.0,0.0,0.0,0.0,0.0,0.0,0.0,0.0,0.0,0.0,0.0,0.0,0.0,0.0,0.0,0.0,0.0,0.0,0.0,0.0,0.0,0.0,0.0,0.0,0.0,0.0,0.0,0.0,0.0,0.0,0.0,0.0,0.0,0.0,0.0,0.0,0.0,0.0,0.0,0.0,0.0,0.0,0.0,0.0,0.0,0.0,0.0,0.0,0.0,0.0,0.0,0.0,0.0,0.0,0.0,0.0,0.0,0.0,0.0,0.0,0.0,0.0,0.0,0.0,0.0,0.0,0.0,0.0,0.0,0.0,0.0,0.0,0.0,0.0,0.0,0.0,0.0,0.0,0.0,0.0,0.0,0.0,0.0,0.0,0.0,0.0,0.0,0.0,0.0,0.0,0.0,0.0,0.0,0.0,0.0,0.0,0.0,0.0,0.0,0.0,0.0,0.0,0.0,0.0,0.0,0.0,0.0,0.0,0.0,0.0,0.0,0.0,0.0,0.0,0.0,0.0,0.0,0.0,0.0,0.0,0.0,0.0,0.0,0.0,0.0,0.0,0.0,0.0,0.0,0.0,0.0,0.0,0.0,0.0,0.0,0.0,0.0,0.0,0.0,0.0,0.0,0.0,0.0,0.0,0.0,0.0,0.0,0.0,0.0,0.0,0.0,0.0,0.0,0.0,0.0,0.0,0.0,0.0,0.0,0.0,0.0,0.0,0.0,0.0,0.0,0.0,0.0,0.0,0.0,0.0,0.0,0.0,0.0,0.0,0.0,0.0,0.0,0.0,0.0,0.0,0.0,0.0,0.0,0.0,0.0,0.0,0.0,0.0,0.0,0.0,0.0,0.0,0.0,0.0,0.0,0.0,0.0,0.0,0.0,0.0,0.0,0.0,0.0,0.0,0.0,0.0,0.0,0.0,0.0,0.0,0.0,0.0,0.0,0.0,0.0,0.0,0.0,0.0,0.0,0.0,0.0,0.0,0.0,0.0,0.0,0.0,0.0,0.0,0.0,0.0,0.0,0.0,0.0,0.0,0.0,0.0,0.0,0.0,0.0,0.0,0.0,0.0,0.0,0.0,0.0,0.0,0.0,0.0,0.0,0.0,0.0,0.0,0.0,0.0,0.0,0.0,0.0,0.0,0.0,0.0,0.0,0.0,0.0,0.0,0.0,0.0,0.0,0.0,0.0,0.0,0.0,0.0,0.0,0.0,0.0,0.0,0.0,0.0,0.0,0.0,0.0,0.0,0.0,0.0,0.0,0.0,0.0,0.0,0.0,0.0,0.0,0.0,0.0,0.0,0.0,0.0,0.0,0.0,0.0,0.0,0.0,0.0,0.0,0.0,0.0,0.0,0.0,0.0,0.0,0.0,0.0,0.0,0.0,0.0,0.0,0.0,0.0,0.0,0.0,0.0,0.0,0.0,0.0,0.0,0.0,0.0,0.0,0.0,0.0,0.0,0.0,0.0,0.0,0.0,0.0,0.0,0.0,0.0,0.0,0.0,0.0,0.0,0.0,0.0,0.0,0.0,0.0,0.0,0.0,0.0,0.0,0.0,0.0,0.0,0.0,0.0,0.0,0.0,0.0,0.0,0.0,0.0,0.0,0.0,0.0,0.0,0.0,0.0,0.0,0.0,0.0,0.0,0.0,0.0,0.0,0.0,0.0,0.0,0.0,0.0,0.0,0.0,0.0,0.0,0.0,0.0,0.0,0.0,0.0,0.0,0.0,0.0,0.0,0.0,0.0,0.0,0.0,0.0,0.0,0.0,0.0,0.0,0.0,0.0,0.0,0.0,0.0,0.0,0.0,0.0,0.0,0.0,0.0,0.0,0.0,0.0,0.0,0.0,0.0,0.0,0.0,0.0,0.0,0.0,0.0,0.0,0.0,0.0,0.0,0.0,0.0,0.0,0.0,0.0,0.0,0.0,0.0,0.0,0.0,0.0,0.0,0.0,0.0,0.0,0.0,0.0,0.0,0.0,0.0,0.0,0.0,0.0,0.0,0.0,0.0,0.0,0.0,0.0,0.0,0.0,0.0,0.0,0.0,0.0,0.0,0.0,0.0,0.0,0.0,0.0,0.0,0.0,0.0,0.0,0.0,0.0,0.0,0.0,0.0,0.0,0.0,0.0,0.0,0.0,0.0,0.0,0.0,0.0,0.0,0.0,0.0,0.0,0.0,0.0,0.0,0.0,0.0,0.0,0.0,0.0,0.0,0.6557,0.0,0.0,0.0,0.0,0.0,0.0,0.0,0.0,0.0,0.0,0.0,0.0,0.0,0.0,0.0,0.0,0.0,0.0,0.0,0.0,0.0,0.0,0.0,0.0,0.0,0.0,0.0,0.0,0.0,0.0,0.0,0.0,0.0,0.0,0.0,0.0,0.0,0.0,0.0,0.0,0.0,0.0,0.0,0.0,0.0,0.0,0.0,0.0,0.0,0.0,0.0,0.0,0.0,0.0,0.0,0.0,0.0,0.0,0.0,0.0,0.0,0.0,0.0,0.0,0.0,0.0,0.0,0.0,0.0,0.0,0.0,0.0,0.0,0.0,0.0,0.0,0.0,0.0,0.0,0.0,0.0,0.0,0.0,0.0,0.0,0.0,0.0,0.0,0.0,0.0,0.0,0.0,0.0,0.0,0.0,0.0,0.0,0.0,0.0,0.0,0.0,0.0,0.0,0.0,0.0,0.0,0.0,0.0,0.0,0.0,0.6698,0.6491,0.6737,0.6787,0.6642,0.0,0.0,0.0,0.0,0.0,0.0,0.0,0.0,0.0,0.0,0.0,0.0,0.0,0.0,0.0,0.0,0.0,0.0,0.0,0.0,0.0,0.0,0.0,0.0,0.0,0.0,0.0,0.0,0.0,0.0,0.0,0.0,0.0,0.0,0.0,0.0,0.0,0.0,0.0,0.0,0.0,0.0,0.0,0.0,0.0,0.0,0.0,0.0,0.0,0.0,0.0,0.0,0.0,0.0,0.0,0.0,0.0,0.0,0.0,0.0,0.0,0.0,0.0,0.0,0.0,0.0,0.0,0.0,0.0,0.0,0.0,0.0,0.0,0.0,0.0,0.0,0.0,0.0,0.0,0.0,0.0,0.0,0.0,0.0,0.0,0.0,0.0,0.0,0.0,0.0,0.0,0.0,0.0,0.0,0.0,0.0,0.0,0.0,0.0,0.0,0.0,0.0,0.0,0.0,0.0,0.0,0.0,0.0,0.0,0.0,0.0,0.0,0.7162,0.7365,0.723,0.0,0.0,0.0,0.0,0.0,0.0,0.0,0.0,0.0,0.0,0.0,0.0,0.0,0.0,0.0,0.0,0.0,0.0,0.0,0.0,0.0,0.0,0.0,0.0,0.0,0.0,0.0,0.0,0.0,0.0,0.0,0.0,0.0,0.0,0.0,0.0,0.0,0.0,0.0,0.0,0.0,0.0,0.0,0.0,0.0,0.0,0.0,0.0,0.0,0.0,0.0,0.0,0.0,0.0,0.0,0.0,0.0,0.0,0.0,0.0,0.0,0.0,0.0,0.0,0.0,0.0,0.0,0.0,0.0,0.0,0.0,0.0,0.0,0.0,0.0,0.0,0.0,0.0,0.0,0.0,0.0,0.0,0.0,0.0,0.0,0.0,0.0,0.0,0.0,0.0,0.0,0.0,0.0,0.0,0.0,0.0,0.0,0.0,0.0,0.0,0.0,0.0,0.0,0.0,0.0,0.0,0.0,0.0,0.0,0.0,0.6669,0.8224,0.8144,0.0,0.8973,0.0,0.0,0.0,0.0,0.0,0.0,0.0,0.0,0.0,0.0,0.0,0.0,0.0,0.0,0.0,0.0,0.0,0.0,0.0,0.0,0.0,0.0,0.0,0.0,0.0,0.0,0.0,0.0,0.0,0.0,0.0,0.0,0.0,0.0,0.0,0.0,0.0,0.0,0.0,0.0,0.0,0.0,0.0,0.0,0.0,0.0,0.0,0.0,0.0,0.0,0.0,0.0,0.0,0.0,0.0,0.0,0.0,0.0,0.0,0.0,0.0,0.0,0.0,0.0,0.0,0.0,0.0,0.0,0.0,0.0,0.0,0.0,0.0,0.0,0.0,0.0,0.0,0.0,0.0,0.0,0.0,0.0,0.0,0.0,0.0,0.0,0.0,0.0,0.0,0.0,0.0,0.0,0.0,0.0,0.0,0.0,0.0,0.0,0.0,0.0,0.0,0.0,0.0,0.0,0.0,0.0,0.0,0.0,0.0,0.0,0.7544,0.7728,0.8146,0.8578,0.0,0.0,0.0,0.0,0.0,0.0,0.0,0.0,0.0,0.0,0.0,0.0,0.0,0.0,0.0,0.0,0.0,0.0,0.0,0.0,0.0,0.0,0.0,0.0,0.0,0.0,0.0,0.0,0.0,0.0,0.0,0.0,0.0,0.0,0.0,0.0,0.0,0.0,0.0,0.0,0.0,0.0,0.0,0.0,0.0,0.0,0.0,0.0,0.0,0.0,0.0,0.0,0.0,0.0,0.0,0.0,0.0,0.0,0.0,0.0,0.0,0.0,0.0,0.0,0.0,0.0,0.0,0.0,0.0,0.0,0.0,0.0,0.0,0.0,0.0,0.0,0.0,0.0,0.0,0.0,0.0,0.0,0.0,0.0,0.0,0.0,0.0,0.0,0.0,0.0,0.0,0.0,0.0,0.0,0.0,0.0,0.0,0.0,0.0,0.0,0.0,0.0,0.0,0.0,0.0,0.0,0.0,0.0,0.0,0.0,0.794,0.8312,0.8148,0.884,0.9171,0.8987,0.0,0.0,0.0,0.0,0.0,0.0,0.0,0.0,0.0,0.0,0.0,0.0,0.0,0.0,0.0,0.0,0.0,0.0,0.0,0.0,0.0,0.0,0.0,0.0,0.0,0.0,0.0,0.0,0.0,0.0,0.0,0.0,0.0,0.0,0.0,0.0,0.0,0.0,0.0,0.0,0.0,0.0,0.0,0.0,0.0,0.0,0.0,0.0,0.0,0.0,0.0,0.0,0.0,0.0,0.0,0.0,0.0,0.0,0.0,0.0,0.0,0.0,0.0,0.0,0.0,0.0,0.0,0.0,0.0,0.0,0.0,0.0,0.0,0.0,0.0,0.0,0.0,0.0,0.0,0.0,0.0,0.0,0.0,0.0,0.0,0.0,0.0,0.0,0.0,0.0,0.0,0.0,0.0,0.0,0.0,0.0,0.0,0.0,0.0,0.0,0.0,0.0,0.0,0.0,0.0,0.0,0.0,0.0,0.0,0.8587,0.8746,1.0195,1.0784,1.0494,0.0,0.0,0.0,0.0,0.0,0.0,0.0,0.0,0.0,0.0,0.0,0.0,0.0,0.0,0.0,0.0,0.0,0.0,0.0,0.0,0.0,0.0,0.0,0.0,0.0,0.0,0.0,0.0,0.0,0.0,0.0,0.0,0.0,0.0,0.0,0.0,0.0,0.0,0.0,0.0,0.0,0.0,0.0,0.0,0.0,0.0,0.0,0.0,0.0,0.0,0.0,0.0,0.0,0.0,0.0,0.0,0.0,0.0,0.0,0.0,0.0,0.0,0.0,0.0,0.0,0.0,0.0,0.0,0.0,0.0,0.0,0.0,0.0,0.0,0.0,0.0,0.0,0.0,0.0,0.0,0.0,0.0,0.0,0.0,0.0,0.0,0.0,0.0,0.0,0.0,0.0,0.0,0.0,0.0,0.0,0.0,0.0,0.0,0.0,0.0,0.0,0.0,0.0,0.0,0.0,0.0,0.0,0.0,0.0,0.7051,0.7621,0.9265,1.1886,1.0554,1.0007,0.0,0.0,0.0,0.0,0.0,0.0,0.0,0.0,0.0,0.0,0.0,0.0,0.0,0.0,0.0,0.0,0.0,0.0,0.0,0.0,0.0,0.0,0.0,0.0,0.0,0.0,0.0,0.0,0.0,0.0,0.0,0.0,0.0,0.0,0.0,0.0,0.0,0.0,0.0,0.0,0.0,0.0,0.0,0.0,0.0,0.0,0.0,0.0,0.0,0.0,0.0,0.0,0.0,0.0,0.0,0.0,0.0,0.0,0.0,0.0,0.0,0.0,0.0,0.0,0.0,0.0,0.0,0.0,0.0,0.0,0.0,0.0,0.0,0.0,0.0,0.0,0.0,0.0,0.0,0.0,0.0,0.0,0.0,0.0,0.0,0.0,0.0,0.0,0.0,0.0,0.0,0.0,0.0,0.0,0.0,0.0,0.0,0.0,0.0,0.0,0.0,0.0,0.0,0.0,0.0,0.0,0.0,0.0,0.0,0.6947,0.0,1.0334,0.0,1.0553,0.9748,0.0,0.0,0.0,0.0,0.0,0.0,0.0,0.0,0.0,0.0,0.0,0.0,0.0,0.0,0.0,0.0,0.0,0.0,0.0,0.0,0.0,0.0,0.0,0.0,0.0,0.0,0.0,0.0,0.0,0.0,0.0,0.0,0.0,0.0,0.0,0.0,0.0,0.0,0.0,0.0,0.0,0.0,0.0,0.0,0.0,0.0,0.0,0.0,0.0,0.0,0.0,0.0,0.0,0.0,0.0,0.0,0.0,0.0,0.0,0.0,0.0,0.0,0.0,0.0,0.0,0.0,0.0,0.0,0.0,0.0,0.0,0.0,0.0,0.0,0.0,0.0,0.0,0.0,0.0,0.0,0.0,0.0,0.0,0.0,0.0,0.0,0.0,0.0,0.0,0.0,0.0,0.0,0.0,0.0,0.0,0.0,0.0,0.0,0.0,0.0,0.0,0.0,0.0,0.0,0.0,0.0,0.0,0.0,0.6768,0.985,1.1465,1.1951,1.1184,1.1002,0.9898,0.0,0.0,0.0,0.0,0.0,0.0,0.0,0.0,0.0,0.0,0.0,0.0,0.0,0.0,0.0,0.0,0.0,0.0,0.0,0.0,0.0,0.0,0.0,0.0,0.0,0.0,0.0,0.0,0.0,0.0,0.0,0.0,0.0,0.0,0.0,0.0,0.0,0.0,0.0,0.0,0.0,0.0,0.0,0.0,0.0,0.0,0.0,0.0,0.0,0.0,0.0,0.0,0.0,0.0,0.0,0.0,0.0,0.0,0.0,0.0,0.0,0.0,0.0,0.0,0.0,0.0,0.0,0.0,0.0,0.0,0.0,0.0,0.0,0.0,0.0,0.0,0.0,0.0,0.0,0.0,0.0,0.0,0.0,0.0,0.0,0.0,0.0,0.0,0.0,0.0,0.0,0.0,0.0,0.0,0.0,0.0,0.0,0.0,0.0,0.0,0.0,0.0,0.0,0.0,0.0,0.0,0.0,0.0,0.0,0.9837,1.163,1.2889,1.3358,1.2026,1.1336,0.0,0.0,0.0,0.0,0.0,0.0,0.0,0.0,0.0,0.0,0.0,0.0,0.0,0.0,0.0,0.0,0.0,0.0,0.0,0.0,0.0,0.0,0.0,0.0,0.0,0.0,0.0,0.0,0.0,0.0,0.0,0.0,0.0,0.0,0.0,0.0,0.0,0.0,0.0,0.0,0.0,0.0,0.0,0.0,0.0,0.0,0.0,0.0,0.0,0.0,0.0,0.0,0.0,0.0,0.0,0.0,0.0,0.0,0.0,0.0,0.0,0.0,0.0,0.0,0.0,0.0,0.0,0.0,0.0,0.0,0.0,0.0,0.0,0.0,0.0,0.0,0.0,0.0,0.0,0.0,0.0,0.0,0.0,0.0,0.0,0.0,0.0,0.0,0.0,0.0,0.0,0.0,0.0,0.0,0.0,0.0,0.0,0.0,0.0,0.0,0.0,0.0,0.0,0.0,0.0,0.0,0.0,0.0,0.0,1.2978,1.4528,1.5467,1.5606,1.4093,1.3067,1.2671,0.0,0.0,0.0,0.0,0.0,0.0,0.0,0.0,0.0,0.0,0.0,0.0,0.0,0.0,0.0,0.0,0.0,0.0,0.0,0.0,0.0,0.0,0.0,0.0,0.0,0.0,0.0,0.0,0.0,0.0,0.0,0.0,0.0,0.0,0.0,0.0,0.0,0.0,0.0,0.0,0.0,0.0,0.0,0.0,0.0,0.0,0.0,0.0,0.0,0.0,0.0,0.0,0.0,0.0,0.0,0.0,0.0,0.0,0.0,0.0,0.0,0.0,0.0,0.0,0.0,0.0,0.0,0.0,0.0,0.0,0.0,0.0,0.0,0.0,0.0,0.0,0.0,0.0,0.0,0.0,0.0,0.0,0.0,0.0,0.0,0.0,0.0,0.0,0.0,0.0,0.0,0.0,0.0,0.0,0.0,0.0,0.0,0.0,0.0,0.0,0.0,0.0,0.0,0.0,0.0,0.0,0.0,0.0,1.8439,1.9804,1.9686,1.7978,1.7072,1.5173,0.0,0.0,0.0,0.0,0.0,0.0,0.0,0.0,0.0,0.0,0.0,0.0,0.0,0.0,0.0,0.0,0.0,0.0,0.0,0.0,0.0,0.0,0.0,0.0,0.0,0.0,0.0,0.0,0.0,0.0,0.0,0.0,0.0,0.0,0.0,0.0,0.0,0.0,0.0,0.0,0.0,0.0,0.0,0.0,0.0,0.0,0.0,0.0,0.0,0.0,0.0,0.0,0.0,0.0,0.0,0.0,0.0,0.0,0.0,0.0,0.0,0.0,0.0,0.0,0.0,0.0,0.0,0.0,0.0,0.0,0.0,0.0,0.0,0.0,0.0,0.0,0.0,0.0,0.0,0.0,0.0,0.0,0.0,0.0,0.0,0.0,0.0,0.0,0.0,0.0,0.0,0.0,0.0,0.0,0.0,0.0,0.0,0.0,0.0,0.0,0.0,0.0,0.0,0.0,0.0,0.0,0.0,0.0,0.0,2.1601,2.4898,2.5386,2.2733,2.0315,1.8269,0.0,0.0,0.0,0.0,0.0,0.0,0.0,0.0,0.0,0.0,0.0,0.0,0.0,0.0,0.0,0.0,0.0,0.0,0.0,0.0,0.0,0.0,0.0,0.0,0.0,0.0,0.0,0.0,0.0,0.0,0.0,0.0,0.0,0.0,0.0,0.0,0.0,0.0,0.0,0.0,0.0,0.0,0.0,0.0,0.0,0.0,0.0,0.0,0.0,0.0,0.0,0.0,0.0,0.0,0.0,0.0,0.0,0.0,0.0,0.0,0.0,0.0,0.0,0.0,0.0,0.0,0.0,0.0,0.0,0.0,0.0,0.0,0.0,0.0,0.0,0.0,0.0,0.0,0.0,0.0,0.0,0.0,0.0,0.0,0.0,0.0,0.0,0.0,0.0,0.0,0.0,0.0,0.0,0.0,0.0,0.0,0.0,0.0,0.0,0.0,0.0,0.0,0.0,0.0,0.0,0.0,0.0,0.0,2.1472,2.4194,2.7953,2.9246,2.7815,2.3954,2.0847,0.0,0.0,0.0,0.0,0.0,0.0,0.0,0.0,0.0,0.0,0.0,0.0,0.0,0.0,0.0,0.0,0.0,0.0,0.0,0.0,0.0,0.0,0.0,0.0,0.0,0.0,0.0,0.0,0.0,0.0,0.0,0.0,0.0,0.0,0.0,0.0,0.0,0.0,0.0,0.0,0.0,0.0,0.0,0.0,0.0,0.0,0.0,0.0,0.0,0.0,0.0,0.0,0.0,0.0,0.0,0.0,0.0,0.0,0.0,0.0,0.0,0.0,0.0,0.0,0.0,0.0,0.0,0.0,0.0,0.0,0.0,0.0,0.0,0.0,0.0,0.0,0.0,0.0,0.0,0.0,0.0,0.0,0.0,0.0,0.0,0.0,0.0,0.0,0.0,0.0,0.0,0.0,0.0,0.0,0.0,0.0,0.0,0.0,0.0,0.0,0.0,0.0,0.0,0.0,0.0,0.0,0.0,0.0,2.3614,2.6391,2.9683,3.1698,3.2124,2.73,2.2984,0.0,0.0,0.0,0.0,0.0,0.0,0.0,0.0,0.0,0.0,0.0,0.0,0.0,0.0,0.0,0.0,0.0,0.0,0.0,0.0,0.0,0.0,0.0,0.0,0.0,0.0,0.0,0.0,0.0,0.0,0.0,0.0,0.0,0.0,0.0,0.0,0.0,0.0,0.0,0.0,0.0,0.0,0.0,0.0,0.0,0.0,0.0,0.0,0.0,0.0,0.0,0.0,0.0,0.0,0.0,0.0,0.0,0.0,0.0,0.0,0.0,0.0,0.0,0.0,0.0,0.0,0.0,0.0,0.0,0.0,0.0,0.0,0.0,0.0,0.0,0.0,0.0,0.0,0.0,0.0,0.0,0.0,0.0,0.0,0.0,0.0,0.0,0.0,0.0,0.0,0.0,0.0,0.0,0.0,0.0,0.0,0.0,0.0,0.0,0.0,0.0,0.0,0.0,0.0,0.0,0.0,0.0,0.0,2.529,2.7888,3.1217,3.2713,3.2276,2.7791,2.4458,0.0,0.0,0.0,0.0,0.0,0.0,0.0,0.0,0.0,0.0,0.0,0.0,0.0,0.0,0.0,0.0,0.0,0.0,0.0,0.0,0.0,0.0,0.0,0.0,0.0,0.0,0.0,0.0,0.0,0.0,0.0,0.0,0.0,0.0,0.0,0.0,0.0,0.0,0.0,0.0,0.0,0.0,0.0,0.0,0.0,0.0,0.0,0.0,1.289,0.0,0.0,0.0,0.0,0.0,0.0,0.0,0.0,0.0,0.0,0.0,0.0,0.0,0.0,0.0,0.0,0.0,0.0,0.0,0.0,0.0,0.0,0.0,0.0,0.0,0.0,0.0,0.0,0.0,0.0,0.0,0.0,0.0,0.0,0.0,0.0,0.0,0.0,0.0,0.0,0.0,0.0,0.0,0.0,0.0,0.0,0.0,0.0,0.0,0.0,0.0,0.0,0.0,0.0,0.0,0.0,0.0,0.0,0.0,2.6582,2.9654,3.2141,3.322,3.2713,2.9499,2.637,0.0,0.0,0.0,0.0,0.0,0.0,0.0,0.0,0.0,0.0,0.0,0.0,0.0,0.0,0.0,0.0,0.0,0.0,0.0,0.0,0.0,0.0,0.0,0.0,0.0,0.0,0.0,0.0,0.0,0.0,0.0,0.0,0.0,0.0,0.0,0.0,0.0,0.0,0.0,0.0,0.0,0.0,0.0,0.0,0.0,0.0,0.0,0.0,0.0,0.0,0.0,0.0,0.0,0.0,0.0,0.0,0.0,0.0,0.0,0.0,0.0,0.0,0.0,0.0,0.0,0.0,0.0,0.0,0.0,0.0,0.0,0.0,0.0,0.0,0.0,0.0,0.0,0.0,0.0,0.0,0.0,0.0,0.0,0.0,0.0,0.0,0.0,0.0,0.0,0.0,0.0,0.0,0.0,0.0,0.0,0.0,0.0,0.0,0.0,0.0,0.0,0.0,0.0,0.0,0.0,0.0,0.0,2.3747,2.7604,3.1388,3.2983,3.3605,3.3389,3.1376,2.8163,2.3729,0.0,0.0,0.0,0.0,0.0,0.0,0.0,0.0,0.0,0.0,0.0,0.0,0.0,0.0,0.0,0.0,0.0,0.0,0.0,0.0,0.0,0.0,0.0,0.0,0.0,0.0,0.0,0.0,0.0,0.0,0.0,0.0,0.0,0.0,0.0,0.0,0.0,0.0,1.1238,1.2923,0.0,0.0,0.0,0.0,0.0,0.0,0.0,0.0,1.492,0.0,0.0,0.0,0.0,0.0,0.0,0.0,0.0,0.0,0.0,0.0,0.0,0.0,0.0,0.0,0.0,0.0,0.0,0.0,0.0,0.0,0.0,0.0,0.0,0.0,0.0,0.0,0.0,0.0,0.0,0.0,0.0,0.0,0.0,0.0,0.0,0.0,0.0,0.0,0.0,0.0,0.0,0.0,0.0,0.0,0.0,0.0,0.0,0.0,0.0,0.0,0.0,0.0,0.0,0.0,0.0,2.2704,2.4935,2.8294,3.2929,3.4467,3.4636,3.3423,3.185,2.8925,2.4491,0.0,0.0,0.0,0.0,0.0,0.0,0.0,0.0,0.0,0.0,0.0,0.0,0.0,0.0,0.0,0.0,0.0,0.0,0.0,0.0,0.0,0.0,0.0,0.0,0.0,0.0,0.0,0.0,0.0,0.0,0.0,0.0,0.0,0.0,0.0,0.0,0.0,0.0,0.0,1.6563,1.7522,0.0,0.0,0.0,0.0,0.0,0.0,0.0,0.0,1.6873,0.0,0.0,0.0,0.0,0.0,0.0,0.0,0.0,0.0,0.0,0.0,0.0,0.0,0.0,0.0,0.0,0.0,0.0,0.0,0.0,0.0,0.0,0.0,0.0,0.0,0.0,0.0,0.0,0.0,0.0,0.0,0.0,0.0,0.0,0.0,0.0,0.0,0.0,0.0,0.0,0.0,0.0,0.0,0.0,0.0,0.0,0.0,0.0,0.0,0.0,0.0,0.0,0.0,0.0,0.0,2.2345,2.636,3.0005,3.3301,3.4839,3.489,3.3423,3.1244,2.813,0.0,0.0,0.0,0.0,0.0,0.0,0.0,0.0,0.0,0.0,0.0,0.0,0.0,0.0,0.0,0.0,0.0,0.0,0.0,0.0,0.0,0.0,0.0,0.0,0.0,0.0,0.0,0.0,0.0,0.0,0.0,0.0,0.0,0.0,0.0,0.0,0.0,0.0,0.0,0.0,1.8168,1.9153,2.0894,0.0,0.0,0.0,0.0,0.0,0.0,1.8738,1.8382,0.0,0.0,0.0,0.0,0.0,0.0,0.0,0.0,0.0,0.0,0.0,0.0,0.0,0.0,0.0,0.0,0.0,0.0,0.0,0.0,0.0,0.0,0.0,0.0,0.0,0.0,0.0,0.0,0.0,0.0,0.0,0.0,0.0,0.0,0.0,0.0,0.0,0.0,0.0,0.0,0.0,0.0,0.0,0.0,0.0,0.0,0.0,0.0,0.0,0.0,0.0,0.0,0.0,0.0,0.0,2.1751,2.7308,3.1348,3.3594,3.4891,3.4912,3.3539,3.0607,2.7248,0.0,0.0,0.0,0.0,0.0,0.0,0.0,0.0,0.0,0.0,0.0,0.0,0.0,0.0,0.0,0.0,0.0,0.0,0.0,0.0,0.0,0.0,0.0,0.0,0.0,0.0,0.0,0.0,0.0,0.0,0.0,0.0,0.0,0.0,0.0,0.0,0.0,0.0,0.0,0.0,0.0,2.0745,2.2908,2.1587,0.0,0.0,0.0,0.0,1.9747,2.03,0.0,0.0,0.0,0.0,0.0,0.0,0.0,0.0,0.0,0.0,0.0,0.0,0.0,0.0,0.0,0.0,0.0,0.0,0.0,0.0,0.0,0.0,0.0,0.0,0.0,0.0,0.0,0.0,0.0,0.0,0.0,0.0,0.0,0.0,0.0,0.0,0.0,0.0,0.0,0.0,0.0,0.0,0.0,0.0,0.0,0.0,0.0,0.0,0.0,0.0,0.0,0.0,0.0,0.0,0.0,0.0,2.2415,2.6877,3.0946,3.4445,3.5042,3.4872,3.4088,3.0798,2.723,0.0,0.0,0.0,0.0,0.0,0.0,0.0,0.0,0.0,0.0,0.0,0.0,0.0,0.0,0.0,0.0,0.0,0.0,0.0,0.0,0.0,0.0,0.0,0.0,0.0,0.0,0.0,0.0,0.0,0.0,0.0,0.0,0.0,0.0,0.0,0.0,0.0,0.0,0.0,0.0,0.0,2.2822,2.3072,2.2785,2.2276,0.0,0.0,2.3601,2.4231,2.4993,0.0,0.0,0.0,0.0,0.0,0.0,0.0,0.0,0.0,0.0,0.0,0.0,0.0,0.0,0.0,0.0,0.0,0.0,0.0,0.0,0.0,0.0,0.0,0.0,0.0,0.0,0.0,0.0,0.0,0.0,0.0,0.0,0.0,0.0,0.0,0.0,0.0,0.0,0.0,0.0,0.0,0.0,0.0,0.0,0.0,0.0,0.0,0.0,0.0,0.0,0.0,0.0,0.0,0.0,0.0,1.9829,2.3298,2.9188,3.3089,3.473,3.5322,3.5263,3.4547,3.0141,2.6303,0.0,0.0,0.0,0.0,0.0,0.0,0.0,0.0,0.0,0.0,0.0,0.0,0.0,0.0,0.0,0.0,0.0,0.0,0.0,0.0,0.0,0.0,0.0,0.0,0.0,0.0,0.0,0.0,0.0,0.0,0.0,0.0,0.0,0.0,0.0,0.0,0.0,0.0,0.0,0.0,0.0,0.0,2.4321,2.4413,0.0,0.0,0.0,2.4669,2.3903,0.0,0.0,0.0,0.0,0.0,0.0,0.0,0.0,0.0,0.0,0.0,0.0,0.0,0.0,0.0,0.0,0.0,0.0,0.0,0.0,0.0,0.0,0.0,0.0,0.0,0.0,0.0,0.0,0.0,0.0,0.0,0.0,0.0,0.0,0.0,0.0,0.0,0.0,0.0,0.0,0.0,0.0,0.0,0.0,0.0,0.0,0.0,0.0,0.0,0.0,0.0,0.0,0.0,0.0,0.0,0.0,0.0,2.4313,3.1219,3.503,3.545,3.5687,3.5545,3.494,3.043,0.0,0.0,0.0,0.0,0.0,0.0,0.0,0.0,0.0,0.0,0.0,0.0,0.0,0.0,0.0,0.0,0.0,0.0,0.0,0.0,0.0,0.0,0.0,0.0,0.0,0.0,0.0,0.8543,0.0,0.0,0.0,0.0,0.0,0.0,0.0,0.0,0.0,0.0,0.0,0.0,0.0,0.0,2.4643,2.5657,2.6182,2.6522,0.0,0.0,2.5959,2.4945,2.7694,2.8464,0.0,0.0,0.0,0.0,0.0,0.0,0.0,0.0,0.0,0.0,0.0,0.0,0.0,0.0,0.0,0.0,0.0,0.0,0.0,0.0,0.0,0.0,0.0,0.0,0.0,0.0,0.0,0.0,0.0,0.0,0.0,0.0,0.0,0.0,0.0,0.0,0.0,0.0,0.0,0.0,0.0,0.0,0.0,0.0,0.0,0.0,0.0,0.0,0.0,0.0,0.0,0.0,0.0,0.0,2.2236,2.5821,3.1708,3.5623,3.7208,3.6159,3.5517,3.551,3.2648,2.8492,0.0,0.0,0.0,0.0,0.0,0.0,0.0,0.0,0.0,0.0,0.0,0.0,0.0,0.0,0.0,0.0,0.0,0.0,0.0,0.0,0.0,0.0,0.0,0.0,0.0,0.0,0.0,0.0,0.0,0.0,0.0,0.0,0.0,0.0,0.0,0.0,0.0,0.0,0.0,0.0,0.0,2.6498,2.6855,2.7964,2.9395,0.0,2.9659,2.8723,2.9953,3.1657,3.1175,2.6113,0.0,0.0,0.0,0.0,0.0,0.0,0.0,0.0,0.0,0.0,0.0,0.0,0.0,0.0,0.0,0.0,0.0,0.0,0.0,0.0,0.0,0.0,0.0,0.0,0.0,0.0,0.0,0.0,0.0,0.0,0.0,0.0,0.0,0.0,0.0,0.0,0.0,0.0,0.0,0.0,0.0,0.0,0.0,0.0,0.0,0.0,0.0,0.0,0.0,0.0,0.0,0.0,0.0,2.2883,2.6564,3.2614,3.6313,3.7422,3.6994,3.6501,3.6042,3.3261,2.9427,0.0,0.0,0.0,0.0,0.0,0.0,0.0,0.0,0.0,0.0,0.0,0.0,0.0,0.0,0.0,0.0,0.0,0.0,0.0,0.0,0.0,0.0,0.0,0.0,0.0,0.0,0.0,0.0,1.3666,1.4265,1.4487,0.0,0.0,0.0,0.0,0.0,0.0,0.0,0.0,0.0,0.0,2.7658,2.9829,3.0525,0.0,0.0,3.0918,3.0139,3.0023,3.0953,3.0342,2.6433,2.4981,0.0,0.0,0.0,0.0,0.0,0.0,0.0,0.0,0.0,0.0,0.0,0.0,0.0,0.0,0.0,0.0,0.0,0.0,0.0,0.0,0.0,0.0,0.0,0.0,0.0,0.0,0.0,0.0,0.0,0.0,0.0,0.0,0.0,0.0,0.0,0.0,0.0,0.0,0.0,0.0,0.0,0.0,0.0,0.0,0.0,0.0,0.0,0.0,0.0,0.0,0.0,0.0,2.3588,2.7328,3.3273,3.6798,3.7823,3.7621,3.7107,3.6285,3.4087,3.0726,0.0,0.0,0.0,0.0,0.0,0.0,0.0,0.0,0.0,0.0,0.0,0.0,0.0,0.0,0.0,0.0,0.0,0.0,0.0,0.0,0.0,0.0,0.0,0.0,0.0,0.0,0.0,0.0,1.4914,1.5121,1.4326,0.0,0.0,0.0,0.0,0.0,0.0,0.0,0.0,0.0,0.0,2.9602,3.1647,3.1917,3.1933,3.2057,3.1009,3.0144,2.9973,3.0176,2.942,2.6685,0.0,0.0,0.0,0.0,0.0,0.0,0.0,0.0,0.0,0.0,0.0,0.0,0.0,0.0,0.0,0.0,0.0,0.0,0.0,0.0,0.0,0.0,0.0,0.0,0.0,0.0,0.0,1.0782,0.0,0.0,0.9884,0.0,0.0,0.0,0.0,0.0,0.0,0.0,0.0,0.0,0.0,0.0,0.0,0.0,0.0,0.0,0.0,0.0,0.0,0.0,0.0,0.0,0.0,2.439,2.8165,3.3583,3.7074,3.8579,3.7915,3.7144,3.634,3.5412,3.2748,2.812,0.0,0.0,0.0,0.0,0.0,0.0,0.0,0.0,0.0,0.0,0.0,0.0,0.0,0.0,0.0,0.0,0.0,0.0,0.0,0.0,0.0,0.0,0.0,0.0,0.0,0.0,1.152,1.4079,1.5482,0.0,0.0,0.0,0.0,0.0,0.0,0.0,0.0,0.0,2.5162,2.9741,3.2667,3.1789,3.1807,3.2127,3.2522,3.0028,2.8663,3.0453,3.0092,2.8981,0.0,0.0,0.0,0.0,0.0,0.0,0.0,0.0,0.0,0.0,0.0,0.0,0.0,0.0,0.0,0.0,0.0,0.0,0.0,0.0,0.0,0.0,0.0,0.0,0.0,0.0,0.0,1.6866,1.5762,0.0,0.0,0.0,0.0,0.0,0.0,0.0,0.0,0.0,0.0,0.0,2.3901,2.4612,0.0,0.0,0.0,0.0,0.0,0.0,0.0,0.0,0.0,0.0,0.0,0.0,2.5661,2.9075,3.4335,3.7606,3.867,3.8432,3.7918,3.7125,3.5994,3.2946,2.7789,0.0,0.0,0.0,0.0,0.0,0.0,0.0,0.0,0.0,0.0,0.0,0.0,0.0,0.0,0.0,0.0,0.0,0.0,0.0,0.0,0.0,0.0,0.0,0.0,0.0,1.3488,0.0,0.0,0.0,0.0,0.0,0.0,0.0,0.0,0.0,0.0,0.0,2.6281,2.908,3.074,3.2125,3.3342,3.3514,3.398,0.0,0.0,0.0,0.0,0.0,0.0,0.0,0.0,0.0,0.0,0.0,0.0,0.0,0.0,2.9237,2.3624,2.3186,2.3666,2.3567,0.0,0.0,0.0,0.0,0.0,0.0,0.0,0.0,0.0,0.0,0.0,0.0,0.0,0.0,2.123,2.0162,2.0014,0.0,0.0,0.0,0.0,0.0,0.0,0.0,0.0,2.6265,2.8129,2.8728,2.9421,2.9499,2.8991,2.7598,2.4589,0.0,0.0,0.0,0.0,0.0,0.0,0.0,0.0,2.6883,2.9629,3.4779,3.7896,3.8652,3.8707,3.8303,3.7496,3.5838,3.3134,2.9336,2.6152,2.3355,0.0,0.0,0.0,0.0,0.0,0.0,0.0,0.0,0.0,0.0,0.0,0.0,0.0,0.0,0.0,0.0,0.0,0.0,0.0,0.0,0.0,0.0,0.0,1.5808,0.0,0.0,0.0,0.0,0.0,0.0,0.0,0.0,0.0,2.5046,2.7051,2.9465,3.2194,3.3,3.3454,3.3779,0.0,0.0,0.0,0.0,0.0,0.0,0.0,2.9465,2.9985,2.9848,3.043,3.2683,3.4218,3.4996,3.4585,0.0,0.0,2.891,2.8433,2.8981,2.8868,2.8903,2.895,2.9049,2.9499,2.9898,0.0,0.0,0.0,0.0,2.1806,0.0,0.0,0.0,2.5373,2.4754,0.0,2.5013,0.0,0.0,0.0,0.0,2.1147,2.5646,0.0,0.0,3.3816,3.5621,3.3639,3.3592,3.3588,3.3554,3.2815,3.1559,2.967,2.443,0.0,0.0,0.0,0.0,0.0,0.0,2.8098,3.0158,3.5066,3.797,3.8707,3.8726,3.8322,3.7477,3.5146,3.3486,3.2583,2.9609,2.6928,2.4674,2.1119,0.0,0.0,0.0,0.0,0.0,0.0,0.0,0.0,0.0,0.0,0.0,0.0,0.0,0.0,0.0,0.0,0.0,0.0,0.0,0.0,1.7373,0.0,0.0,0.0,0.0,0.0,0.0,0.0,0.0,0.0,0.0,2.7512,3.078,3.3607,3.4225,0.0,0.0,0.0,0.0,3.3959,3.1625,3.0464,3.0119,3.0552,3.1483,3.2426,3.3207,0.0,0.0,3.656,3.6556,3.6417,3.5251,3.7369,3.8191,3.5889,3.5006,3.4594,3.4211,3.3607,3.3172,3.3152,3.3489,3.3701,3.3174,0.0,0.0,0.0,0.0,2.8731,3.0009,3.1586,3.224,3.2009,3.1188,3.0542,0.0,0.0,0.0,0.0,0.0,0.0,3.1748,3.3723,3.5567,3.6882,3.7827,3.7845,3.7827,3.7792,3.7075,3.6469,3.5897,3.4099,2.944,2.22,0.0,0.0,0.0,0.0,3.1864,3.4149,3.7467,3.9313,3.9551,3.9001,3.8303,3.7511,3.6485,3.5292,3.3912,3.2389,3.0265,2.7471,2.4999,0.0,0.0,0.0,0.0,0.0,0.0,0.0,0.0,0.0,0.0,0.0,0.0,0.0,0.0,0.0,0.0,0.0,0.0,0.0,1.7718,2.0112,2.1051,0.0,0.0,0.0,0.0,0.0,0.0,0.0,0.0,0.0,3.4304,3.3731,3.3349,0.0,0.0,3.3633,3.2403,3.378,3.5141,3.573,3.549,0.0,3.6377,3.5172,3.4658,3.6029,3.8818,4.0992,4.1355,4.2369,4.3058,4.266,4.3299,4.3574,4.2866,4.0802,3.9168,3.8613,3.831,3.8184,3.8184,3.8254,3.8442,4.0757,3.7036,3.385,3.2713,3.3091,3.4078,3.536,3.6791,3.773,3.7676,3.6921,3.6684,3.5143,3.2609,3.1722,0.0,0.0,0.0,3.6399,3.8943,3.9226,4.0111,4.1384,4.1416,4.1239,4.0937,4.0496,4.0064,3.9653,3.8797,3.5266,2.9225,0.0,0.0,2.8211,3.214,3.4935,3.6501,3.9033,4.0377,4.0359,3.9588,3.8946,3.845,3.7378,3.6336,3.5399,3.4357,3.2756,3.0438,2.8352,2.5506,0.0,0.0,0.0,0.0,0.0,0.0,0.0,0.0,0.0,0.0,0.0,1.3277,1.0696,0.0,0.0,0.0,1.8076,2.0303,2.2042,2.3768,0.0,0.0,0.0,0.0,0.0,0.0,0.0,3.065,3.44,3.7331,3.8285,3.7223,3.6492,3.6997,3.6801,3.6324,3.5496,0.0,3.8302,3.9018,3.8994,3.9127,3.9723,3.9031,3.8927,4.0543,4.2378,4.3809,4.436,4.5278,4.5865,4.5902,4.5902,4.5902,4.5902,4.4287,4.2915,4.2577,4.2505,4.2432,4.2123,4.2305,4.2558,4.7483,4.6088,3.9388,3.6995,3.7694,3.8888,4.0157,4.1359,4.1972,4.1863,4.1357,4.2604,4.1296,3.8061,3.6733,0.0,3.9205,3.9957,4.1346,4.3348,4.4017,4.4351,4.4333,4.4316,4.3938,4.3209,4.3245,4.2726,4.172,4.0294,3.9018,3.7973,3.6921,3.5454,3.3768,3.5838,3.7252,3.7716,3.9882,4.1022,4.1077,4.0396,3.9955,3.9882,3.7998,3.6931,3.6731,3.554,3.4341,3.3139,3.1028,2.8625,2.5892,0.0,0.0,0.0,0.0,0.0,0.0,0.0,0.0,0.0,0.0,0.0,0.0,0.0,0.0,0.0,2.313,0.0,2.799,2.802,0.0,0.0,0.0,2.9939,3.2107,3.4255,3.6,3.7105,0.0,0.0,4.0286,4.0983,4.1912,4.3085,4.2844,4.2065,4.0655,4.1614,4.2395,4.1396,4.1425,4.1499,4.1686,4.2581,4.3791,4.5259,4.5993,4.5938,4.6049,4.6122,4.6122,4.6177,4.6104,4.6122,4.6104,4.6049,4.6104,4.5975,4.5847,4.5553,4.4838,4.5132,4.5352,4.8639,4.7378,4.5615,4.4665,4.4307,4.4558,4.4551,4.4362,4.4475,4.4357,4.409,4.3971,4.37,4.3287,4.3342,4.3652,4.4181,4.4346,4.4728,4.5219,4.5401,4.5492,4.5492,4.5492,4.5401,4.5219,4.5219,4.5093,4.4821,4.4455,4.3521,4.2121,4.1796,3.931,3.4865,3.6454,3.8022,3.9328,3.9882,4.0487,4.1093,4.0928,4.0524,3.99,3.9034,3.788,3.6471,3.5372,3.4319,3.3214,3.1967,3.0231,2.7883,2.3098,0.0,0.0,0.0,0.0,0.0,0.0,0.0,0.0,0.0,1.8092,1.4091,0.0,2.1742,0.0,2.5553,2.9358,3.1397,3.1819,0.0,0.0,3.3557,3.4197,3.6766,3.8611,3.9557,3.9253,4.1776,4.3571,4.3552,4.425,4.5315,4.6688,4.3797,4.1348,4.0999,4.2279,4.3229,4.3113,4.3956,4.4745,4.4727,4.5039,4.5681,4.6654,4.6801,4.704,4.7627,4.7737,4.7737,4.7737,4.7737,4.7737,4.7682,4.7737,4.7719,4.7645,4.6764,4.5847,4.5663,4.5792,4.5865,5.0877,5.0185,5.0203,4.9942,4.9438,4.811,4.7464,4.7371,4.7633,4.7714,4.7601,4.6915,4.6574,4.6527,4.6835,4.6966,4.6985,4.6985,4.6985,4.6966,4.6966,4.6966,4.6966,4.6966,4.6801,4.6452,4.6596,4.6515,4.6183,4.6164,4.5702,4.485,4.4666,4.2635,3.8964,3.9001,3.9368,3.9882,4.0267,4.1001,4.2103,4.1462,4.0561,3.9386,3.8378,3.6851,3.4747,3.399,3.2941,3.1449,3.0735,2.9556,2.7753,2.3987,2.134,0.0,0.0,0.0,0.0,0.0,0.0,0.0,0.0,0.0,0.0,0.0,2.5156,2.5281,3.0073,3.3498,3.4283,3.5539,3.679,3.8031,3.8415,3.9507,4.1896,4.3296,4.4064,4.4191,4.6071,4.7281,4.6929,4.7858,4.8621,4.8847,4.6871,4.5143,4.4521,4.5112,4.5645,4.5681,4.6397,4.6985,4.6966,4.6966,4.7113,4.7516,4.7626,4.7791,4.8213,4.8324,4.8324,4.8324,4.8324,4.8324,4.8324,4.8324,4.8324,4.8196,4.7609,4.6911,4.6507,4.6728,4.6893,5.3146,5.306,5.3042,5.306,5.2849,5.0307,4.9549,5.0108,5.0579,5.082,5.0765,5.005,4.9315,4.8636,4.8618,4.8618,4.8618,4.8618,4.8618,4.8636,4.8547,4.8548,4.853,4.8476,4.809,4.7463,4.7754,4.7575,4.6919,4.69,4.6788,4.6567,4.6214,4.5251,4.3664,4.22,4.1029,4.01,4.082,4.1937,4.3277,4.168,4.0029,3.8432,3.685,3.4926,3.257,3.2183,3.1153,2.9355,2.9034,2.8421,2.7364,2.4738,2.3036,0.0,2.059,0.0,0.0,0.0,0.0,0.0,0.0,0.0,0.0,2.742,2.9116,3.1121,3.54,3.7875,3.7489,3.9393,4.1027,4.1933,4.3277,4.4901,4.6797,4.7668,4.8543,4.9686,5.048,5.0646,4.9942,5.1118,5.1382,5.0176,5.0252,4.9925,4.901,4.8384,4.8126,4.8325,4.8324,4.8104,4.8159,4.8233,4.8233,4.8288,4.8251,4.8324,4.8306,4.8324,4.8324,4.8324,4.8324,4.8324,4.8324,4.8324,4.8324,4.8306,4.8233,4.7976,4.7461,4.7719,4.8049,5.2872,5.2317,5.2294,5.2312,5.2253,5.1717,5.152,5.1559,5.1037,5.082,5.0802,5.0637,5.049,5.0343,5.0343,5.0325,5.0325,5.0343,5.0325,5.0326,4.9936,4.9764,4.9744,4.9444,4.9205,4.9073,4.913,4.9066,4.8949,4.893,4.8267,4.7014,4.6925,4.6083,4.4535,0.0,0.0,0.0,4.168,4.2231,4.2433,4.0322,3.8377,3.6784,3.5415,0.0,3.1732,3.1225,3.0695,3.0055,3.0247,0.0,0.0,0.0,0.0,0.0,0.0,0.0,0.0,0.0,0.0,0.0,3.0598,2.9988,2.9261,3.2415,3.5259,3.6982,3.9433,4.164,4.3431,4.428,4.5326,4.6784,4.7202,4.8077,4.977,5.0128,5.0553,5.142,5.1676,5.1733,5.1578,5.1813,5.1903,5.1555,5.1662,5.1654,5.1312,4.9851,4.873,4.8383,4.8455,4.8343,4.8324,4.8343,4.8306,4.8324,4.8324,4.8306,4.8344,4.8325,4.8306,4.8344,4.8324,4.8325,4.8306,4.8324,4.8325,4.8324,4.8324,4.8232,4.8085,4.8196,4.8269,5.2999,5.2662,5.264,5.2621,0.0,5.2856,5.2929,5.2857,5.2265,5.1862,5.1712,5.1693,5.1584,5.1392,5.1392,5.1392,5.1392,5.1392,5.1392,5.1372,5.1145,5.1037,5.1037,5.0825,5.0741,5.0741,5.0927,5.0819,5.0407,5.0388,4.9775,4.8574,4.8402,4.7871,4.7106,4.6878,4.5463,4.291,4.2892,4.3094,4.3406,4.1901,4.0102,3.8138,3.6641,0.0,0.0,0.0,0.0,0.0,0.0,0.0,0.0,0.0,0.0,3.0624,2.9797,3.0277,3.249,3.3087,3.429,3.6516,3.7841,3.7385,3.4764,3.8349,4.1171,4.2188,4.3919,4.5618,4.7214,4.7952,4.8805,4.9943,5.0132,5.0582,5.1489,5.1687,5.1939,5.2501,5.2978,5.3092,5.2641,5.3379,5.3417,5.2787,5.2978,5.3009,5.2327,5.1258,5.0338,5.0121,4.9562,4.9233,4.9159,4.8641,4.8402,4.8513,4.8421,4.8477,4.883,4.8728,4.8658,4.8849,4.888,4.8829,4.8621,4.8586,4.855,4.8345,4.8324,4.8324,4.8324,4.8324,4.8324,5.3185,5.3206,5.3272,5.3295,5.3336,5.3739,5.3923,5.3887,5.3564,0.0,0.0,5.2933,5.2744,5.2455,5.2436,5.2436,5.2436,5.2436,5.2436,5.2417,5.2359,5.2313,5.2313,5.2253,5.2224,5.2238,5.2539,5.2339,5.1639,5.1486,5.1085,5.0438,4.9942,4.9692,4.9622,4.9622,4.8269,4.5649,4.4487,4.4197,4.4775,4.3597,4.1926,3.9735,3.8135,3.6248,3.41,3.3149,3.2351,3.1669,3.1564,3.1595,3.1735,3.1952,3.2514,3.352,3.4445,3.5819,3.7723,3.8677,3.9971,4.1867,4.4002,4.3956,4.0883,4.3834,4.5973,4.6307,4.784,4.9116,4.9843,5.0699,5.1471,5.2148,5.2205,5.2382,5.2856,5.2944,5.3123,5.3603,5.4278,5.4453,5.3816,5.4797,5.5222,5.4077,5.4257,5.4408,5.3319,5.2427,5.1801,5.1684,5.1,5.052,5.0376,4.9798,4.9065,4.9146,4.8952,4.8985,4.938,4.9412,4.9452,4.9951,4.9956,4.9845,4.9541,4.9569,4.9342,4.9011,4.8938,4.8938,4.8938,4.8975,4.8901,5.3206,5.3209,5.3565,5.372,5.3777,5.4204,5.4387,5.4406,5.4322,5.4301,5.4234,5.4234,5.4191,5.4141,5.4145,5.4145,5.4145,5.416,5.4145,5.4119,5.3732,5.3541,5.3535,5.3192,5.3029,5.3048,5.3091,5.3063,5.2852,5.2179,5.1757,5.1574,5.09,5.0347,5.0024,5.0019,4.9629,4.881,4.6671,4.5439,4.5177,4.24,4.0288,3.8888,3.7386,3.5991,3.4894,3.4724,3.4563,3.444,3.5103,3.5798,3.6472,3.652,3.7249,3.8695,3.9234,4.0184,4.1857,4.3039,4.4404,4.6067,4.7186,4.7248,4.6183,4.7137,4.7905,4.8031,4.9739,5.092,5.1135,5.2142,5.288,5.3045,5.3037,5.3358,5.4109,5.4216,5.4457,5.5135,5.5434,5.5472,5.528,5.5511,5.5607,5.5376,5.528,5.5404,5.486,5.3364,5.2137,5.1997,5.1877,5.1737,5.1703,5.1616,5.0976,5.0138,5.0239,5.0338,5.029,5.0413,5.0772,5.1506,5.1542,5.1525,5.1454,5.1549,5.1355,5.1209,5.1158,5.1246,5.1174,5.1227,5.0696,5.3907,5.3943,5.4083,5.417,5.4219,5.471,5.5059,5.5259,5.5387,5.5181,5.4833,5.4819,5.4952,5.5147,5.516,5.516,5.516,5.516,5.516,5.5135,5.491,5.4829,5.4821,5.4639,5.4549,5.4549,5.4549,5.4337,5.3895,5.3491,5.3058,5.2587,5.1779,5.1046,5.047,5.0421,5.0336,5.0109,4.8642,4.7556,4.6914,4.5283,4.3949,4.2949,4.1162,4.001,3.9625,3.8781,3.8307,3.8307,3.8873,3.9341,3.9707,3.9886,4.0736,4.2305,4.2602,4.347,4.5293,4.6092,4.7013,4.8254,4.8682,4.9193,4.9785,4.9887,5.0006,5.0274,5.1542,5.254,5.2981,5.3571,5.4087,5.4511,5.4568,5.4722,5.5049,5.5145,5.5299,5.5645,5.5684,5.5684,5.5684,5.5684,5.5684,5.5684,5.5684,5.5684,5.5684,5.479,5.3983,5.397,5.3478,5.3071,5.2986,5.2399,5.1899,5.1506,5.1469,5.1571,5.1689,5.187,5.2041,5.252,5.2672,5.2539,5.2428,5.2316,5.2247,5.2012,5.1997,5.1997,5.1997,5.1997,5.1412,5.4767,5.4748,5.4689,5.4693,5.4851,5.5305,5.5685,5.5981,5.6121,5.5866,5.5385,5.5347,5.5519,5.5798,5.5769,5.5758,5.5739,5.5758,5.5728,5.5695,5.5738,5.5728,5.5695,5.5684,5.5684,5.5684,5.5684,5.5376,5.4818,5.4587,5.4049,5.3222,5.2519,5.1865,5.127,5.127,5.1164,5.0952,5.0366,4.9614,4.8751,4.8227,4.7638,4.6853,4.5212,4.4313,4.4239,4.3111,4.2464,4.2461,4.2708,4.2843,4.2843,4.3081,4.38,4.5022,4.5231,4.6067,4.7802,4.825,4.8787,4.967,4.991,5.0612,5.1906,5.2163,5.2134,5.2365,5.3047,5.383,5.4371,5.4708,5.5064,5.5628,5.5684,5.5626,5.5684,5.5684,5.5684,5.5684,5.5684,5.5684,5.5684,5.5684,5.5684,5.5684,5.5684,5.5684,5.5684,5.5684,5.5684,5.5517,5.4879,5.4364,5.4262,5.3581,5.3011,5.2972,5.2747,5.2819,5.3142,5.3099,5.3269,5.3676,5.3825,5.375,5.3405,5.3369,5.3302,5.3158,5.3136,5.2981,5.3052,5.3052,5.2419,5.5608,5.5542,5.5228,5.5324,5.5745,5.6006,5.6119,5.6175,5.6191,5.6181,5.6064,5.609,5.6109,5.6128,5.5951,5.5872,5.5891,5.5891,5.5825,5.5738,5.5834,5.5816,5.5716,5.5695,5.5684,5.5684,5.5684,5.5645,5.5472,5.4857,5.4068,5.3299,5.3126,5.3029,5.2933,5.2914,5.2558,5.1818,5.1729,5.1119,4.9954,4.9186,4.8568,4.8126,4.7236,4.6764,4.6671,4.6614,4.6519,4.6557,4.6471,4.6555,4.6536,4.6582,4.6685,4.6849,4.7155,4.7909,4.9067,4.9269,4.9716,5.0662,5.1397,5.1928,5.2391,5.3683,5.4216,5.383,5.4272,5.4731,5.4731,5.5299,5.5687,5.5711,5.5728,5.5684,5.5726,5.5684,5.5684,5.5684,5.5738,5.5695,5.5738,5.5717,5.5705,5.5684,5.5684,5.5684,5.5684,5.5684,5.5705,5.5705,5.5528,5.5478,5.5399,5.5467,5.4714,5.4014,5.4058,5.4104,5.4039,5.4196,5.4528,5.4825,5.5261,5.5162,5.5228,5.5401,5.5245,5.4875,5.4921,5.5201,5.5319,5.514,5.4312,5.6971,5.6575,5.6408,5.6237,5.6123,5.6251,5.6297,5.632,5.6414,5.6428,5.6428,5.643,5.6342,5.6191,5.6122,5.6078,5.6078,5.6078,5.6057,5.5993,5.6064,5.5993,5.5815,5.5816,5.5789,5.5695,5.5684,5.5684,5.5645,5.5357,5.478,5.4049,5.3953,5.3722,5.3241,5.3203,5.3029,5.2702,5.2683,5.2179,5.1179,5.0142,4.9529,4.9277,4.8353,4.781,4.7753,4.737,4.7087,4.7119,4.7271,4.7383,4.7402,4.7587,4.7925,4.8433,4.9067,4.9692,5.0245,5.0281,5.0685,5.1643,5.2024,5.2674,5.3845,5.4632,5.5061,5.5384,5.5564,5.5644,5.5611,5.5883,5.6045,5.6013,5.6005,5.5998,5.5986,5.5998,5.6005,5.5986,5.6005,5.5978,5.5982,5.5885,5.5789,5.5717,5.5695,5.5705,5.5695,5.5684,5.5738,5.5798,5.5816,5.5789,5.5728,5.5684,5.5429,5.5143,5.5089,5.5089,5.502,5.5066,5.5357,5.5665,5.5684,5.5684,5.5607,5.5684,5.5684,5.5684,5.5684,5.5684,5.5684,5.5684,5.5121,5.8458,5.7947,5.7533,5.7066,5.6626,5.6506,5.6456,5.646,5.656,5.6621,5.6621,5.6621,5.6508,5.6324,5.6264,5.6266,5.6246,5.6246,5.6227,5.6222,5.6247,5.6156,5.5996,5.5969,5.5932,5.5854,5.5844,5.5855,5.5817,5.576,5.5451,5.4959,5.486,5.453,5.3953,5.3876,5.376,5.3568,5.3568,5.3126,5.223,5.1177,5.049,5.021,4.9428,4.8941,4.8954,4.8384,4.8093,4.8093,4.8308,4.8471,4.8516,4.874,4.9155,4.9801,5.0458,5.0956,5.125,5.1295,5.1688,5.2596,5.2886,5.3634,5.4847,5.5388,5.5828,5.6385,5.6424,5.6293,5.6246,5.6246,5.6232,5.6222,5.6211,5.6211,5.6206,5.6211,5.62,5.6211,5.6183,5.6211,5.6189,5.6017,5.5849,5.5789,5.575,5.5759,5.576,5.5798,5.5887,5.5959,5.5988,5.5947,5.5863,5.5863,5.5845,5.5817,5.5788,5.5702,5.5758,5.5738,5.5684,5.5684,5.5684,5.5684,5.5684,5.5684,5.5684,5.5684,5.5684,5.5684,5.5684,5.5684,5.5684,5.9902,5.9619,5.8297,5.7687,5.7584,5.6907,5.6621,5.668,5.6601,5.6621,5.6621,5.6621,5.6601,5.656,5.645,5.6386,5.6386,5.6386,5.6328,5.6257,5.6351,5.632,5.6191,5.6167,5.6175,5.6135,5.6128,5.6141,5.6141,5.5981,5.5869,5.5822,5.5654,5.559,5.5455,5.5427,5.5175,5.4511,5.4434,5.403,5.3164,5.2278,5.1518,5.0856,5.0596,5.0489,5.0509,5.0519,5.048,5.049,5.0433,5.0536,5.0662,5.0712,5.0816,5.1042,5.1102,5.1463,5.2139,5.2242,5.2687,5.3629,5.4384,5.5031,5.5351,5.5996,5.6445,5.6601,5.6562,5.6523,5.6416,5.6405,5.6338,5.6257,5.6212,5.6232,5.6207,5.6257,5.6216,5.6232,5.6232,5.6252,5.6202,5.6005,5.5932,5.5896,5.5888,5.5888,5.5932,5.6038,5.6127,5.6167,5.6177,5.6186,5.6161,5.6097,5.6116,5.6097,5.5971,5.5907,5.5851,5.5798,5.5759,5.5716,5.5728,5.5728,5.5705,5.5684,5.5684,5.5684,5.5684,5.5684,5.5684,5.5684,5.5684,6.0546,6.004,5.9079,5.8665,5.8568,5.7773,5.7422,5.7383,5.6836,5.6621,5.6621,5.6621,5.6621,5.6601,5.6559,5.6535,5.6523,5.6535,5.649,5.646,5.6511,5.6456,5.6331,5.6324,5.6284,5.6222,5.6211,5.6211,5.6186,5.6115,5.609,5.6084,5.605,5.5955,5.5851,5.5834,5.5634,5.532,5.5261,5.4857,5.4108,5.3722,5.3205,5.2415,5.1298,5.073,5.0839,5.0819,5.0875,5.0959,5.0946,5.0972,5.1066,5.1505,5.2078,5.2611,5.2699,5.2868,5.3185,5.3254,5.3696,5.4639,5.5033,5.5527,5.6035,5.6426,5.6621,5.6621,5.6621,5.6582,5.6543,5.6535,5.6504,5.6484,5.6465,5.6445,5.6456,5.6456,5.6456,5.6476,5.6456,5.6424,5.6331,5.6269,5.6193,5.6109,5.609,5.609,5.6097,5.6164,5.6221,5.6221,5.6224,5.6222,5.6214,5.6205,5.6211,5.6181,5.6135,5.6103,5.6065,5.6044,5.6005,5.5859,5.5843,5.5808,5.5779,5.5705,5.5705,5.5684,5.5684,5.5684,5.5684,5.5684,5.5684,6.114,6.06,5.988,5.959,5.9492,5.8691,5.8164,5.7851,5.7265,5.6875,5.666,5.6621,5.6621,5.6621,5.6621,5.6621,5.6621,5.6601,5.6621,5.6621,5.6621,5.6559,5.6483,5.6479,5.6421,5.6338,5.6328,5.6328,5.632,5.6273,5.6256,5.6256,5.6217,5.6121,5.6017,5.6003,5.5967,5.587,5.5863,5.5582,5.509,5.478,5.4412,5.3751,5.2415,5.1517,5.1367,5.1354,5.1243,5.1157,5.1327,5.1638,5.199,5.2515,5.3095,5.3644,5.3702,5.3922,5.4231,5.4296,5.4716,5.5605,5.5723,5.6015,5.6562,5.6621,5.6621,5.6621,5.6621,5.6621,5.6621,5.6601,5.6621,5.6621,5.6621,5.6621,5.6621,5.6601,5.6601,5.6601,5.6601,5.6562,5.6484,5.6443,5.6345,5.626,5.6275,5.6256,5.6256,5.6267,5.6255,5.6268,5.6217,5.6224,5.6203,5.6201,5.6209,5.6187,5.6185,5.6202,5.6223,5.6221,5.6191,5.6039,5.5951,5.591,5.5844,5.5758,5.5716,5.5705,5.5684,5.5684,5.5684,5.5684,5.5684,6.168,6.1504,6.0762,6.041,6.0312,5.9551,5.8711,5.8066,5.7871,5.7344,5.668,5.6621,5.6621,5.6621,5.6621,5.6621,5.6621,5.6621,5.6621,5.6621,5.6621,5.6601,5.6601,5.6582,5.6582,5.6562,5.6601,5.6601,5.6562,5.6456,5.6391,5.6377,5.6297,5.6232,5.6191,5.6191,5.6186,5.6178,5.6166,5.6144,5.6108,5.5386,5.4983,5.484,5.4037,5.3239,5.2456,5.2354,5.2023,5.1487,5.1959,5.2762,5.3567,5.3895,5.4023,5.416,5.4121,5.4492,5.5176,5.5312,5.5644,5.6289,5.6523,5.6504,5.6582,5.6621,5.6621,5.6621,5.6621,5.6621,5.6621,5.6621,5.6621,5.6621,5.6621,5.6621,5.6621,5.6621,5.6621,5.6621,5.6621,5.6621,5.6562,5.6489,5.6421,5.6414,5.6411,5.6411,5.6382,5.6366,5.6393,5.6361,5.6235,5.6119,5.6147,5.6177,5.6183,5.6179,5.6206,5.6211,5.6241,5.6247,5.6276,5.6174,5.6115,5.6064,5.5978,5.5896,5.5808,5.5769,5.5739,5.5726,5.5684,5.5684,5.5684,6.1699,6.168,6.1406,6.1289,6.1191,6.039,5.9551,5.873,5.8183,5.7422,5.6719,5.6621,5.6621,5.6621,5.6621,5.6621,5.6621,5.6621,5.6621,5.6621,5.6621,5.6621,5.6621,5.6621,5.6621,5.6621,5.6621,5.6621,5.6601,5.6562,5.6537,5.6535,5.6504,5.6424,5.6335,5.6331,5.6305,5.6222,5.6211,5.6211,5.6191,5.5944,5.5848,5.5879,5.5652,5.5151,5.4412,5.3718,5.3286,5.3043,5.3341,5.3893,5.4648,5.4882,5.5156,5.5703,5.5801,5.5859,5.6113,5.6191,5.6269,5.6543,5.6621,5.6621,5.6621,5.6621,5.6621,5.6621,5.6621,5.6621,5.6621,5.6621,5.6621,5.6621,5.6621,5.6621,5.6621,5.6621,5.6621,5.6621,5.6621,5.6621,5.6601,5.6543,5.6543,5.6543,5.6523,5.6543,5.6523,5.6437,5.6348,5.6284,5.6121,5.5974,5.5947,5.5951,5.5951,5.6027,5.6081,5.6163,5.62,5.6307,5.6315,5.6319,5.6269,5.6197,5.6109,5.6024,5.5932,5.5868,5.5842,5.5789,5.5717,5.5695,5.5695,6.1699,6.1699,6.1699,6.1699,6.164,6.1094,6.0234,5.9238,5.8633,5.7695,5.6777,5.6621,5.6621,5.6621,5.6621,5.6621,5.6621,5.6621,5.6621,5.6621,5.6621,5.6621,5.6621,5.6621,5.6621,5.6621,5.6621,5.6621,5.6621,5.6621,5.6601,5.6601,5.6621,5.6562,5.6484,5.6462,5.6424,5.6348,5.6365,5.6342,5.6342,5.6361,5.6405,5.6458,5.6462,5.624,5.5761,5.5149,5.4562,5.4199,5.4277,5.4883,5.5683,5.5781,5.6035,5.6445,5.6601,5.6582,5.6621,5.6562,5.6621,5.6621,5.6621,5.6621,5.6621,5.6621,5.6621,5.6621,5.6621,5.6621,5.6621,5.6621,5.6621,5.6621,5.6621,5.6621,5.6621,5.6621,5.6621,5.6621,5.6621,5.6621,5.6621,5.6621,5.6621,5.6621,5.6621,5.6621,5.6582,5.6484,5.6365,5.6212,5.6032,5.5891,5.5739,5.5726,5.5716,5.5808,5.5936,5.6019,5.6101,5.6286,5.6361,5.6414,5.6386,5.6324,5.6256,5.6167,5.609,5.6019,5.5954,5.5866,5.5798,5.5707,5.5695,6.1699,6.1699,6.1699,6.1699,6.168,6.1543,6.0586,5.9336,5.9023,5.8066,5.6855,5.6621,5.6621,5.6621,5.6621,5.6621,5.6621,5.6621,5.6621,5.6621,5.6621,5.6621,5.6621,5.6621,5.6621,5.6621,5.6621,5.6621,5.6621,5.6621,5.6621,5.6621,5.6621,5.6621,5.6582,5.6582,5.6582,5.6562,5.6582,5.6562,5.6562,5.6582,5.6582,5.6582,5.6582,5.6543,5.6465,5.6348,5.5703,5.4512,5.5019,5.5723,5.6406,5.6582,5.6543,5.6621,5.6621,5.6621,5.6621,5.6621,5.6621,5.6621,5.6621,5.6621,5.6621,5.6621,5.6621,5.6621,5.6621,5.6621,5.6621,5.6621,5.6621,5.6621,5.6621,5.6621,5.6621,5.6621,5.6621,5.6621,5.6621,5.6621,5.6621,5.6621,5.6621,5.6621,5.6621,5.6621,5.6582,5.6486,5.6345,5.6213,5.6077,5.5981,5.5887,5.5879,5.5879,5.591,5.5978,5.5996,5.6065,5.6245,5.643,5.6484,5.6504,5.6445,5.6406,5.6328,5.6269,5.6198,5.6096,5.5981,5.5883,5.5816,5.575,6.1699,6.1699,6.1699,6.1699,6.1601,6.1035,6.0176,5.916,5.8496,5.7656,5.6758,5.6621,5.6621,5.6621,5.6621,5.6621,5.6621,5.6621,5.6621,5.6621,5.6621,5.6621,5.6621,5.6621,5.6621,5.6621,5.6621,5.6621,5.6621,5.6621,5.6621,5.6621,5.6601,5.6601,5.6621,5.6601,5.6621,5.6621,5.6601,5.6601,5.6601,5.6601,5.6621,5.6621,5.6601,5.6601,5.6601,5.6621,5.6465,5.6015,5.6094,5.6348,5.6562,5.6621,5.6621,5.6621,5.6621,5.6621,5.6621,5.6621,5.6621,5.6621,5.6621,5.6621,5.6621,5.6621,5.6621,5.6621,5.6621,5.6621,5.6621,5.6621,5.6621,5.6621,5.6621,5.6621,5.6621,5.6621,5.6621,5.6621,5.6621,5.6621,5.6621,5.6621,5.6621,5.6621,5.6621,5.6601,5.6582,5.6512,5.6386,5.6335,5.6246,5.6164,5.6097,5.6091,5.6071,5.6084,5.609,5.6051,5.6113,5.6227,5.6402,5.6542,5.6562,5.6523,5.6543,5.6523,5.6445,5.6348,5.6285,5.6173,5.6071,5.5996,5.5907,6.1699,6.1699,6.1699,6.1699,6.1582,6.0781,5.9941,5.914,5.8262,5.7402,5.6738,5.6621,5.6621,5.6621,5.6621,5.6621,5.6621,5.6621,5.6621,5.6621,5.6621,5.6621,5.6621,5.6621,5.6621,5.6621,5.6621,5.6621,5.6621,5.6621,5.6621,5.6601,5.6538,5.6514,5.6504,5.6436,5.6428,5.6426,5.6428,5.6428,5.6426,5.6428,5.6426,5.6445,5.6448,5.6454,5.6523,5.6582,5.6601,5.6582,5.6601,5.6621,5.6621,5.6621,5.6621,5.6621,5.6621,5.6621,5.6621,5.6621,5.6621,5.6621,5.6621,5.6621,5.6621,5.6621,5.6621,5.6621,5.6621,5.6621,5.6621,5.6621,5.6621,5.6621,5.6621,5.6621,5.6621,5.6621,5.6621,5.6621,5.6621,5.6621,5.6621,5.6621,5.6621,5.6621,5.6621,5.6621,5.6601,5.6523,5.6454,5.6411,5.6365,5.6292,5.6207,5.6167,5.6183,5.6217,5.6227,5.6172,5.6218,5.6266,5.6399,5.6543,5.6582,5.6621,5.6621,5.6601,5.6562,5.6484,5.6432,5.638,5.6249,5.615,5.6045,6.168,6.168,6.1699,6.1699,6.1523,6.0664,5.9824,5.9121,5.8105,5.7285,5.6719,5.6621,5.6621,5.6621,5.6621,5.6621,5.6621,5.6621,5.6621,5.6621,5.6621,5.6621,5.6621,5.6621,5.6621,5.6621,5.6621,5.6621,5.6601,5.6582,5.6562,5.6536,5.645,5.6383,5.6371,5.6264,5.6222,5.6242,5.6257,5.6261,5.6261,5.6261,5.6266,5.6266,5.6261,5.6313,5.6414,5.6486,5.6523,5.6582,5.6601,5.6621,5.6621,5.6621,5.6621,5.6621,5.6621,5.6621,5.6621,5.6621,5.6621,5.6621,5.6621,5.6601,5.6582,5.6543,5.6562,5.6523,5.6543,5.6543,5.6582,5.6582,5.6582,5.6582,5.6621,5.6621,5.6621,5.6621,5.6621,5.6621,5.6621,5.6621,5.6621,5.6621,5.6621,5.6621,5.6621,5.6621,5.6621,5.6582,5.6523,5.6477,5.6421,5.6403,5.6324,5.626,5.6297,5.6309,5.6328,5.6328,5.6358,5.6404,5.6463,5.6543,5.6582,5.6621,5.6621,5.6601,5.6582,5.6561,5.6512,5.646,5.6394,5.6285,5.6193,6.1655,6.1549,6.1657,6.1635,6.1323,6.0058,5.9375,5.9082,5.7558,5.6875,5.6621,5.6601,5.6601,5.6601,5.6601,5.6621,5.6601,5.6621,5.6621,5.6621,5.6621,5.6621,5.6601,5.6601,5.6601,5.6601,5.6601,5.6601,5.6562,5.6486,5.645,5.6421,5.6317,5.6257,5.6242,5.6186,5.6211,5.6211,5.62,5.6183,5.6164,5.6164,5.6164,5.6189,5.6175,5.627,5.6358,5.6324,5.6335,5.6428,5.6523,5.6582,5.6582,5.6582,5.6582,5.6582,5.6582,5.6601,5.6601,5.6582,5.6601,5.6582,5.6562,5.654,5.6452,5.643,5.6386,5.632,5.6277,5.6365,5.6443,5.643,5.6484,5.6543,5.6582,5.6582,5.6601,5.6601,5.6621,5.6621,5.6621,5.6621,5.6621,5.6621,5.6621,5.6621,5.6621,5.6621,5.6621,5.6621,5.6582,5.6523,5.6523,5.6484,5.6465,5.6406,5.6406,5.6426,5.6445,5.6445,5.6484,5.6488,5.6514,5.6543,5.6601,5.6621,5.6621,5.6601,5.6601,5.6601,5.6582,5.6543,5.6484,5.6406,5.6345,6.1638,6.1606,6.1678,6.1658,6.1414,6.0312,5.9531,5.8984,5.7747,5.6882,5.6546,5.6452,5.6452,5.6511,5.6512,5.6523,5.6601,5.6621,5.6621,5.6621,5.6601,5.6562,5.6531,5.6511,5.6492,5.6492,5.6504,5.6484,5.6414,5.6342,5.6309,5.6301,5.6139,5.6065,5.6031,5.6001,5.5951,5.597,5.5967,5.5967,5.5947,5.5967,5.5947,5.5998,5.601,5.6109,5.6156,5.6207,5.6232,5.6309,5.6374,5.6419,5.6399,5.6419,5.6419,5.6419,5.6419,5.6419,5.6406,5.6419,5.6406,5.6421,5.6399,5.6377,5.6324,5.6289,5.6269,5.6232,5.6222,5.6232,5.6301,5.6309,5.6365,5.6383,5.6419,5.643,5.6489,5.6562,5.6621,5.6621,5.6621,5.6621,5.6621,5.6621,5.6621,5.6621,5.6621,5.6621,5.6621,5.6621,5.6621,5.6582,5.6601,5.6601,5.6601,5.6582,5.6562,5.6562,5.6543,5.6543,5.6562,5.6543,5.6517,5.6562,5.6621,5.6621,5.6621,5.6621,5.6621,5.6601,5.6601,5.6601,5.6582,5.6504,5.6484,6.1679,6.1636,6.1698,6.1679,6.1499,6.07,5.9961,5.9258,5.8119,5.719,5.6595,5.6334,5.6297,5.6361,5.6374,5.643,5.6504,5.6523,5.6504,5.6484,5.6484,5.6452,5.6383,5.6374,5.6338,5.6338,5.6348,5.6293,5.6237,5.6169,5.6139,5.6128,5.5978,5.5902,5.5842,5.5769,5.5738,5.5758,5.5758,5.5748,5.5738,5.5738,5.5738,5.5759,5.5835,5.5907,5.5959,5.6044,5.6116,5.6152,5.6135,5.6122,5.6135,5.6186,5.6211,5.6222,5.6247,5.6257,5.6261,5.6242,5.6237,5.6211,5.6222,5.6186,5.615,5.6133,5.6103,5.6084,5.6078,5.6097,5.6152,5.6158,5.6175,5.6222,5.6222,5.6266,5.6361,5.6483,5.6523,5.6621,5.6621,5.6621,5.6621,5.6621,5.6621,5.6621,5.6621,5.6621,5.6621,5.6621,5.6621,5.6621,5.6621,5.6621,5.6621,5.6621,5.6621,5.6621,5.6621,5.6621,5.6621,5.6582,5.6562,5.6582,5.6621,5.6621,5.6621,5.6621,5.6621,5.6621,5.6621,5.6621,5.6621,5.6621,5.6601,6.1557,6.1378,6.1608,6.1579,6.1275,6.0555,6.0119,5.9625,5.8223,5.7391,5.7147,5.6528,5.6239,5.6222,5.6227,5.6246,5.6281,5.6317,5.6305,5.6305,5.6305,5.626,5.6237,5.6203,5.6169,5.6078,5.6127,5.6186,5.6141,5.6045,5.5959,5.5912,5.5807,5.5749,5.5739,5.5705,5.5684,5.5684,5.5684,5.5684,5.5684,5.5684,5.5684,5.5695,5.5758,5.5798,5.5851,5.5835,5.5835,5.5912,5.5854,5.5798,5.5843,5.6037,5.6146,5.6172,5.6166,5.6154,5.616,5.6169,5.6206,5.6211,5.6183,5.6097,5.5996,5.5963,5.5974,5.5979,5.5933,5.5902,5.5936,5.6222,5.6135,5.6212,5.6358,5.6375,5.6393,5.642,5.6511,5.668,5.668,5.6621,5.6621,5.6621,5.6621,5.6621,5.6621,5.6621,5.6621,5.6621,5.6621,5.6621,5.6621,5.6621,5.6621,5.6621,5.6621,5.6621,5.6621,5.6621,5.6621,5.6621,5.6621,5.6621,5.6621,5.6621,5.6621,5.6621,5.6621,5.6621,5.6621,5.6621,5.6621,5.6621,5.6621,6.1491,6.1326,6.1444,6.1428,6.1254,6.0945,6.0473,5.991,5.9037,5.8122,5.7368,5.6804,5.6385,5.6141,5.6045,5.609,5.6169,5.6211,5.6211,5.6211,5.6211,5.6121,5.6058,5.6045,5.5939,5.5851,5.5904,5.5951,5.5927,5.5863,5.5817,5.5798,5.5717,5.5695,5.5684,5.5695,5.5684,5.5684,5.5684,5.5684,5.5684,5.5684,5.5684,5.5684,5.5684,5.5719,5.575,5.5749,5.5728,5.5769,5.5729,5.5705,5.5729,5.5817,5.5943,5.597,5.5951,5.5943,5.5954,5.5935,5.5938,5.5927,5.5943,5.5913,5.5835,5.5808,5.602,5.6276,5.6406,5.6603,5.7149,5.7072,5.7187,5.7258,5.7251,5.725,5.7232,5.695,5.6927,5.6943,5.6758,5.668,5.6621,5.6621,5.6621,5.6621,5.664,5.668,5.6699,5.6621,5.6621,5.6621,5.6621,5.6621,5.6621,5.6621,5.6621,5.6621,5.6621,5.6621,5.6621,5.6621,5.6621,5.6621,5.6621,5.6621,5.6621,5.6621,5.6621,5.6621,5.6621,5.6621,5.6621,5.6621,5.6621,6.1373,6.1259,6.1271,6.1285,6.124,6.124,6.0818,6.0199,5.9824,5.8932,5.7755,5.7379,5.6965,5.649,5.6242,5.616,5.6136,5.6084,5.609,5.6084,5.6077,5.5993,5.5899,5.5851,5.5817,5.5739,5.5728,5.5684,5.5738,5.5737,5.5705,5.5716,5.5695,5.5684,5.5684,5.5684,5.5684,5.5684,5.5684,5.5684,5.5684,5.5684,5.5684,5.5684,5.5684,5.5695,5.5716,5.5705,5.5695,5.5716,5.5695,5.5684,5.5684,5.5684,5.5695,5.5684,5.5684,5.5684,5.5705,5.5707,5.5758,5.5749,5.5716,5.5791,5.6128,5.6391,5.6629,5.7099,5.7272,5.7453,5.7948,5.8215,5.8207,5.8179,5.8182,5.8261,5.8085,5.7848,5.7571,5.7398,5.7001,5.6777,5.6738,5.7012,5.709,5.7168,5.7187,5.7168,5.7129,5.6699,5.6621,5.6621,5.6621,5.6621,5.6621,5.6621,5.6621,5.6621,5.6621,5.6621,5.6621,5.6621,5.6621,5.6621,5.6621,5.6621,5.6621,5.6621,5.6621,5.6621,5.6621,5.6621,5.6621,5.6621,5.6621,6.122,6.1056,6.122,6.12,6.1056,6.104,6.0935,6.0608,5.992,5.946,5.9004,5.8457,5.8053,5.7653,5.7048,5.6452,5.5962,5.5798,5.5817,5.5836,5.5808,5.5808,5.5738,5.5717,5.5748,5.5684,5.5684,5.5684,5.5684,5.5684,5.5684,5.5684,5.5684,5.5684,5.5684,5.5684,5.5684,5.5684,5.5684,5.5684,5.5684,5.5684,5.5684,5.5684,5.5684,5.5684,5.5684,5.5684,5.5684,5.5684,5.5684,5.5684,5.5684,5.5684,5.5684,5.5684,5.5684,5.5684,5.5703,5.5799,5.5868,5.5895,5.5895,5.6145,5.6722,5.7396,5.778,5.8069,5.8146,5.828,5.8531,5.8454,5.8346,5.8492,5.8684,5.8599,5.8484,5.8557,5.8307,5.8159,5.7873,5.7253,5.6914,5.7305,5.7617,5.7695,5.7734,5.7715,5.7461,5.6973,5.6875,5.6933,5.666,5.6621,5.6621,5.6621,5.6621,5.6621,5.6621,5.6621,5.6621,5.6621,5.6621,5.6621,5.6621,5.6621,5.6621,5.6621,5.6621,5.6621,5.6621,5.6621,5.6621,5.6621,5.6621,6.0964,6.0894,6.0983,6.0964,6.0902,6.0883,6.0847,6.0727,6.0396,5.9954,5.9531,5.9165,5.8492,5.7742,5.7118,5.6522,5.5857,5.5703,5.5684,5.5684,5.5684,5.5684,5.5695,5.5695,5.5684,5.5684,5.5684,5.5684,5.5684,5.5684,5.5684,5.5684,5.5684,5.5684,5.5684,5.5684,5.5684,5.5684,5.5684,5.5684,5.5684,5.5684,5.5684,5.5684,5.5684,5.5684,5.5684,5.5684,5.5684,5.5684,5.5684,5.5684,5.5684,5.5742,5.5857,5.6445,5.6445,5.6203,5.5838,5.6184,5.6387,5.6618,5.6838,5.7415,5.778,5.8107,5.8607,5.8954,5.8973,5.9165,5.955,5.9723,5.9723,5.9685,5.9473,5.9531,5.9415,5.9069,5.8974,5.8853,5.8722,5.8188,5.7803,5.8152,5.8458,5.8437,5.8418,5.834,5.7812,5.7051,5.7129,5.7441,5.7031,5.6621,5.6621,5.6621,5.6621,5.6621,5.6621,5.6621,5.6621,5.6621,5.6621,5.6621,5.6621,5.6621,5.6621,5.6621,5.6621,5.6621,5.6621,5.6621,5.6621,5.6621,5.6621,6.08,6.08,6.08,6.08,6.08,6.08,6.0781,6.0781,6.0762,6.0416,5.9973,5.9781,5.8992,5.7819,5.7453,5.6953,5.6049,5.5799,5.5703,5.5684,5.5684,5.5684,5.5684,5.5684,5.5684,5.5703,5.5684,5.5684,5.5684,5.5684,5.5684,5.5684,5.5684,5.5684,5.5684,5.5684,5.5684,5.5684,5.5684,5.5684,5.5684,5.5684,5.5684,5.5684,5.5684,5.5684,5.5684,5.5684,5.5684,5.5684,5.5684,5.5684,5.5703,5.6011,5.6349,5.6868,5.708,5.7107,5.6876,5.7011,5.7242,5.7569,5.803,5.8511,5.8607,5.8742,5.9088,5.98,5.9819,6.0185,6.0589,6.0704,6.0569,6.0531,6.0589,6.0723,6.0704,6.0089,5.9781,5.9799,5.9642,5.9412,5.9185,5.9322,5.9353,5.9221,5.9121,5.898,5.8398,5.7617,5.7754,5.8164,5.7598,5.7148,5.7051,5.6973,5.6836,5.668,5.668,5.6621,5.6621,5.6621,5.6621,5.6621,5.6621,5.6621,5.6621,5.6621,5.6621,5.6621,5.6621,5.6621,5.6621,5.6621,5.6621,6.08,6.08,6.08,6.08,6.08,6.08,6.08,6.08,6.08,6.0742,6.0589,6.0589,6.005,5.9165,5.8242,5.7569,5.6791,5.606,5.578,5.5684,5.5703,5.5761,5.578,5.5799,5.5742,5.5799,5.5742,5.5703,5.5703,5.5733,5.5703,5.5703,5.5742,5.5722,5.5684,5.5684,5.5684,5.5684,5.5684,5.5684,5.5684,5.5684,5.5684,5.5684,5.5684,5.5684,5.5684,5.5684,5.5684,5.5684,5.5684,5.5857,5.6002,5.6406,5.6849,5.7445,5.7934,5.8088,5.8204,5.8088,5.8184,5.8454,5.8896,5.9435,5.9454,6.0165,6.0569,6.0531,6.0435,6.055,6.0742,6.08,6.08,6.08,6.08,6.08,6.08,6.0742,6.0492,6.0646,6.0477,6.0137,6.0074,6.0095,6.0067,5.9941,5.9693,5.9546,5.9406,5.8828,5.8848,5.8867,5.8281,5.791,5.7773,5.7617,5.7402,5.7129,5.6992,5.6797,5.6621,5.6621,5.6621,5.6621,5.6621,5.6621,5.6621,5.6621,5.6621,5.6621,5.6621,5.6621,5.6621,5.6621,5.6621,6.08,6.08,6.08,6.08,6.08,6.08,6.08,6.08,6.08,6.08,6.08,6.0742,6.0031,5.9011,5.8454,5.7511,5.6319,5.5915,5.578,5.5703,5.5703,5.6011,5.6126,5.6145,5.5945,5.6291,5.6079,5.6069,5.6483,5.6126,5.6184,5.6203,5.6011,5.5742,5.5684,5.5684,5.5684,5.5684,5.5684,5.5684,5.5684,5.5684,5.5684,5.5684,5.5684,5.5684,5.5684,5.5684,5.5684,5.5722,5.5742,5.603,5.6483,5.6926,5.7541,5.8261,5.8838,5.9223,5.9511,5.9377,5.9261,5.9819,6.0127,6.0262,6.0185,6.0627,6.0762,6.0781,6.08,6.08,6.08,6.08,6.08,6.08,6.08,6.08,6.08,6.08,6.0781,6.0742,6.0762,6.0631,6.0665,6.0721,6.0683,6.0623,6.0357,6.0114,6.0007,5.9843,5.975,5.9623,5.9101,5.875,5.8613,5.8301,5.7969,5.7676,5.7402,5.7168,5.6953,5.6621,5.6621,5.6621,5.6621,5.6621,5.6621,5.6621,5.6621,5.6621,5.6621,5.6621,5.6621,5.6699,5.6855,6.08,6.08,6.08,6.08,6.08,6.08,6.08,6.08,6.08,6.08,6.08,6.0742,6.0204,5.9223,5.8704,5.8223,5.7261,5.6799,5.6588,5.6588,5.6722,5.6857,5.6992,5.7011,5.6953,5.7165,5.6953,5.6934,5.7338,5.6742,5.6934,5.7011,5.653,5.6126,5.5684,5.5684,5.5684,5.5684,5.5684,5.5684,5.5684,5.5684,5.5684,5.5684,5.5684,5.5684,5.5684,5.5722,5.5915,5.6049,5.6242,5.6588,5.7137,5.7753,5.8388,5.9127,5.98,6.0185,6.0416,6.0396,6.0165,6.0512,6.0646,6.0723,6.08,6.08,6.08,6.08,6.08,6.08,6.08,6.08,6.08,6.08,6.08,6.08,6.08,6.08,6.08,6.0781,6.08,6.08,6.0793,6.0819,6.0846,6.0824,6.0744,6.0655,6.0779,6.059,6.0347,6.0202,5.9941,5.9687,5.9453,5.9023,5.8613,5.8496,5.8183,5.7773,5.748,5.7129,5.6719,5.6621,5.6621,5.6621,5.6758,5.6933,5.6816,5.664,5.666,5.6719,5.7148,5.7305,5.748,6.08,6.08,6.08,6.08,6.08,6.08,6.08,6.08,6.08,6.08,6.08,6.08,6.0704,6.0262,5.9511,5.8973,5.8646,5.8165,5.7934,5.7838,5.7742,5.8069,5.8146,5.8088,5.7896,5.8204,5.7973,5.7877,5.8261,5.7896,5.805,5.7953,5.7396,5.653,5.5799,5.5684,5.5684,5.5684,5.5684,5.5684,5.5684,5.5684,5.5684,5.5684,5.5684,5.5684,5.5953,5.5953,5.628,5.6868,5.6964,5.7415,5.8146,5.8819,5.93,5.9608,6.0319,6.0685,6.0762,6.0742,6.0742,6.0762,6.08,6.08,6.08,6.08,6.08,6.08,6.08,6.08,6.08,6.08,6.08,6.08,6.08,6.08,6.08,6.08,6.08,6.08,6.08,6.08,6.08,6.0816,6.0871,6.0916,6.099,6.1093,6.1194,6.1087,6.0753,6.0709,6.0549,6.0418,6.0107,5.9637,5.9297,5.9199,5.8984,5.8574,5.8223,5.7949,5.748,5.6914,5.7051,5.7441,5.7422,5.7363,5.7422,5.7461,5.6933,5.6953,5.7461,5.791,5.8125,6.08,6.08,6.08,6.08,6.08,6.08,6.08,6.08,6.08,6.08,6.08,6.08,6.0416,5.9992,5.9723,5.9319,5.8781,5.8588,5.8288,5.8357,5.8434,5.8684,5.8819,5.8761,5.8684,5.8838,5.8723,5.8742,5.9069,5.8781,5.8781,5.8704,5.8165,5.7088,5.6088,5.5684,5.5684,5.5684,5.5684,5.5684,5.5703,5.5722,5.5703,5.5722,5.5761,5.6011,5.6522,5.6569,5.7011,5.7723,5.7857,5.8261,5.8915,5.955,5.98,6.0146,6.0762,6.0781,6.08,6.0781,6.0781,6.08,6.08,6.08,6.08,6.08,6.08,6.08,6.08,6.08,6.08,6.08,6.08,6.08,6.08,6.08,6.08,6.08,6.08,6.08,6.08,6.08,6.08,6.08,6.0845,6.0858,6.0894,6.0954,6.1053,6.1101,6.0925,6.1077,6.1052,6.0979,6.0759,6.0314,5.9979,5.9844,5.9668,5.9414,5.9082,5.8719,5.8476,5.8066,5.8203,5.8359,5.8359,5.8398,5.8496,5.8379,5.8008,5.791,5.8457,5.875,5.8828,6.08,6.08,6.08,6.08,6.08,6.08,6.08,6.08,6.08,6.08,6.08,6.0781,6.0531,6.0108,5.9896,5.9781,5.9184,5.9184,5.9184,5.9165,5.9184,5.9569,5.9646,5.9435,5.9646,5.9704,5.955,5.9511,5.9915,5.9435,5.9319,5.9281,5.8973,5.803,5.7088,5.6742,5.6742,5.6703,5.6607,5.6242,5.6126,5.6022,5.5895,5.6118,5.631,5.6549,5.7184,5.7569,5.7819,5.8434,5.8819,5.9108,5.9646,6.0012,6.0242,6.0646,6.08,6.08,6.08,6.08,6.08,6.08,6.08,6.08,6.08,6.08,6.08,6.08,6.08,6.08,6.08,6.08,6.08,6.08,6.08,6.08,6.08,6.08,6.08,6.08,6.08,6.08,6.08,6.08,6.0816,6.0804,6.0804,6.086,6.0935,6.0964,6.0991,6.1092,6.1179,6.1057,6.1059,6.1053,6.0728,6.0486,6.0292,6.0102,5.974,5.9349,5.9268,5.914,5.8906,5.8848,5.9316,5.9473,5.9414,5.9433,5.9375,5.9394,5.9609,5.9609,5.9629,6.0769,6.0788,6.08,6.08,6.08,6.08,6.0781,6.0742,6.0781,6.0762,6.0704,6.0723,6.0685,6.0742,6.0742,6.0627,6.0531,6.0531,6.0512,6.055,6.0339,6.0589,6.0608,6.055,6.0435,6.0589,6.055,6.0281,6.0704,6.0396,6.0069,5.98,5.9646,5.9031,5.8569,5.8357,5.8184,5.7761,5.7338,5.7069,5.6953,5.6483,5.6607,5.6857,5.7107,5.7511,5.803,5.8377,5.8819,5.9261,5.9569,6.005,6.0454,6.0762,6.08,6.08,6.08,6.08,6.08,6.08,6.08,6.08,6.08,6.08,6.08,6.08,6.08,6.08,6.08,6.08,6.08,6.08,6.08,6.08,6.08,6.08,6.08,6.08,6.08,6.08,6.08,6.08,6.08,6.08,6.08,6.08,6.08,6.0804,6.0847,6.0845,6.0869,6.089,6.0964,6.0999,6.1068,6.1124,6.1046,6.0666,6.085,6.0713,6.033,6.0022,5.9995,5.9783,5.9297,5.9375,6.0058,6.0273,6.0195,6.0254,6.0371,6.041,6.0469,6.0469,6.0566,6.0291,6.0338,6.0647,6.08,6.08,6.0781,6.0454,5.9992,6.0473,6.0512,5.9896,6.0531,6.0723,6.08,6.0781,6.0781,6.0762,6.0781,6.0762,6.0762,6.0646,6.0742,6.08,6.08,6.08,6.08,6.08,6.08,6.0762,6.08,6.0762,6.0473,6.03,6.0108,6.0031,6.005,5.93,5.8627,5.8127,5.7973,5.7877,5.7511,5.7665,5.78,5.7915,5.8377,5.8934,5.9146,5.9608,6.0204,6.0377,6.0646,6.0704,6.08,6.08,6.08,6.08,6.08,6.08,6.08,6.08,6.08,6.08,6.08,6.08,6.08,6.08,6.08,6.08,6.08,6.08,6.08,6.08,6.08,6.08,6.08,6.08,6.08,6.08,6.08,6.08,6.08,6.08,6.08,6.08,6.08,6.08,6.08,6.08,6.08,6.0781,6.0804,6.0831,6.0894,6.0882,6.0923,6.0923,6.0885,6.1008,6.1058,6.0783,6.0575,6.0676,6.0522,6.0126,6.0418,6.1035,6.1055,6.082,6.1133,6.1269,6.1308,6.1308,6.1191,6.1152,5.982,5.9885,6.0305,6.0449,6.0308,6.0281,5.98,5.9281,5.9915,5.9935,5.9608,6.0031,6.0473,6.0781,6.0781,6.0608,6.0223,6.0185,6.0185,6.0204,6.03,6.0531,6.0627,6.0762,6.08,6.08,6.08,6.08,6.08,6.08,6.0762,6.0742,6.08,6.08,6.0704,6.055,6.0223,5.9531,5.9031,5.8838,5.8704,5.855,5.8473,5.8742,5.8781,5.9242,5.9838,5.9954,6.0319,6.0723,6.0781,6.08,6.08,6.08,6.08,6.08,6.08,6.08,6.08,6.08,6.08,6.08,6.08,6.08,6.08,6.08,6.08,6.08,6.08,6.08,6.08,6.08,6.08,6.08,6.08,6.08,6.08,6.08,6.08,6.08,6.08,6.08,6.08,6.08,6.08,6.08,6.08,6.08,6.08,6.08,6.08,6.0793,6.0793,6.0819,6.08,6.08,6.0819,6.0845,6.088,6.0935,6.0945,6.0905,6.0786,6.0903,6.1025,6.1234,6.1298,6.1478,6.1426,6.1654,6.168,6.1601,6.1523,6.1523,6.1523,5.9356,5.9353,5.9779,5.9696,5.9406,5.931,5.8779,5.8212,5.8748,5.9311,5.9412,5.9608,6.0185,6.0685,6.0608,6.0185,5.9762,5.955,5.9415,5.9415,5.9415,5.9762,6.0358,6.0666,6.0589,6.0704,6.08,6.08,6.08,6.08,6.08,6.08,6.08,6.08,6.08,6.08,6.0569,6.0358,5.9896,5.9608,5.9435,5.9088,5.8838,5.9473,5.9704,5.9935,6.0512,6.0762,6.08,6.08,6.08,6.08,6.08,6.08,6.08,6.08,6.08,6.08,6.08,6.08,6.08,6.08,6.08,6.08,6.08,6.08,6.08,6.08,6.08,6.08,6.08,6.08,6.08,6.08,6.08,6.08,6.08,6.08,6.08,6.08,6.08,6.08,6.08,6.08,6.08,6.08,6.08,6.08,6.08,6.08,6.08,6.08,6.08,6.08,6.08,6.08,6.08,6.0804,6.0827,6.0819,6.0869,6.0845,6.0804,6.0924,6.1051,6.1135,6.1233,6.1404,6.154,6.1553,6.1601,6.168,6.1699,6.1699,6.1699,5.8874,5.8838,5.8712,5.8581,5.8432,5.7856,5.715,5.636,5.6493,5.7775,5.9338,6.0077,6.0492,6.0589,6.0127,5.9704,5.9511,5.8973,5.8665,5.8627,5.8627,5.9127,5.9723,5.9992,6.0223,6.0627,6.08,6.08,6.08,6.08,6.08,6.08,6.08,6.08,6.08,6.08,6.0781,6.0762,6.0569,6.0339,6.0262,6.0339,6.0377,6.0454,6.0492,6.0454,6.08,6.08,6.08,6.08,6.08,6.08,6.08,6.08,6.08,6.08,6.08,6.08,6.08,6.08,6.08,6.08,6.08,6.08,6.08,6.08,6.08,6.08,6.08,6.08,6.08,6.08,6.08,6.08,6.08,6.08,6.08,6.08,6.08,6.08,6.08,6.08,6.08,6.08,6.08,6.08,6.08,6.08,6.08,6.08,6.08,6.08,6.08,6.08,6.08,6.08,6.08,6.08,6.0804,6.0793,6.08,6.08,6.0793,6.0845,6.0934,6.1019,6.1143,6.1344,6.1458,6.1472,6.1582,6.168,6.1699,6.1699,6.1699,5.8172,5.7886,5.7865,5.7746,5.7542,5.714,5.6479,5.5856,5.6118,5.7051,5.8222,5.8764,5.9324,6.0046,5.9704,5.9473,5.9319,5.8665,5.8454,5.83,5.8011,5.8607,5.9011,5.9473,6.0127,6.0589,6.0742,6.08,6.08,6.08,6.08,6.08,6.08,6.08,6.08,6.08,6.08,6.0781,6.08,6.08,6.08,6.08,6.08,6.08,6.08,6.08,6.08,6.08,6.08,6.08,6.08,6.08,6.08,6.08,6.08,6.08,6.08,6.08,6.08,6.08,6.08,6.08,6.08,6.08,6.08,6.08,6.08,6.08,6.08,6.08,6.08,6.08,6.08,6.08,6.08,6.08,6.08,6.08,6.08,6.08,6.08,6.08,6.08,6.08,6.08,6.08,6.08,6.08,6.08,6.08,6.08,6.08,6.08,6.08,6.08,6.08,6.08,6.08,6.08,6.08,6.08,6.08,6.0804,6.0842,6.0856,6.0871,6.1025,6.1246,6.1359,6.1378,6.1543,6.1699,6.1699,6.1699,6.1699,5.7248,5.6742,5.6918,5.6836,5.6583,5.6413,5.5943,5.549,5.6124,5.644,5.6479,5.6227,5.7357,5.8678,5.9261,5.9304,5.9019,5.8223,5.8069,5.78,5.7176,5.7915,5.8704,5.9338,5.9915,6.0454,6.0762,6.08,6.08,6.08,6.08,6.08,6.08,6.08,6.08,6.08,6.08,6.08,6.08,6.08,6.08,6.08,6.08,6.08,6.08,6.08,6.08,6.08,6.08,6.08,6.08,6.08,6.08,6.08,6.08,6.08,6.08,6.08,6.08,6.08,6.08,6.08,6.08,6.08,6.08,6.08,6.08,6.08,6.08,6.08,6.08,6.08,6.08,6.08,6.08,6.08,6.08,6.08,6.08,6.08,6.08,6.08,6.08,6.08,6.08,6.08,6.08,6.08,6.08,6.08,6.08,6.08,6.08,6.08,6.08,6.08,6.08,6.08,6.08,6.08,6.08,6.08,6.08,6.0781,6.0808,6.0834,6.0944,6.114,6.1207,6.1318,6.1523,6.1699,6.1699,6.1699,6.1699,5.5959,5.578,5.5245,5.4946,5.4829,5.4256,5.3793,5.3739,5.3909,5.4087,5.4465,5.459,5.5595,5.7925,5.7976,5.8145,5.845,5.7735,5.7346,5.7099,5.6676,5.7357,5.8319,5.9242,5.9646,6.0242,6.08,6.08,6.08,6.08,6.08,6.08,6.08,6.08,6.08,6.08,6.08,6.08,6.08,6.08,6.08,6.08,6.08,6.08,6.08,6.08,6.08,6.08,6.08,6.08,6.08,6.08,6.08,6.08,6.08,6.08,6.08,6.08,6.08,6.08,6.08,6.08,6.08,6.08,6.08,6.08,6.08,6.08,6.08,6.08,6.08,6.08,6.08,6.08,6.08,6.08,6.08,6.08,6.08,6.08,6.08,6.08,6.08,6.08,6.08,6.08,6.08,6.08,6.08,6.08,6.08,6.08,6.08,6.08,6.08,6.08,6.08,6.08,6.08,6.08,6.08,6.08,6.08,6.08,6.0793,6.0808,6.0934,6.1103,6.122,6.1359,6.1551,6.168,6.1699,6.1699,6.1699]}]]